Date StartTime U_cm/s V_cm/s W_cm/s Ustd_cm/s Vstd_cm/s Wstd_cm/s Uvar_(cm/s)^2 Vvar_(cm/s)^2 Wvar_(cm/s)^2 KE_(m/s)^2 TurbulentKE_(m/s)^2 HorizWindSpeed_cm/s FrictionSpeec_cm/s DragCoef SpeedOfSound_m/s SonicTemperature_C Pressure_mb 
09/05/2014  00:00:00      -75.575      -26.179       -2.273       32.319       38.422       17.430     1044.496     1476.233      303.802        0.461        0.141       79.981       17.326        0.047      342.066       17.215      859.777
09/05/2014  00:01:00     -100.979        0.850        0.203       44.268       34.743       22.580     1959.665     1207.090      509.834        0.694        0.184      100.983       25.094        0.062      342.150       17.358      859.785
09/05/2014  00:02:00      -69.309      -12.254        1.593       31.863       30.928       20.022     1015.267      956.534      400.888        0.366        0.119       70.384       16.565        0.055      342.083       17.244      859.782
09/05/2014  00:03:00      -58.622       -2.218       -1.333       36.234       25.747       18.213     1312.937      662.903      331.722        0.288        0.115       58.664       16.945        0.083      341.989       17.085      859.783
09/05/2014  00:04:00     -106.197       -8.039       -8.150       43.133       31.995       21.422     1860.452     1023.676      458.889        0.738        0.167      106.501       22.348        0.044      341.971       17.053      859.791
09/05/2014  00:05:00      -95.488       -5.049       -3.617       46.352       36.043       24.600     2148.483     1299.100      605.182        0.660        0.203       95.621       24.252        0.064      341.928       16.982      859.794
09/05/2014  00:06:00     -114.440       -0.285      -12.682       32.348       28.727       18.083     1046.379      825.220      327.012        0.773        0.110      114.440       15.503        0.018      342.026       17.147      859.804
09/05/2014  00:07:00     -119.599       11.696      -13.306       29.764       24.867       20.680      885.885      618.361      427.665        0.827        0.097      120.170       17.770        0.022      342.101       17.274      859.832
09/05/2014  00:08:00     -107.877       21.439      -12.414       38.827       35.727       21.864     1507.554     1276.393      478.016        0.776        0.163      109.986       15.801        0.021      342.125       17.315      859.849
09/05/2014  00:09:00      -95.705        3.316       -9.049       38.821       35.452       22.553     1507.059     1256.853      508.628        0.626        0.164       95.763       17.354        0.033      342.083       17.245      859.857
09/05/2014  00:10:00      -61.513       -0.465       -8.457       32.078       30.119       16.919     1028.967      907.150      286.263        0.304        0.111       61.515       15.089        0.060      342.008       17.118      859.855
09/05/2014  00:11:00      -35.173      -24.160        0.280       24.242       20.557       16.758      587.698      422.591      280.847        0.156        0.065       42.671        7.225        0.029      341.944       17.007      859.857
09/05/2014  00:12:00      -71.389      -32.472       -0.117       33.671       36.730       18.050     1133.758     1349.081      325.786        0.448        0.140       78.427       16.059        0.042      341.915       16.958      859.856
09/05/2014  00:13:00      -90.293      -41.984       -7.009       33.261       38.873       15.740     1106.274     1511.111      247.763        0.641        0.143       99.577       10.986        0.012      341.850       16.849      859.855
09/05/2014  00:14:00      -67.165      -49.768       -7.884       44.720       26.350       20.997     1999.881      694.297      440.861        0.509        0.157       83.594       11.468        0.019      341.831       16.817      859.854
09/05/2014  00:15:00      -84.311      -65.455       -1.148       42.702       35.406       19.431     1823.427     1253.609      377.579        0.742        0.173      106.736       16.835        0.025      341.914       16.957      859.871
09/05/2014  00:16:00      -78.758      -37.142       -0.338       33.234       46.550       17.455     1104.521     2166.934      304.670        0.558        0.179       87.077       13.280        0.023      341.840       16.831      859.872
09/05/2014  00:17:00      -95.093      -45.130       -5.651       28.766       43.332       19.443      827.472     1877.666      378.045        0.710        0.154      105.259       18.939        0.032      341.865       16.874      859.879
09/05/2014  00:18:00      -65.995      -37.738       -0.790       37.758       27.448       17.495     1425.630      753.419      306.082        0.413        0.124       76.023       13.252        0.030      341.806       16.775      859.881
09/05/2014  00:19:00      -50.706      -20.490        2.877       41.228       34.590       15.568     1699.768     1196.434      242.351        0.307        0.157       54.689       13.919        0.065      341.785       16.738      859.875
09/05/2014  00:20:00      -53.210       -9.381        0.611       38.850       29.029       18.951     1509.286      842.671      359.153        0.281        0.136       54.031       20.579        0.145      341.809       16.780      859.876
09/05/2014  00:21:00      -72.870      -14.921      -12.206       18.584       18.905       12.717      345.350      357.398      161.717        0.327        0.043       74.382       10.519        0.020      341.833       16.820      859.886
09/05/2014  00:22:00      -77.318       -4.563      -15.412       21.452       28.034       14.401      460.169      785.917      207.383        0.384        0.073       77.452        9.000        0.014      341.879       16.898      859.891
09/05/2014  00:23:00      -87.312      -23.641      -11.143       22.063       25.457       16.491      486.763      648.066      271.961        0.486        0.070       90.456       12.606        0.019      341.913       16.956      859.895
09/05/2014  00:24:00      -47.939      -29.491       -6.699       36.203       29.330       25.710     1310.624      860.269      660.986        0.302        0.142       56.284       27.105        0.232      341.869       16.881      859.902
09/05/2014  00:25:00     -116.603      -53.728      -16.631       41.894       22.010       16.734     1755.132      484.454      280.035        0.964        0.126      128.386        8.491        0.004      341.827       16.810      859.914
09/05/2014  00:26:00      -83.929      -43.040       -7.272       54.787       31.282       21.841     3001.590      978.558      477.014        0.670        0.223       94.321       24.984        0.070      341.743       16.668      859.917
09/05/2014  00:27:00     -118.828      -50.166       -0.232       39.789       27.182       18.707     1583.147      738.870      349.962        0.965        0.134      128.983       19.781        0.024      341.681       16.562      859.927
09/05/2014  00:28:00     -101.197      -50.713        0.996       33.492       27.411       16.003     1121.709      751.338      256.088        0.747        0.106      113.193       13.708        0.015      341.660       16.527      859.937
09/05/2014  00:29:00     -109.969      -36.069       -5.901       23.387       19.068       12.102      546.974      363.601      146.447        0.724        0.053      115.733        7.857        0.005      341.756       16.688      859.929
09/05/2014  00:30:00      -86.537      -50.328        0.501       27.138       22.322       20.053      736.477      498.263      402.134        0.583        0.082      100.108       14.074        0.020      341.789       16.744      859.930
09/05/2014  00:31:00      -83.124      -57.099       -2.593       30.968       23.328       17.531      959.006      544.182      307.323        0.599        0.091      100.846       15.645        0.024      341.808       16.778      859.932
09/05/2014  00:32:00     -113.674      -64.057       -3.562       41.330       21.711       22.242     1708.176      471.373      494.722        0.986        0.134      130.480       20.969        0.026      341.753       16.686      859.917
09/05/2014  00:33:00     -129.378      -65.288       -3.281       31.099       25.907       17.770      967.137      671.173      315.756        1.148        0.098      144.918       16.597        0.013      341.754       16.686      859.910
09/05/2014  00:34:00     -138.945      -43.475       -3.628       41.179       26.610       20.867     1695.718      708.090      435.436        1.202        0.142      145.588       22.942        0.025      341.686       16.571      859.914
09/05/2014  00:35:00      -89.656      -25.340       -0.042       53.266       35.894       18.292     2837.312     1288.409      334.585        0.657        0.223       93.168       22.031        0.056      341.632       16.480      859.904
09/05/2014  00:36:00     -100.657      -31.517        1.862       32.939       30.752       18.531     1084.960      945.713      343.401        0.675        0.119      105.476       14.899        0.020      341.608       16.440      859.894
09/05/2014  00:37:00     -103.656      -51.007      -10.478       49.872       27.894       18.130     2487.201      778.052      328.707        0.852        0.180      115.527       11.798        0.010      341.674       16.551      859.894
09/05/2014  00:38:00     -147.454      -75.067       -8.889       29.996       39.648       22.944      899.752     1571.924      526.437        1.523        0.150      165.462       15.600        0.009      341.664       16.534      859.896
09/05/2014  00:39:00     -122.346      -82.387       -3.382       40.022       31.264       25.219     1601.770      977.443      635.980        1.249        0.161      147.499       20.503        0.019      341.601       16.427      859.890
09/05/2014  00:40:00     -116.073      -90.911       -7.222       45.183       37.380       26.874     2041.463     1397.302      722.238        1.297        0.208      147.437       22.374        0.023      341.631       16.477      859.886
09/05/2014  00:41:00     -131.099      -74.277       -4.184       57.314       30.195       23.853     3284.850      911.729      568.987        1.374        0.238      150.678       23.087        0.023      341.573       16.379      859.880
09/05/2014  00:42:00     -133.535      -66.437       -1.685       32.382       24.328       19.739     1048.625      591.863      389.634        1.214        0.102      149.149       19.380        0.017      341.559       16.355      859.887
09/05/2014  00:43:00     -130.763      -55.452       -4.809       21.060       24.874       13.918      443.526      618.703      193.712        1.073        0.063      142.035        9.721        0.005      341.611       16.443      859.882
09/05/2014  00:44:00     -119.719      -28.675       -4.631       27.676       27.118       17.848      765.972      735.360      318.544        0.850        0.091      123.105       15.602        0.016      341.600       16.424      859.874
09/05/2014  00:45:00     -110.985      -45.141      -11.991       18.359       19.777       15.805      337.061      391.138      249.799        0.774        0.049      119.814       10.533        0.008      341.611       16.444      859.879
09/05/2014  00:46:00      -90.480      -44.715      -12.030       25.014       22.378       18.735      625.679      500.794      351.018        0.590        0.074      100.926        9.004        0.008      341.543       16.327      859.880
09/05/2014  00:47:00      -60.722      -36.219       -0.376       42.439       22.919       21.223     1801.029      525.296      450.411        0.389        0.139       70.703       14.798        0.044      341.557       16.352      859.871
09/05/2014  00:48:00      -65.206      -64.818        2.518       35.574       26.309       17.885     1265.478      692.177      319.874        0.537        0.114       91.942       17.506        0.036      341.523       16.293      859.873
09/05/2014  00:49:00      -40.571      -43.102        9.429       45.536       38.719       24.626     2073.500     1499.188      606.417        0.389        0.209       59.192       24.823        0.176      341.432       16.140      859.871
09/05/2014  00:50:00      -68.906      -65.055        6.125       47.189       33.097       22.223     2226.794     1095.397      493.880        0.642        0.191       94.764       21.875        0.053      341.525       16.297      859.865
09/05/2014  00:51:00      -38.054      -46.017       14.863       53.867       31.721       23.194     2901.611     1006.237      537.982        0.412        0.222       59.713       27.766        0.216      341.496       16.249      859.862
09/05/2014  00:52:00      -42.507      -47.455        5.259       37.788       27.622       19.834     1427.906      762.993      393.393        0.333        0.129       63.709       20.744        0.106      341.507       16.267      859.881
09/05/2014  00:53:00      -35.992      -36.979       15.408       42.544       28.664       19.368     1809.968      821.601      375.120        0.295        0.150       51.603       19.808        0.147      341.474       16.213      859.890
09/05/2014  00:54:00      -50.339      -44.006       -2.139       38.661       27.858       19.164     1494.687      776.055      367.268        0.356        0.132       66.862       17.079        0.065      341.523       16.294      859.897
09/05/2014  00:55:00      -16.461      -31.339       14.081       31.494       23.065       20.163      991.858      531.989      406.561        0.169        0.097       35.399       17.868        0.255      341.484       16.229      859.909
09/05/2014  00:56:00      -46.464      -41.701        5.120       37.679       37.676       22.943     1419.739     1419.484      526.388        0.364        0.168       62.433       20.072        0.103      341.469       16.202      859.922
09/05/2014  00:57:00      -79.006      -61.085        0.103       41.329       25.509       19.153     1708.048      650.699      366.822        0.635        0.136       99.867       13.503        0.018      341.466       16.197      859.919
09/05/2014  00:58:00      -86.572      -66.638        3.353       32.116       25.892       21.940     1031.461      670.389      481.375        0.706        0.109      109.249       14.853        0.018      341.448       16.167      859.922
09/05/2014  00:59:00      -88.573      -59.343        4.679       42.346       28.252       26.503     1793.193      798.153      702.384        0.734        0.165      106.615       26.449        0.062      341.357       16.013      859.927
09/05/2014  01:00:00      -68.805      -67.139        2.787       33.867       23.040       20.744     1146.979      530.824      430.307        0.568        0.105       96.134       13.876        0.021      341.348       15.997      859.921
09/05/2014  01:01:00      -68.759      -51.845        0.323       45.555       27.854       23.858     2075.240      775.837      569.181        0.542        0.171       86.115       21.299        0.061      341.318       15.948      859.913
09/05/2014  01:02:00      -89.400      -57.277       -5.482       38.418       19.345       16.851     1475.907      374.241      283.973        0.672        0.107      106.175       11.763        0.012      341.327       15.964      859.908
09/05/2014  01:03:00      -96.824      -72.545       -3.642       26.527       22.963       14.732      703.682      527.306      217.023        0.805        0.072      120.987       11.736        0.009      341.355       16.010      859.900
09/05/2014  01:04:00      -57.692      -37.098        3.145       34.469       28.654       19.139     1188.136      821.066      366.296        0.354        0.119       68.590       20.020        0.085      341.244       15.822      859.882
09/05/2014  01:05:00      -73.547      -53.519      -12.544       29.657       20.781       16.716      879.511      431.852      279.429        0.501        0.080       90.958       15.091        0.028      341.327       15.963      859.876
09/05/2014  01:06:00      -77.496      -53.809       -0.303       29.783       21.601       14.790      887.056      466.597      218.741        0.524        0.079       94.345       14.155        0.023      341.306       15.926      859.884
09/05/2014  01:07:00      -54.154      -41.286       -1.524       27.751       21.956       17.892      770.110      482.062      320.138        0.311        0.079       68.097       10.073        0.022      341.316       15.943      859.885
09/05/2014  01:08:00      -57.488      -44.179       -1.170       32.494       23.765       15.219     1055.880      564.772      231.616        0.355        0.093       72.503       15.653        0.047      341.305       15.925      859.883
09/05/2014  01:09:00      -65.579      -49.946        0.561       37.550       30.598       17.478     1410.034      936.214      305.470        0.472        0.133       82.433       20.516        0.062      341.272       15.870      859.888
09/05/2014  01:10:00      -44.986      -35.372       -2.534       28.967       27.719       16.238      839.083      768.344      263.669        0.258        0.094       57.227       10.175        0.032      341.304       15.923      859.896
09/05/2014  01:11:00      -21.825       -9.755        6.534       20.515       15.589       13.476      420.867      243.032      181.610        0.073        0.042       23.906        8.235        0.119      341.235       15.806      859.910
09/05/2014  01:12:00      -22.083      -27.822        5.006       22.324       22.424       15.014      498.381      502.847      225.428        0.126        0.061       35.521       14.877        0.175      341.288       15.897      859.919
09/05/2014  01:13:00      -47.392      -15.618       -4.420       12.691       18.749       14.251      161.059      351.512      203.089        0.161        0.036       49.900        8.009        0.026      341.414       16.109      859.921
09/05/2014  01:14:00      -30.737      -15.035       -1.608       29.787       18.887       13.909      887.265      356.704      193.465        0.131        0.072       34.217       10.886        0.101      341.365       16.028      859.928
09/05/2014  01:15:00      -28.828      -34.606        0.074       27.590       20.206       15.442      761.213      408.297      238.443        0.172        0.070       45.040       12.876        0.082      341.411       16.104      859.934
09/05/2014  01:16:00      -24.604      -32.004       -6.260       16.116       20.690       12.933      259.715      428.072      167.254        0.126        0.043       40.368        8.733        0.047      341.449       16.169      859.940
09/05/2014  01:17:00      -14.489      -24.069        4.231       22.233       13.507       10.924      494.321      182.427      119.338        0.080        0.040       28.093        9.412        0.112      341.342       15.987      859.939
09/05/2014  01:18:00        0.771      -11.559       13.255       14.904       13.560       10.941      222.120      183.871      119.704        0.042        0.026       11.585        9.279        0.642      341.367       16.030      859.943
09/05/2014  01:19:00      -43.775      -36.208       -0.435       26.387       17.165       14.258      696.300      294.633      203.296        0.221        0.060       56.809       13.403        0.056      341.333       15.973      859.952
09/05/2014  01:20:00      -64.306      -43.773       -8.548       23.279       12.584       15.183      541.934      158.359      230.533        0.353        0.047       77.790       11.649        0.022      341.286       15.892      859.952
09/05/2014  01:21:00      -88.894      -45.669       -6.591       15.571       12.766        8.786      242.465      162.961       77.201        0.526        0.024       99.939        2.681        0.001      341.290       15.899      859.955
09/05/2014  01:22:00      -91.180      -34.936      -10.250        9.510       11.617        8.451       90.447      134.963       71.424        0.497        0.015       97.644        7.107        0.005      341.228       15.798      859.960
09/05/2014  01:23:00      -84.887      -27.683      -12.342       10.299       12.192       10.738      106.067      148.638      115.311        0.425        0.019       89.287        4.525        0.003      341.231       15.800      859.973
09/05/2014  01:24:00      -89.736      -41.632      -19.287        7.969        8.239        6.953       63.512       67.878       48.338        0.517        0.009       98.923        4.245        0.002      341.153       15.667      859.995
09/05/2014  01:25:00      -96.475      -30.314       -7.401       21.193       16.211       12.400      449.149      262.802      153.762        0.557        0.043      101.125       11.484        0.013      341.195       15.740      860.006
09/05/2014  01:26:00     -104.587      -18.975      -12.826       16.077       12.313       10.450      258.464      151.603      109.205        0.599        0.026      106.294       10.779        0.010      341.154       15.670      860.013
09/05/2014  01:27:00      -99.706      -26.256      -15.932        8.535       10.277        8.958       72.848      105.613       80.254        0.557        0.013      103.105        3.254        0.001      341.157       15.677      860.015
09/05/2014  01:28:00      -91.206      -28.350      -12.529        6.750        7.000        5.365       45.564       48.999       28.785        0.470        0.006       95.511        2.704        0.001      341.143       15.652      860.015
09/05/2014  01:29:00      -70.247      -20.755      -10.155        8.042        8.370        7.526       64.675       70.060       56.645        0.283        0.010       73.249        2.902        0.002      341.167       15.692      860.014
09/05/2014  01:30:00      -66.384      -19.156      -12.563       10.887       10.467       10.672      118.529      109.566      113.899        0.264        0.017       69.092        5.704        0.007      341.204       15.755      860.016
09/05/2014  01:31:00      -69.537      -22.072      -11.925        8.093        9.677        8.858       65.498       93.654       78.464        0.285        0.012       72.956        2.515        0.001      341.134       15.636      860.020
09/05/2014  01:32:00      -75.763      -28.601      -11.474       11.097       10.037        7.012      123.149      100.733       49.174        0.348        0.014       80.982        1.624        0.000      341.145       15.655      860.025
09/05/2014  01:33:00      -37.850      -26.871        7.793       36.083       13.395       13.814     1302.000      179.438      190.832        0.194        0.084       46.419       16.905        0.133      341.164       15.686      860.023
09/05/2014  01:34:00       -9.910       -9.084        8.195       14.985       11.094       12.043      224.538      123.083      145.022        0.037        0.025       13.444        9.624        0.512      341.134       15.638      860.020
09/05/2014  01:35:00      -30.350      -21.423        0.772       21.719       16.135       10.589      471.718      260.335      112.118        0.111        0.042       37.149        6.509        0.031      341.236       15.809      860.027
09/05/2014  01:36:00      -35.892      -16.649        0.178       26.705       15.888       12.509      713.168      252.431      156.475        0.134        0.056       39.565       10.627        0.072      341.159       15.678      860.034
09/05/2014  01:37:00      -73.518      -46.835       -5.136       22.196       26.211       13.447      492.679      687.034      180.810        0.449        0.068       87.168        9.298        0.011      341.133       15.634      860.028
09/05/2014  01:38:00     -107.879      -53.893       -9.819       31.526       23.286       15.530      993.875      542.244      241.183        0.821        0.089      120.591       16.441        0.019      341.017       15.437      860.023
09/05/2014  01:39:00      -89.706      -31.191       -8.066       23.861       18.767       16.856      569.366      352.201      284.116        0.515        0.060       94.973       14.961        0.025      341.026       15.453      860.028
09/05/2014  01:40:00      -29.635      -41.292        1.136       24.140       14.730       11.542      582.732      216.965      133.219        0.176        0.047       50.826        5.511        0.012      341.081       15.546      860.030
09/05/2014  01:41:00      -16.692      -43.883       -1.438       24.415       25.241       16.262      596.117      637.123      264.445        0.185        0.075       46.951       12.889        0.075      341.157       15.676      860.043
09/05/2014  01:42:00      -56.220      -24.483        5.274       28.220       25.560       15.608      796.391      653.317      243.612        0.274        0.085       61.320       10.840        0.031      341.091       15.564      860.052
09/05/2014  01:43:00      -95.221      -53.507       -7.303       24.085       19.621       13.245      580.097      384.985      175.426        0.656        0.057      109.224       11.841        0.012      341.093       15.567      860.048
09/05/2014  01:44:00      -55.208      -30.631        5.465       37.562       22.105       20.837     1410.906      488.644      434.179        0.317        0.117       63.136       20.462        0.105      340.960       15.341      860.053
09/05/2014  01:45:00      -96.786      -38.557       -9.144       14.281       17.649        8.419      203.959      311.475       70.873        0.576        0.029      104.183        5.671        0.003      341.011       15.427      860.053
09/05/2014  01:46:00      -94.293      -37.569      -14.183       24.911       17.554       12.847      620.542      308.140      165.053        0.580        0.055      101.502       11.548        0.013      340.985       15.386      860.058
09/05/2014  01:47:00      -82.024      -33.957      -10.314       25.535       15.811       11.763      652.048      249.980      138.361        0.451        0.052       88.775        6.694        0.006      340.974       15.365      860.075
09/05/2014  01:48:00      -54.160      -42.118       -4.920       22.108       11.498       12.963      488.783      132.214      168.031        0.276        0.039       68.609       12.791        0.035      340.917       15.268      860.077
09/05/2014  01:49:00      -80.690      -35.959      -11.820        9.506       14.734        8.651       90.359      217.095       74.838        0.416        0.019       88.340        4.635        0.003      340.957       15.336      860.076
09/05/2014  01:50:00      -59.540      -32.230       -8.041       13.867       13.977       10.808      192.281      195.358      116.806        0.258        0.025       67.704        4.846        0.005      340.984       15.382      860.093
09/05/2014  01:51:00      -47.449      -30.116       -6.873       23.831       12.270       10.529      567.928      150.555      110.853        0.202        0.041       56.199        8.089        0.021      340.995       15.401      860.105
09/05/2014  01:52:00      -65.509      -25.144       -7.112       11.347        8.877        9.882      128.758       78.793       97.658        0.264        0.015       70.169        3.861        0.003      341.052       15.499      860.102
09/05/2014  01:53:00      -82.400      -25.019      -14.577       10.438       10.377        9.835      108.944      107.676       96.722        0.397        0.016       86.115        5.529        0.004      340.994       15.400      860.103
09/05/2014  01:54:00      -71.883      -34.377      -13.334       18.717       12.412        8.567      350.340      154.070       73.387        0.355        0.029       79.681        7.867        0.010      341.000       15.408      860.097
09/05/2014  01:55:00      -57.091      -32.150       -6.069       28.586       12.686       11.506      817.178      160.928      132.378        0.272        0.056       65.522       13.265        0.041      340.974       15.365      860.097
09/05/2014  01:56:00      -71.594      -37.160       -9.094       20.660       15.512       12.964      426.856      240.631      168.066        0.371        0.042       80.663        8.478        0.011      340.972       15.362      860.104
09/05/2014  01:57:00      -70.190      -43.074       -5.292       23.341       15.826       14.235      544.789      250.477      202.626        0.390        0.050       82.353        4.763        0.003      340.869       15.188      860.102
09/05/2014  01:58:00      -69.473      -36.648       -2.449       25.770       11.118        9.955      664.111      123.601       99.108        0.353        0.044       78.547        9.988        0.016      340.839       15.136      860.112
09/05/2014  01:59:00      -48.185      -37.448       -1.478       24.908       14.481        9.717      620.384      209.712       94.412        0.233        0.046       61.026        6.037        0.010      340.798       15.068      860.109
09/05/2014  02:00:00      -60.463      -19.450       -7.653       15.199       11.219        9.214      231.003      125.866       84.906        0.227        0.022       63.514        6.169        0.009      340.847       15.150      860.114
09/05/2014  02:01:00      -61.869      -22.423       -9.376        9.524        9.163        9.610       90.699       83.954       92.357        0.234        0.013       65.807        4.563        0.005      340.870       15.188      860.128
09/05/2014  02:02:00      -35.659      -21.845       -0.003       22.690       15.693       11.712      514.830      246.262      137.176        0.132        0.045       41.818       11.803        0.080      340.872       15.193      860.129
09/05/2014  02:03:00      -62.364      -29.898       -1.411       24.613       19.646        8.063      605.796      385.984       65.005        0.292        0.053       69.161        7.766        0.013      340.919       15.271      860.129
09/05/2014  02:04:00      -84.254      -45.939       -9.931       19.675       14.098       10.648      387.106      198.759      113.374        0.500        0.035       95.964        6.171        0.004      340.877       15.201      860.132
09/05/2014  02:05:00      -66.461      -33.556        1.108       23.966       15.282       15.641      574.386      233.544      244.628        0.330        0.053       74.452       13.914        0.035      340.749       14.985      860.147
09/05/2014  02:06:00      -63.610      -27.726       -6.053       13.160        9.339        9.150      173.181       87.209       83.720        0.260        0.017       69.390        7.839        0.013      340.755       14.994      860.152
09/05/2014  02:07:00      -62.724      -30.283      -11.396       11.711       16.272        9.353      137.143      264.782       87.480        0.274        0.024       69.651        4.371        0.004      340.763       15.008      860.157
09/05/2014  02:08:00      -74.537      -22.917      -14.147       12.871       10.682        9.230      165.656      114.106       85.200        0.332        0.018       77.980        3.455        0.002      340.757       14.999      860.161
09/05/2014  02:09:00      -74.752      -37.244      -10.373       19.243       10.949       10.695      370.311      119.874      114.385        0.384        0.030       83.516        9.046        0.012      340.755       14.996      860.165
09/05/2014  02:10:00      -99.819      -38.887       -3.079       20.848       18.369       11.320      434.650      337.435      128.147        0.619        0.045      107.126        7.144        0.004      340.746       14.979      860.174
09/05/2014  02:11:00     -109.459      -46.542      -11.762       12.427       14.366        8.898      154.428      206.385       79.178        0.736        0.022      118.943        3.992        0.001      340.722       14.941      860.194
09/05/2014  02:12:00      -72.491      -45.128       -5.239       37.419       17.188       15.239     1400.178      295.415      232.230        0.462        0.096       85.390        8.965        0.011      340.702       14.905      860.201
09/05/2014  02:13:00     -102.929      -44.549      -11.844       14.500       15.029       12.808      210.263      225.874      164.033        0.666        0.030      112.156        4.433        0.002      340.706       14.911      860.201
09/05/2014  02:14:00     -102.348      -27.502      -10.038       13.188       14.002        9.475      173.921      196.048       89.776        0.590        0.023      105.978        5.795        0.003      340.700       14.903      860.204
09/05/2014  02:15:00      -63.970      -46.508        2.004       27.447       15.203       15.682      753.337      231.118      245.911        0.374        0.062       79.089       16.370        0.043      340.739       14.969      860.229
09/05/2014  02:16:00      -68.780      -37.921       -5.357       11.940       18.720       11.181      142.554      350.423      125.020        0.341        0.031       78.541        7.375        0.009      340.793       15.058      860.248
09/05/2014  02:17:00      -78.736      -41.932       -7.552       17.705       16.725       12.967      313.476      279.732      168.154        0.439        0.038       89.206        5.281        0.004      340.800       15.071      860.259
09/05/2014  02:18:00     -109.765      -62.731      -14.645       20.425       20.571       13.014      417.165      423.158      169.363        0.860        0.050      126.426        8.117        0.004      340.764       15.009      860.267
09/05/2014  02:19:00     -126.530      -61.465       -3.585       31.473       27.975       18.046      990.528      782.594      325.667        1.095        0.105      140.669       17.551        0.016      340.705       14.909      860.286
09/05/2014  02:20:00     -110.463      -60.735        3.231       32.875       26.705       21.387     1080.775      713.144      457.407        0.908        0.113      126.059       20.546        0.027      340.574       14.689      860.295
09/05/2014  02:21:00     -111.161      -63.434       -2.436       30.227       29.914       15.847      913.652      894.873      251.127        0.922        0.103      127.987       13.858        0.012      340.662       14.837      860.296
09/05/2014  02:22:00      -57.178      -43.060        7.533       48.206       30.281       21.706     2323.782      916.952      471.149        0.445        0.186       71.579       22.884        0.102      340.684       14.875      860.303
09/05/2014  02:23:00      -70.930      -38.149        3.347       52.411       28.363       20.203     2746.934      804.485      408.168        0.523        0.198       80.539       23.233        0.083      340.642       14.802      860.311
09/05/2014  02:24:00      -75.534      -50.321        5.424       59.566       40.011       24.625     3548.084     1600.854      606.376        0.701        0.288       90.761       29.727        0.107      340.593       14.720      860.313
09/05/2014  02:25:00      -80.484      -58.896        0.038       59.119       41.390       24.807     3495.049     1713.137      615.375        0.788        0.291       99.732       26.560        0.071      340.594       14.722      860.302
09/05/2014  02:26:00      -96.862      -75.339        7.381       58.318       43.771       27.146     3401.020     1915.899      736.891        1.058        0.303      122.712       30.995        0.064      340.553       14.652      860.296
09/05/2014  02:27:00      -72.810      -73.667        5.428       52.637       33.407       23.439     2770.629     1116.017      549.383        0.760        0.222      103.577       16.394        0.025      340.580       14.699      860.297
09/05/2014  02:28:00      -87.983      -78.728       -0.027       47.782       33.797       24.314     2283.097     1142.214      591.193        0.898        0.201      118.064       28.420        0.058      340.631       14.785      860.313
09/05/2014  02:29:00      -72.159      -75.137        2.095       37.241       31.333       24.354     1386.901      981.748      593.131        0.691        0.148      104.175       21.486        0.043      340.595       14.721      860.311
09/05/2014  02:30:00      -72.534      -57.114        4.927       35.857       25.019       15.784     1285.720      625.968      249.127        0.535        0.108       92.321       11.806        0.016      340.627       14.779      860.304
09/05/2014  02:31:00      -71.963      -65.510        4.078       53.227       33.352       22.165     2833.094     1112.347      491.274        0.696        0.222       97.315       23.064        0.056      340.650       14.818      860.311
09/05/2014  02:32:00      -97.008      -54.600        7.984       53.433       32.455       18.771     2855.083     1053.343      352.342        0.836        0.213      111.318       17.561        0.025      340.570       14.681      860.305
09/05/2014  02:33:00     -101.276      -45.569        3.314       40.667       28.109       23.632     1653.805      790.117      558.456        0.767        0.150      111.056       17.268        0.024      340.504       14.571      860.312
09/05/2014  02:34:00     -100.571      -55.610        4.581       40.522       27.667       20.967     1642.067      765.457      439.597        0.804        0.142      114.922       19.781        0.030      340.529       14.613      860.322
09/05/2014  02:35:00      -38.292      -42.680        5.856       29.994       25.187       20.004      899.665      634.400      400.153        0.263        0.097       57.340       15.254        0.071      340.607       14.745      860.340
09/05/2014  02:36:00      -49.056      -44.076       -1.443       36.584       23.899       20.765     1338.358      571.183      431.199        0.335        0.117       65.948       20.313        0.095      340.615       14.758      860.338
09/05/2014  02:37:00      -66.587      -56.035        2.493       43.266       24.720       22.702     1871.990      611.062      515.399        0.529        0.150       87.027       24.424        0.079      340.591       14.717      860.332
09/05/2014  02:38:00      -90.719      -68.153       -0.569       28.442       38.026       22.936      808.976     1446.011      526.080        0.783        0.139      113.467       18.151        0.026      340.592       14.720      860.342
09/05/2014  02:39:00      -76.633      -68.060       -0.282       53.833       40.250       25.375     2898.045     1620.087      643.915        0.783        0.258      102.493       28.886        0.079      340.568       14.678      860.346
09/05/2014  02:40:00      -77.237      -58.300       -1.730       33.311       42.433       19.622     1109.642     1800.571      385.019        0.633        0.165       96.771       15.802        0.027      340.598       14.729      860.344
09/05/2014  02:41:00      -34.821      -12.593       10.982       34.041       20.866       16.548     1158.819      435.378      273.826        0.168        0.093       37.028        6.153        0.028      340.590       14.717      860.338
09/05/2014  02:42:00      -36.844      -26.291        5.930       33.975       23.927       17.431     1154.290      572.517      303.832        0.206        0.102       45.263       14.067        0.097      340.611       14.752      860.342
09/05/2014  02:43:00      -76.643      -33.596        1.732       31.988       30.481       15.610     1023.261      929.104      243.657        0.460        0.110       83.683       13.855        0.027      340.613       14.754      860.357
09/05/2014  02:44:00      -86.529      -39.750       -2.571       26.294       23.275       20.217      691.388      541.728      408.728        0.536        0.082       95.223       16.312        0.029      340.623       14.772      860.364
09/05/2014  02:45:00      -82.898      -47.621       -0.753       30.969       15.507       14.792      959.109      240.456      218.813        0.528        0.071       95.602       10.298        0.012      340.578       14.696      860.374
09/05/2014  02:46:00     -109.594      -49.227       -3.486       34.714       19.977       15.365     1205.072      399.070      236.081        0.814        0.092      120.142       16.594        0.019      340.543       14.637      860.401
09/05/2014  02:47:00      -71.132      -54.090       -0.566       30.104       29.362       14.746      906.276      862.132      217.439        0.499        0.099       89.361        7.702        0.007      340.590       14.715      860.414
09/05/2014  02:48:00      -80.121      -32.803        0.691       20.237       19.743       15.997      409.527      389.806      255.893        0.428        0.053       86.576       12.386        0.020      340.582       14.703      860.420
09/05/2014  02:49:00      -80.525      -19.157       -5.133       21.102       17.921       11.214      445.279      321.161      125.750        0.388        0.045       82.772       10.601        0.016      340.511       14.582      860.439
09/05/2014  02:50:00      -86.970      -44.874       -7.321       16.431       19.848       14.276      269.985      393.946      203.816        0.525        0.043       97.865        9.485        0.009      340.565       14.675      860.439
09/05/2014  02:51:00     -103.394      -41.486       -9.416       18.418       21.534       12.359      339.208      463.708      152.744        0.673        0.048      111.407        7.286        0.004      340.530       14.615      860.429
09/05/2014  02:52:00      -82.204      -44.642        2.715       30.117       21.078       16.025      907.041      444.284      256.802        0.518        0.080       93.543       16.573        0.031      340.465       14.503      860.418
09/05/2014  02:53:00     -122.711      -29.844      -10.165       17.163       17.800       14.552      294.560      316.839      211.766        0.844        0.041      126.288       10.864        0.007      340.428       14.441      860.415
09/05/2014  02:54:00     -109.553      -26.311      -11.862       21.614       13.849       13.912      467.176      191.793      193.548        0.684        0.043      112.668       10.260        0.008      340.375       14.352      860.416
09/05/2014  02:55:00      -94.863      -18.401      -13.259       26.327       14.839       12.024      693.110      220.196      144.567        0.529        0.053       96.631       12.088        0.016      340.416       14.422      860.411
09/05/2014  02:56:00     -105.072      -18.593      -11.716       20.887       15.602       15.180      436.259      243.431      230.421        0.622        0.046      106.705       13.314        0.016      340.433       14.449      860.406
09/05/2014  02:57:00     -136.455      -28.050      -16.494       17.868       12.595       12.172      319.275      158.627      148.165        1.015        0.031      139.309        8.942        0.004      340.368       14.340      860.410
09/05/2014  02:58:00     -144.497      -39.898      -15.802       13.227       15.790       14.072      174.945      249.340      198.011        1.167        0.031      149.904        8.992        0.004      340.374       14.351      860.424
09/05/2014  02:59:00     -123.188      -51.315       -5.122       33.983       23.986       18.556     1154.845      575.317      344.315        0.995        0.104      133.448       16.988        0.016      340.388       14.372      860.426
09/05/2014  03:00:00     -109.082      -33.798       -8.516       39.806       20.558       16.398     1584.495      422.642      268.889        0.769        0.114      114.198       17.467        0.023      340.391       14.380      860.428
09/05/2014  03:01:00      -92.626      -59.223      -10.766       25.465       21.952       17.225      648.464      481.905      296.707        0.681        0.071      109.940       10.437        0.009      340.376       14.354      860.432
09/05/2014  03:02:00      -86.355      -58.817       -7.204       38.426       23.063       15.221     1476.590      531.920      231.685        0.660        0.112      104.482        3.801        0.001      340.375       14.353      860.440
09/05/2014  03:03:00      -99.247      -30.844       -3.354       44.330       22.058       24.415     1965.118      486.566      596.085        0.693        0.152      103.929       27.809        0.072      340.261       14.158      860.445
09/05/2014  03:04:00      -62.224      -33.847        0.436       44.853       42.478       25.704     2011.808     1804.361      660.686        0.475        0.224       70.834       27.043        0.146      340.288       14.205      860.453
09/05/2014  03:05:00      -65.391      -15.081       -2.189       29.636       20.341       14.531      878.273      413.763      211.141        0.301        0.075       67.107       13.217        0.039      340.328       14.273      860.465
09/05/2014  03:06:00     -103.193      -24.275       -9.016       23.185       23.488       14.713      537.524      551.685      216.475        0.631        0.065      106.010       12.511        0.014      340.474       14.518      860.485
09/05/2014  03:07:00      -81.723      -32.482      -16.005       35.542       29.943       15.650     1263.261      896.592      244.926        0.520        0.120       87.941       13.697        0.024      340.432       14.447      860.490
09/05/2014  03:08:00     -103.624      -59.495       -8.205       24.742       29.848       17.336      612.152      890.921      300.531        0.807        0.090      119.489       14.480        0.015      340.381       14.363      860.493
09/05/2014  03:09:00     -109.704      -50.775       -2.854       48.341       27.390       19.841     2336.822      750.193      393.658        0.905        0.174      120.885       22.841        0.036      340.357       14.320      860.495
09/05/2014  03:10:00      -70.389      -31.231        2.207       44.637       30.097       20.181     1992.502      905.809      407.264        0.462        0.165       77.007       12.127        0.025      340.305       14.232      860.507
09/05/2014  03:11:00      -99.733      -45.863       -4.054       28.586       18.316       20.609      817.157      335.466      424.716        0.682        0.079      109.773       17.390        0.025      340.313       14.246      860.531
09/05/2014  03:12:00      -52.770      -36.728        0.729       38.839       20.317       13.325     1508.463      412.763      177.555        0.312        0.105       64.293       16.728        0.068      340.321       14.262      860.544
09/05/2014  03:13:00      -25.004      -21.871       -0.362       22.473       24.575       14.189      505.015      603.920      201.332        0.121        0.066       33.220       12.385        0.139      340.307       14.237      860.556
09/05/2014  03:14:00      -46.416      -31.631       -7.206       19.795       18.415       14.245      391.826      339.095      202.907        0.207        0.047       56.169        8.024        0.020      340.347       14.304      860.566
09/05/2014  03:15:00      -81.662      -33.902       -8.571       12.140        9.532        6.057      147.373       90.853       36.685        0.408        0.014       88.419        2.032        0.001      340.311       14.242      860.581
09/05/2014  03:16:00      -99.164      -45.597       -8.494        9.257       13.480        9.781       85.695      181.707       95.669        0.617        0.018      109.145        5.501        0.003      340.415       14.420      860.585
09/05/2014  03:17:00     -102.289      -44.469      -15.728       13.282       11.959       12.589      176.424      143.012      158.494        0.658        0.024      111.537        5.878        0.003      340.413       14.416      860.585
09/05/2014  03:18:00      -62.285      -45.573       -6.237       37.650       22.541       18.984     1417.486      508.102      360.409        0.414        0.114       77.177       18.288        0.056      340.386       14.372      860.597
09/05/2014  03:19:00      -71.067      -55.849       -4.953       32.622       20.464       18.223     1064.193      418.776      332.079        0.500        0.091       90.386        7.521        0.007      340.361       14.329      860.606
09/05/2014  03:20:00      -72.057      -58.000       -4.534       32.847       15.577       17.251     1078.956      242.651      297.595        0.510        0.081       92.499       13.313        0.021      340.319       14.257      860.606
09/05/2014  03:21:00      -95.348      -64.348       -4.647       20.046       15.853       16.125      401.828      251.324      260.013        0.708        0.046      115.030       11.431        0.010      340.281       14.194      860.601
09/05/2014  03:22:00      -90.407      -61.378       -1.197       29.387       15.832       14.993      863.601      250.667      224.800        0.664        0.067      109.274       13.812        0.016      340.274       14.181      860.612
09/05/2014  03:23:00      -48.570      -36.680        1.684       29.185       18.150       19.992      851.751      329.417      399.660        0.264        0.079       60.864       10.286        0.029      340.203       14.060      860.627
09/05/2014  03:24:00      -50.669      -34.742        4.827       31.091       15.270       18.494      966.640      233.164      342.037        0.267        0.077       61.436       20.142        0.107      340.221       14.091      860.635
09/05/2014  03:25:00      -56.587      -38.269        0.462       32.922       27.370       15.865     1083.855      749.116      251.682        0.338        0.104       68.313       13.836        0.041      340.223       14.095      860.634
09/05/2014  03:26:00      -75.265      -61.152       -3.872       19.379       18.778       12.262      375.533      352.626      150.345        0.515        0.044       96.976        6.288        0.004      340.324       14.267      860.631
09/05/2014  03:27:00      -59.338      -35.717       -3.054       25.515       22.363        9.954      651.028      500.084       99.074        0.303        0.063       69.258        9.948        0.021      340.246       14.135      860.632
09/05/2014  03:28:00      -79.644      -32.147       -3.264       28.897       17.101       11.537      835.065      292.458      133.098        0.432        0.063       85.887       12.351        0.021      340.192       14.043      860.642
09/05/2014  03:29:00      -64.486      -25.799       -1.043       26.852       17.583       11.318      721.024      309.171      128.089        0.299        0.058       69.456       13.313        0.037      340.129       13.936      860.659
09/05/2014  03:30:00      -53.303      -33.693       -2.826       17.944       19.328       15.457      321.985      373.567      238.928        0.246        0.047       63.059       10.201        0.026      340.157       13.983      860.668
09/05/2014  03:31:00      -53.015      -30.850        4.405       29.566       18.403       19.109      874.143      338.658      365.157        0.268        0.079       61.338       18.504        0.091      340.159       13.986      860.680
09/05/2014  03:32:00      -54.978      -42.370       -1.353       36.706       22.901       15.965     1347.350      524.451      254.876        0.347        0.106       69.410       15.493        0.050      340.196       14.049      860.701
09/05/2014  03:33:00      -58.376      -58.585      -10.142       29.245       15.701       14.326      855.268      246.532      205.224        0.412        0.065       82.704       12.707        0.024      340.199       14.055      860.726
09/05/2014  03:34:00      -84.776      -52.261      -11.664       19.532       18.719       12.557      381.483      350.396      157.669        0.547        0.044       99.590        9.939        0.010      340.221       14.092      860.738
09/05/2014  03:35:00      -76.339      -50.728       -3.067       20.820       19.004       10.674      433.468      361.146      113.925        0.466        0.045       91.656        8.955        0.010      340.178       14.020      860.746
09/05/2014  03:36:00      -44.684      -33.075       -0.552       32.178       22.506       15.240     1035.431      506.536      232.254        0.243        0.089       55.593       10.021        0.032      340.125       13.930      860.754
09/05/2014  03:37:00      -29.788      -33.971        7.791       32.569       28.340       19.616     1060.753      803.170      384.787        0.217        0.112       45.181       16.837        0.139      340.051       13.806      860.764
09/05/2014  03:38:00      -70.919      -54.413        3.232       36.195       24.604       19.216     1310.088      605.354      369.254        0.514        0.114       89.388       14.062        0.025      340.084       13.859      860.770
09/05/2014  03:39:00      -63.516      -48.033       -1.407       34.654       23.877       16.145     1200.899      570.090      260.666        0.419        0.102       79.633       17.501        0.048      340.112       13.908      860.768
09/05/2014  03:40:00      -62.281      -54.248        3.742       32.751       23.445       18.110     1072.611      549.680      327.976        0.439        0.098       82.594       15.087        0.033      340.161       13.990      860.767
09/05/2014  03:41:00      -50.477      -34.891        3.351       26.353       17.914       18.655      694.482      320.912      348.014        0.257        0.068       61.362       11.891        0.038      340.089       13.870      860.762
09/05/2014  03:42:00      -68.345      -63.827       -5.899       29.003       22.976       13.081      841.150      527.881      171.103        0.516        0.077       93.514       15.383        0.027      340.165       13.998      860.761
09/05/2014  03:43:00      -81.998      -56.374       -7.640       20.497       25.419       13.834      420.108      646.129      191.372        0.561        0.063       99.507        5.030        0.003      340.214       14.079      860.762
09/05/2014  03:44:00      -92.769      -60.121       -6.118       16.610       25.197        9.167      275.898      634.889       84.030        0.663        0.050      110.547       10.012        0.008      340.174       14.011      860.753
09/05/2014  03:45:00      -66.996      -39.666       -4.217       17.823       16.359       12.582      317.666      267.608      158.314        0.341        0.037       77.858        9.118        0.014      340.185       14.031      860.746
09/05/2014  03:46:00      -34.293      -21.124        6.065       30.214       17.729       12.554      912.895      314.317      157.598        0.152        0.069       40.277        5.613        0.019      340.155       13.981      860.740
09/05/2014  03:47:00      -44.780      -41.944        4.872       33.544       24.247       14.631     1125.229      587.897      214.074        0.286        0.096       61.355       15.361        0.063      340.166       14.000      860.746
09/05/2014  03:48:00      -54.103      -28.898       -1.152       40.121       17.858       18.121     1609.670      318.916      328.372        0.301        0.113       61.337       17.275        0.079      340.144       13.960      860.737
09/05/2014  03:49:00      -44.912      -27.189        4.229       34.850       18.766       14.744     1214.547      352.162      217.381        0.228        0.089       52.500       17.711        0.114      340.053       13.809      860.733
09/05/2014  03:50:00      -54.508      -36.413        2.448       28.065       14.051       14.700      787.631      197.419      216.092        0.275        0.060       65.552       16.462        0.063      340.135       13.949      860.735
09/05/2014  03:51:00      -81.619      -36.703       -6.854       15.585       13.889       10.388      242.899      192.891      107.901        0.430        0.027       89.491        5.726        0.004      340.186       14.033      860.734
09/05/2014  03:52:00      -94.658      -44.027       -5.410       14.064       14.825        8.298      197.791      219.792       68.854        0.571        0.024      104.397        2.484        0.001      340.193       14.045      860.737
09/05/2014  03:53:00      -81.557      -41.947        3.978       28.448       14.630       16.607      809.314      214.048      275.804        0.486        0.065       91.712       15.170        0.027      340.065       13.828      860.738
09/05/2014  03:54:00     -106.210      -55.197       -7.469       15.978       16.693       12.395      255.286      278.659      153.635        0.754        0.034      119.697        7.898        0.004      340.041       13.789      860.735
09/05/2014  03:55:00     -109.362      -57.340       -4.077       20.883       16.432       13.500      436.092      270.017      182.238        0.808        0.044      123.482       10.276        0.007      339.983       13.690      860.742
09/05/2014  03:56:00     -115.704      -58.451       -7.085       14.059       16.488       11.708      197.658      271.844      137.072        0.873        0.030      129.630        6.667        0.003      339.974       13.677      860.749
09/05/2014  03:57:00     -101.905      -49.965       -2.688       18.938       21.045       17.541      358.638      442.878      307.682        0.700        0.055      113.495       12.442        0.012      339.981       13.688      860.759
09/05/2014  03:58:00      -74.216      -55.994       -0.831       35.734       28.982       18.405     1276.907      839.979      338.757        0.555        0.123       92.970       17.887        0.037      339.999       13.716      860.767
09/05/2014  03:59:00      -84.049      -42.982        0.211       32.088       18.305       12.401     1029.617      335.062      153.788        0.521        0.076       94.402       12.432        0.017      339.945       13.627      860.764
09/05/2014  04:00:00      -58.172      -35.503        4.302       37.384       22.482       15.684     1397.530      505.427      245.992        0.341        0.107       68.150       18.748        0.076      339.930       13.599      860.765
09/05/2014  04:01:00      -75.941      -53.925       -4.608       21.943       19.358       14.670      481.513      374.747      215.205        0.488        0.054       93.139        9.248        0.010      339.980       13.684      860.769
09/05/2014  04:02:00      -84.084      -47.330       -9.400       33.156       18.631       13.394     1099.335      347.099      179.399        0.551        0.081       96.490       13.747        0.020      340.015       13.745      860.784
09/05/2014  04:03:00      -79.044      -54.702       -1.369       26.838       21.246       15.095      720.296      451.401      227.871        0.532        0.070       96.126        7.887        0.007      339.997       13.715      860.787
09/05/2014  04:04:00      -83.922      -59.745       -5.871       23.919       21.532       12.655      572.106      463.644      160.147        0.592        0.060      103.017        8.801        0.007      339.996       13.713      860.783
09/05/2014  04:05:00      -67.561      -58.983        0.083       34.413       22.438       16.132     1184.251      503.484      260.231        0.500        0.097       89.685       15.678        0.031      339.937       13.613      860.785
09/05/2014  04:06:00      -54.587      -42.519        2.848       28.258       20.391       16.296      798.541      415.775      265.555        0.314        0.074       69.192       12.852        0.035      339.982       13.689      860.797
09/05/2014  04:07:00      -54.680      -44.027       -4.806       23.052       20.782       13.360      531.382      431.894      178.482        0.305        0.057       70.202        9.029        0.017      339.997       13.715      860.796
09/05/2014  04:08:00      -61.008      -41.664       -6.321       19.294       15.578       12.832      372.263      242.672      164.653        0.314        0.039       73.877        6.340        0.007      340.017       13.748      860.790
09/05/2014  04:09:00      -63.399      -30.831        0.068       21.252       14.449       15.255      451.658      208.764      232.725        0.293        0.045       70.498       12.748        0.033      339.983       13.690      860.782
09/05/2014  04:10:00      -73.985      -43.892       -6.924       24.284       18.723       17.364      589.692      350.557      301.508        0.434        0.062       86.025       13.648        0.025      340.010       13.736      860.768
09/05/2014  04:11:00      -73.190      -56.321       -4.772       27.484       18.961       15.919      755.355      359.510      253.425        0.496        0.068       92.351        8.900        0.009      340.005       13.727      860.774
09/05/2014  04:12:00      -44.479      -39.259        4.951       37.450       26.548       20.173     1402.492      704.778      406.964        0.303        0.126       59.326       20.354        0.118      339.983       13.691      860.772
09/05/2014  04:13:00      -77.629      -47.461       -4.032       37.048       20.347       18.559     1372.530      414.006      344.439        0.521        0.107       90.987       18.508        0.041      340.016       13.746      860.758
09/05/2014  04:14:00      -69.668      -60.765       -0.194       33.069       21.980       14.330     1093.587      483.116      205.338        0.516        0.089       92.445       13.652        0.022      340.014       13.741      860.752
09/05/2014  04:15:00      -59.706      -37.604       -4.994       30.636       15.194       15.644      938.537      230.867      244.740        0.321        0.071       70.561       13.488        0.037      340.005       13.726      860.759
09/05/2014  04:16:00      -59.886      -46.411       -0.873       29.451       26.374       14.006      867.333      695.572      196.171        0.375        0.088       75.765       12.788        0.028      340.062       13.824      860.760
09/05/2014  04:17:00      -51.982      -34.037       -2.792       31.049       22.206       12.821      964.021      493.100      164.368        0.274        0.081       62.134       14.961        0.058      340.049       13.802      860.766
09/05/2014  04:18:00      -80.846      -35.977       -1.773       36.287       21.247       22.093     1316.754      451.441      488.081        0.504        0.113       88.489       21.054        0.057      340.032       13.773      860.758
09/05/2014  04:19:00      -86.012      -35.463       -5.438       32.896       24.298       15.987     1082.169      590.393      255.588        0.531        0.096       93.036       10.971        0.014      340.013       13.741      860.765
09/05/2014  04:20:00     -106.428      -59.111       -9.569       28.283       29.085       18.739      799.904      845.918      351.159        0.845        0.100      121.742       15.368        0.016      340.017       13.748      860.776
09/05/2014  04:21:00     -101.823      -72.847      -11.898       25.683       23.851       20.414      659.616      568.863      416.724        0.873        0.082      125.198       15.806        0.016      339.987       13.698      860.779
09/05/2014  04:22:00      -80.495      -58.515        1.941       25.432       27.087       20.394      646.788      733.714      415.920        0.585        0.090       99.516       14.871        0.022      339.940       13.618      860.787
09/05/2014  04:23:00     -100.268      -61.748       -8.295       34.149       19.279       16.407     1166.169      371.697      269.195        0.787        0.090      117.756       16.228        0.019      339.972       13.670      860.794
09/05/2014  04:24:00      -97.528      -52.631       -2.934       26.317       16.593       20.880      692.578      275.341      435.955        0.685        0.070      110.823       17.196        0.024      339.933       13.607      860.798
09/05/2014  04:25:00      -93.129      -66.712       -0.274       31.346       27.157       19.796      982.572      737.517      391.867        0.762        0.106      114.558       17.345        0.023      339.895       13.542      860.814
09/05/2014  04:26:00      -80.373      -56.717        4.554       28.806       23.400       20.582      829.770      547.541      423.629        0.575        0.090       98.370       19.264        0.038      339.894       13.540      860.816
09/05/2014  04:27:00      -48.540      -51.399        1.137       26.362       22.944       13.711      694.930      526.430      187.990        0.320        0.070       70.697       11.593        0.027      339.926       13.594      860.827
09/05/2014  04:28:00      -85.976      -33.584       -1.383       27.715       20.609       15.765      768.100      424.750      248.520        0.498        0.072       92.302       10.063        0.012      339.921       13.585      860.832
09/05/2014  04:29:00      -90.046      -40.625       -0.811       26.344       24.073       15.931      694.016      579.487      253.806        0.564        0.076       98.786       15.338        0.024      339.877       13.510      860.846
09/05/2014  04:30:00      -95.049      -44.409       -6.859       28.252       22.240       15.775      798.163      494.622      248.856        0.630        0.077      104.912       15.882        0.023      339.881       13.518      860.859
09/05/2014  04:31:00      -88.091      -38.352        2.291       39.284       20.472       15.553     1543.263      419.087      241.891        0.572        0.110       96.077        9.717        0.010      339.820       13.415      860.868
09/05/2014  04:32:00      -89.246      -55.165       -5.340       25.959       21.597       13.493      673.893      466.448      182.060        0.618        0.066      104.919       11.828        0.013      339.811       13.401      860.882
09/05/2014  04:33:00      -80.245      -44.200       -3.900       26.328       18.504       18.932      693.178      342.388      358.434        0.490        0.070       91.613       16.666        0.033      339.772       13.335      860.901
09/05/2014  04:34:00      -84.753      -36.606      -11.217       18.513       20.909       12.931      342.728      437.185      167.215        0.480        0.047       92.321        5.964        0.004      339.859       13.480      860.920
09/05/2014  04:35:00      -97.638      -24.850       -7.874       21.626       15.562       12.188      467.675      242.178      148.548        0.554        0.043      100.751        5.280        0.003      339.800       13.381      860.927
09/05/2014  04:36:00     -120.007      -39.051      -11.194       22.886       24.463       14.137      523.786      598.431      199.868        0.869        0.066      126.201        7.535        0.004      339.781       13.349      860.935
09/05/2014  04:37:00     -109.002      -37.307       -2.388       22.675       27.949       18.061      514.175      781.143      326.197        0.745        0.081      115.209       16.469        0.020      339.711       13.231      860.935
09/05/2014  04:38:00     -101.135      -37.204       -6.077       25.129       25.642       19.094      631.463      657.495      364.576        0.665        0.083      107.761       15.999        0.022      339.745       13.290      860.930
09/05/2014  04:39:00      -91.898      -49.721       -7.239       37.647       26.086       19.233     1417.326      680.463      369.918        0.672        0.123      104.487       11.968        0.013      339.745       13.289      860.935
09/05/2014  04:40:00      -97.533      -50.184       -5.102       25.095       25.887       15.459      629.738      670.124      238.976        0.680        0.077      109.687       12.222        0.012      339.763       13.321      860.934
09/05/2014  04:41:00     -111.111      -46.839       -4.859       24.993       18.717       16.188      624.640      350.341      262.038        0.790        0.062      120.580       15.222        0.016      339.718       13.242      860.932
09/05/2014  04:42:00     -117.434      -28.490       -6.526       18.754       19.671       13.133      351.711      386.962      172.469        0.778        0.046      120.840       12.203        0.010      339.707       13.224      860.930
09/05/2014  04:43:00      -96.695      -39.549       -1.590       15.144       21.716       10.704      229.337      471.596      114.572        0.587        0.041      104.471        7.653        0.005      339.688       13.193      860.935
09/05/2014  04:44:00     -100.816      -48.091       -5.416       19.356       19.998       11.648      374.656      399.916      135.675        0.671        0.046      111.699       10.360        0.009      339.734       13.270      860.931
09/05/2014  04:45:00     -101.267      -48.855       -3.231       16.131       19.283       11.037      260.225      371.843      121.814        0.670        0.038      112.436        4.727        0.002      339.760       13.316      860.923
09/05/2014  04:46:00      -82.414      -37.339       -2.377       37.989       18.270       16.288     1443.134      333.800      265.304        0.512        0.102       90.478       19.972        0.049      339.775       13.342      860.915
09/05/2014  04:47:00      -86.181      -40.976       -0.894       35.104       20.184       20.005     1232.281      407.403      400.198        0.557        0.102       95.427       22.446        0.055      339.734       13.270      860.918
09/05/2014  04:48:00      -84.512      -50.394       -1.329       28.086       19.576       15.595      788.834      383.237      243.196        0.555        0.071       98.396       13.611        0.019      339.748       13.293      860.912
09/05/2014  04:49:00      -76.990      -45.008       -1.999       39.352       33.117       20.969     1548.581     1096.744      439.715        0.552        0.154       89.180       22.787        0.065      339.792       13.368      860.900
09/05/2014  04:50:00      -86.632      -62.919        7.698       44.065       32.853       22.873     1941.753     1079.308      523.170        0.753        0.177      107.070       22.179        0.043      339.836       13.441      860.892
09/05/2014  04:51:00      -54.216      -55.741        8.745       34.115       29.749       20.351     1163.818      884.985      414.180        0.429        0.123       77.759       17.645        0.051      339.802       13.386      860.906
09/05/2014  04:52:00      -59.365      -61.935        0.032       31.573       32.482       21.045      996.828     1055.108      442.912        0.493        0.125       85.792       12.781        0.022      339.777       13.343      860.905
09/05/2014  04:53:00     -100.199      -72.340       -4.069       29.294       25.853       22.043      858.141      668.402      485.893        0.865        0.101      123.584       13.276        0.012      339.771       13.334      860.897
09/05/2014  04:54:00      -82.569      -61.565        5.010       37.951       27.024       20.933     1440.289      730.279      438.207        0.662        0.130      102.995       22.868        0.049      339.816       13.409      860.883
09/05/2014  04:55:00      -58.342      -48.524        4.930       46.353       28.257       18.682     2148.601      798.462      349.020        0.454        0.165       75.884       19.020        0.063      339.826       13.426      860.879
09/05/2014  04:56:00      -40.235      -28.085        9.564       41.325       28.317       24.757     1707.794      801.874      612.917        0.281        0.156       49.067       23.731        0.234      339.753       13.302      860.882
09/05/2014  04:57:00      -27.984      -43.988       14.136       36.587       29.360       21.473     1338.645      861.987      461.083        0.279        0.133       52.134       21.378        0.168      339.810       13.399      860.886
09/05/2014  04:58:00      -52.309      -52.204        2.388       40.418       26.716       16.662     1633.649      713.747      277.620        0.405        0.131       73.902       15.363        0.043      339.766       13.325      860.894
09/05/2014  04:59:00      -76.015      -52.797       -4.830       37.577       26.808       22.986     1412.014      718.692      528.367        0.562        0.133       92.552       21.602        0.054      339.767       13.326      860.901
09/05/2014  05:00:00      -62.347      -61.643       -5.672       46.121       24.702       21.462     2127.193      610.172      460.635        0.546        0.160       87.675       19.120        0.048      339.765       13.323      860.917
09/05/2014  05:01:00      -81.799      -49.724      -10.744       26.673       24.337       12.941      711.437      592.267      167.477        0.537        0.074       95.727       12.206        0.016      339.684       13.185      860.920
09/05/2014  05:02:00      -98.804      -44.375       -3.964       36.911       28.809       19.154     1362.456      829.979      366.887        0.715        0.128      108.311       15.365        0.020      339.649       13.127      860.918
09/05/2014  05:03:00      -99.956      -62.207       -2.654       52.291       30.335       22.491     2734.399      920.215      505.851        0.901        0.208      117.732       25.538        0.047      339.602       13.049      860.913
09/05/2014  05:04:00      -92.691      -59.544       -3.860       35.003       32.642       22.088     1225.217     1065.479      487.888        0.746        0.139      110.169       14.295        0.017      339.581       13.012      860.925
09/05/2014  05:05:00     -104.955      -54.342        0.150       37.552       35.732       22.062     1410.163     1276.807      486.718        0.857        0.159      118.189       19.030        0.026      339.575       13.001      860.922
09/05/2014  05:06:00      -96.565      -55.754        0.996       56.143       29.375       25.404     3152.085      862.885      645.343        0.855        0.233      111.505       17.627        0.025      339.495       12.867      860.905
09/05/2014  05:07:00      -58.204      -53.701        3.336       40.230       32.059       22.406     1618.476     1027.775      502.018        0.471        0.157       79.193       21.452        0.073      339.473       12.830      860.888
09/05/2014  05:08:00      -88.277      -64.220       -3.523       34.507       22.681       17.011     1190.751      514.441      289.381        0.696        0.100      109.166       16.192        0.022      339.553       12.965      860.883
09/05/2014  05:09:00      -53.976      -46.122       -0.155       37.539       23.990       21.950     1409.206      575.521      481.811        0.375        0.123       70.997       18.119        0.065      339.612       13.065      860.885
09/05/2014  05:10:00      -55.942      -48.148        5.416       33.429       37.839       23.018     1117.508     1431.820      529.821        0.428        0.154       73.808       20.438        0.077      339.559       12.975      860.871
09/05/2014  05:11:00     -100.297      -59.918       -6.258       33.236       18.661       17.506     1104.603      348.223      306.451        0.772        0.088      116.832        9.108        0.006      339.523       12.914      860.865
09/05/2014  05:12:00     -109.287      -55.960        2.644       37.747       23.426       21.165     1424.843      548.758      447.958        0.875        0.121      122.781       22.606        0.034      339.501       12.878      860.859
09/05/2014  05:13:00      -80.803      -66.292        1.676       34.573       30.879       20.090     1195.276      953.540      403.606        0.674        0.128      104.517       15.994        0.023      339.539       12.941      860.864
09/05/2014  05:14:00      -65.008      -46.494        0.600       35.818       21.454       18.787     1282.929      460.255      352.960        0.424        0.105       79.923       19.611        0.060      339.526       12.921      860.874
09/05/2014  05:15:00      -96.193      -50.034       -7.663       24.471       15.707       15.361      598.809      246.713      235.957        0.645        0.054      108.427       10.674        0.010      339.522       12.912      860.878
09/05/2014  05:16:00      -93.229      -39.712      -11.792       15.865       21.055       13.455      251.710      443.307      181.038        0.564        0.044      101.335        4.632        0.002      339.514       12.897      860.879
09/05/2014  05:17:00      -84.342      -36.337       -9.796       14.759       16.051       15.938      217.829      257.627      254.035        0.463        0.036       91.837        7.977        0.008      339.519       12.907      860.887
09/05/2014  05:18:00     -100.965      -47.303       -5.879       16.408       15.990       15.664      269.210      255.666      245.359        0.662        0.039      111.496        9.525        0.007      339.478       12.837      860.906
09/05/2014  05:19:00      -61.324      -54.853        3.063       34.613       24.955       19.767     1198.032      622.737      390.753        0.449        0.111       82.277       13.128        0.025      339.543       12.947      860.908
09/05/2014  05:20:00      -90.100      -37.713       -6.069       23.112       17.462       15.038      534.144      304.904      226.138        0.532        0.053       97.675       11.775        0.015      339.549       12.959      860.925
09/05/2014  05:21:00      -73.848      -32.159       -4.708       18.631       15.800       11.179      347.100      249.643      124.961        0.362        0.036       80.546        5.671        0.005      339.522       12.914      860.942
09/05/2014  05:22:00      -97.622      -25.171       -1.942       17.178       13.764       13.482      295.093      189.452      181.765        0.542        0.033      100.815        9.749        0.009      339.470       12.823      860.961
09/05/2014  05:23:00      -83.817      -39.340       -5.920       22.702       21.314       11.263      515.402      454.279      126.848        0.485        0.055       92.590        7.536        0.007      339.526       12.919      860.971
09/05/2014  05:24:00      -97.062      -41.566       -2.961       16.645       16.974       15.717      277.041      288.111      247.024        0.598        0.041      105.588       11.335        0.012      339.518       12.905      860.970
09/05/2014  05:25:00     -115.072      -38.884       -3.903       13.195       14.823       10.605      174.102      219.724      112.476        0.764        0.025      121.464        3.789        0.001      339.590       13.028      860.969
09/05/2014  05:26:00      -96.460      -44.813       -9.673       16.472       15.048       10.001      271.331      226.452      100.023        0.600        0.030      106.361        8.008        0.006      339.518       12.905      860.967
09/05/2014  05:27:00      -81.605      -21.846      -10.175       10.217       10.878        7.475      104.396      118.322       55.870        0.376        0.014       84.478        4.237        0.003      339.472       12.829      860.968
09/05/2014  05:28:00      -78.387      -32.105       -7.653       15.424       13.218        9.857      237.885      174.719       97.165        0.387        0.025       84.707        4.254        0.003      339.565       12.985      860.972
09/05/2014  05:29:00      -89.711      -36.773       -0.911       14.979       12.295       12.247      224.375      151.171      149.986        0.496        0.026       96.956        6.237        0.004      339.508       12.888      860.983
09/05/2014  05:30:00      -37.770      -23.497        7.165       27.574       19.779       19.562      760.339      391.222      382.666        0.178        0.077       44.482       19.025        0.183      339.385       12.682      860.995
09/05/2014  05:31:00      -20.115      -25.877       11.426       30.890       24.504       18.222      954.219      600.429      332.043        0.155        0.094       32.775       17.183        0.275      339.316       12.566      861.015
09/05/2014  05:32:00      -72.477      -50.256       -2.844       37.196       23.466       19.528     1383.537      550.642      381.324        0.505        0.116       88.196       14.119        0.026      339.457       12.804      861.034
09/05/2014  05:33:00      -97.743      -80.305       -5.712       42.212       40.878       17.890     1781.872     1670.991      320.060        0.990        0.189      126.501       18.157        0.021      339.486       12.851      861.046
09/05/2014  05:34:00      -77.377      -85.931      -10.774       47.335       43.132       26.603     2240.591     1860.402      707.743        0.915        0.240      115.635       24.876        0.046      339.508       12.889      861.060
09/05/2014  05:35:00     -109.051     -111.343       -9.198       51.159       52.878       28.907     2617.245     2796.056      835.596        1.531        0.312      155.851       24.638        0.025      339.446       12.786      861.080
09/05/2014  05:36:00      -74.235      -71.412       10.817       50.697       38.833       30.156     2570.154     1507.972      909.399        0.786        0.249      103.007       18.458        0.032      339.366       12.650      861.102
09/05/2014  05:37:00     -110.200      -64.126       -0.155       33.382       46.183       21.433     1114.340     2132.915      459.390        0.998        0.185      127.500       14.701        0.013      339.353       12.628      861.121
09/05/2014  05:38:00     -117.783      -75.339       -0.032       38.392       33.147       22.384     1473.957     1098.724      501.030        1.131        0.154      139.817       21.751        0.024      339.379       12.672      861.123
09/05/2014  05:39:00     -127.579      -55.433       -6.491       19.772       24.725       18.839      390.931      611.323      354.920        1.037        0.068      139.101       11.965        0.007      339.352       12.626      861.121
09/05/2014  05:40:00     -108.566      -70.469      -11.939       28.197       16.943       14.552      795.093      287.072      211.769        0.909        0.065      129.432        6.059        0.002      339.379       12.673      861.113
09/05/2014  05:41:00      -95.036      -43.649       -5.624       21.151       20.650       13.382      447.365      426.418      179.070        0.601        0.053      104.581        9.331        0.008      339.433       12.763      861.120
09/05/2014  05:42:00     -101.298      -33.812      -14.958       18.186       14.986       15.661      330.742      224.573      245.270        0.621        0.040      106.792       10.117        0.009      339.375       12.666      861.128
09/05/2014  05:43:00     -109.745      -36.810       -5.107       16.456       14.882       10.487      270.803      221.482      109.974        0.701        0.030      115.754        7.292        0.004      339.314       12.561      861.129
09/05/2014  05:44:00      -89.990      -28.513       -4.167       21.487       17.028       16.645      461.702      289.949      277.048        0.498        0.051       94.399       13.450        0.020      339.302       12.541      861.138
09/05/2014  05:45:00      -89.053      -30.356       -8.548       30.483       16.360       16.185      929.214      267.639      261.950        0.519        0.073       94.085       14.974        0.025      339.325       12.580      861.148
09/05/2014  05:46:00     -108.085      -34.139      -10.539       16.636       12.912       13.345      276.744      166.722      178.093        0.679        0.031      113.349        5.756        0.003      339.302       12.544      861.166
09/05/2014  05:47:00     -114.232      -38.597       -9.033       14.699       14.110       11.233      216.073      199.097      126.177        0.758        0.027      120.577        6.547        0.003      339.317       12.567      861.179
09/05/2014  05:48:00     -108.768      -30.929      -12.912       22.830       22.119       15.236      521.213      489.246      232.128        0.710        0.062      113.080       14.743        0.017      339.281       12.506      861.186
09/05/2014  05:49:00     -110.662      -28.012      -11.760       18.220       17.272       11.768      331.965      298.318      138.492        0.697        0.038      114.152       10.921        0.009      339.242       12.441      861.195
09/05/2014  05:50:00      -98.358      -33.921       -3.620       18.528       19.195       13.807      343.281      368.464      190.621        0.587        0.045      104.043       10.662        0.011      339.295       12.530      861.200
09/05/2014  05:51:00      -96.416      -28.492      -12.498       24.944       17.429       13.336      622.198      303.787      177.839        0.568        0.055      100.538       14.042        0.020      339.176       12.330      861.206
09/05/2014  05:52:00      -83.644      -68.161       -7.210       23.318       26.063       16.610      543.713      679.255      275.896        0.660        0.075      107.899       13.312        0.015      339.119       12.234      861.211
09/05/2014  05:53:00      -77.485      -60.466        4.570       51.638       32.423       21.130     2666.524     1051.255      446.482        0.692        0.208       98.285       23.911        0.059      339.048       12.116      861.222
09/05/2014  05:54:00     -126.367      -70.401      -10.767       35.719       21.041       20.020     1275.847      442.726      400.783        1.158        0.106      144.654        8.405        0.003      339.031       12.085      861.240
09/05/2014  05:55:00     -139.291      -49.410       -7.823       28.923       25.252       20.100      836.540      637.685      404.022        1.189        0.094      147.795       18.672        0.016      339.090       12.186      861.254
09/05/2014  05:56:00     -130.578      -44.727       -4.547       15.006       16.605       14.870      225.176      275.719      221.131        0.990        0.036      138.026        8.349        0.004      339.197       12.366      861.262
09/05/2014  05:57:00     -102.111      -43.215       -6.140       17.812       16.422        9.333      317.266      269.686       87.108        0.650        0.034      110.879        3.931        0.001      339.260       12.472      861.275
09/05/2014  05:58:00      -91.276      -48.397      -12.014       17.561       12.519       12.273      308.397      156.730      150.631        0.572        0.031      103.313        7.764        0.006      339.279       12.504      861.293
09/05/2014  05:59:00     -115.689      -57.284      -11.859       27.967       20.382       12.687      782.156      415.430      160.951        0.908        0.068      129.095        9.576        0.006      339.275       12.497      861.298
09/05/2014  06:00:00      -76.092      -52.750        3.395       37.078       28.399       18.156     1374.774      806.481      329.655        0.555        0.126       92.588       15.103        0.027      339.162       12.306      861.304
09/05/2014  06:01:00      -39.260      -39.064       -2.258       28.712       27.562       15.855      824.407      759.672      251.386        0.245        0.092       55.383       13.865        0.063      339.139       12.266      861.320
09/05/2014  06:02:00      -20.901      -36.050        8.094       27.094       22.444       14.649      734.058      503.725      214.597        0.163        0.073       41.671       10.174        0.060      339.238       12.435      861.339
09/05/2014  06:03:00      -21.451      -28.771        5.080       28.470       28.249       14.006      810.515      797.990      196.155        0.156        0.090       35.888       15.077        0.177      339.277       12.501      861.352
09/05/2014  06:04:00      -46.136      -28.335       -2.072       20.550       17.781       11.864      422.306      316.177      140.765        0.191        0.044       54.142        6.830        0.016      339.281       12.507      861.364
09/05/2014  06:05:00      -70.791      -36.359       -1.160       17.621       13.790       12.152      310.502      190.155      147.664        0.349        0.032       79.582        8.551        0.012      339.273       12.492      861.369
09/05/2014  06:06:00      -81.793      -40.115       -5.476       13.331       11.329        9.594      177.723      128.352       92.048        0.436        0.020       91.101        2.829        0.001      339.304       12.545      861.367
09/05/2014  06:07:00      -81.011      -49.478      -10.599       13.466       13.079       11.541      181.328      171.049      133.193        0.480        0.024       94.926        6.671        0.005      339.259       12.469      861.368
09/05/2014  06:08:00      -71.502      -39.063       -8.019       17.560       14.688       12.508      308.341      215.731      156.445        0.369        0.034       81.477        9.605        0.014      339.209       12.385      861.369
09/05/2014  06:09:00      -89.536      -49.925      -12.556       13.944       16.428        9.551      194.421      269.864       91.214        0.561        0.028      102.514        6.077        0.004      339.253       12.459      861.377
09/05/2014  06:10:00      -95.656      -33.625      -15.393        7.550       10.055        7.617       57.009      101.107       58.014        0.537        0.011      101.393        4.313        0.002      339.170       12.320      861.383
09/05/2014  06:11:00     -103.727      -38.795      -15.782       11.588       11.654       10.176      134.289      135.821      103.544        0.644        0.019      110.745        3.697        0.001      339.221       12.405      861.390
09/05/2014  06:12:00     -100.415      -43.986      -10.706        9.877       13.447        6.570       97.558      180.818       43.163        0.623        0.016      109.627        4.809        0.002      339.258       12.468      861.397
09/05/2014  06:13:00      -85.843      -50.123       -9.163       14.138       14.081       10.847      199.871      198.280      117.647        0.524        0.026       99.405        8.641        0.008      339.282       12.508      861.417
09/05/2014  06:14:00      -95.162      -42.541      -12.365       10.304       12.867       10.236      106.162      165.548      104.778        0.570        0.019      104.238        7.056        0.005      339.289       12.519      861.437
09/05/2014  06:15:00      -79.203      -49.013       -5.342       33.313       29.444       21.286     1109.772      866.946      453.108        0.557        0.121       93.142       19.180        0.042      339.212       12.391      861.458
09/05/2014  06:16:00      -86.399      -77.743       -2.926       28.992       31.000       20.496      840.514      960.986      420.102        0.787        0.111      116.227       18.326        0.025      339.202       12.373      861.477
09/05/2014  06:17:00      -78.113      -69.262       -8.998       22.386       32.225       17.298      501.123     1038.420      299.231        0.641        0.092      104.398       11.441        0.012      339.295       12.530      861.490
09/05/2014  06:18:00      -81.285      -56.256       -3.156       31.995       23.175       15.524     1023.698      537.060      240.985        0.579        0.090       98.853       14.544        0.022      339.233       12.427      861.489
09/05/2014  06:19:00     -104.636      -53.619       -5.854       17.351       15.877       12.553      301.067      252.091      157.575        0.728        0.036      117.574        9.069        0.006      339.166       12.313      861.500
09/05/2014  06:20:00      -93.426      -63.398       -2.688       30.121       21.647       19.472      907.280      468.579      379.162        0.725        0.088      112.906       18.567        0.027      339.184       12.344      861.517
09/05/2014  06:21:00      -81.767      -46.594       -0.439       34.893       19.594       19.329     1217.548      383.925      373.610        0.542        0.099       94.110       19.370        0.042      339.149       12.283      861.533
09/05/2014  06:22:00      -37.565      -49.791       10.333       35.323       28.219       22.727     1247.682      796.312      516.531        0.328        0.128       62.372       19.150        0.094      339.104       12.208      861.551
09/05/2014  06:23:00      -66.075      -72.037        1.645       27.691       25.127       15.056      766.789      631.380      226.677        0.559        0.081       97.750       11.665        0.014      339.114       12.223      861.570
09/05/2014  06:24:00      -86.940      -69.596       -8.836       37.023       25.062       17.380     1370.697      628.120      302.065        0.739        0.115      111.365       11.431        0.011      339.149       12.283      861.591
09/05/2014  06:25:00      -84.965      -66.724       -2.663       52.316       38.964       26.197     2736.984     1518.197      686.259        0.831        0.247      108.033       34.392        0.101      339.136       12.261      861.610
09/05/2014  06:26:00     -101.172     -102.888       -5.455       44.810       46.605       27.657     2007.953     2171.997      764.913        1.290        0.247      144.297       16.141        0.013      339.062       12.139      861.635
09/05/2014  06:27:00     -142.717     -125.663      -16.242       39.049       52.539       24.857     1524.846     2760.313      617.892        2.066        0.245      190.156       21.252        0.012      339.005       12.039      861.644
09/05/2014  06:28:00     -121.511     -111.363       -9.006       59.538       47.413       31.413     3544.815     2247.959      986.776        1.701        0.339      164.823       29.834        0.033      338.937       11.927      861.664
09/05/2014  06:29:00     -111.271      -82.456        3.684       52.299       33.169       29.888     2735.178     1100.209      893.310        1.196        0.236      138.492       31.050        0.050      338.965       11.976      861.678
09/05/2014  06:30:00     -121.937      -60.239       -5.355       50.860       38.153       28.563     2586.728     1455.649      815.844        1.169        0.243      136.005       18.752        0.019      338.985       12.009      861.691
09/05/2014  06:31:00     -110.698      -54.114      -20.507       51.542       28.358       22.116     2656.607      804.195      489.128        0.978        0.197      123.217       14.360        0.014      339.021       12.068      861.704
09/05/2014  06:32:00     -125.646     -105.437      -13.189       44.953       34.926       24.409     2020.752     1219.831      595.819        1.546        0.192      164.024       21.111        0.017      338.980       12.000      861.721
09/05/2014  06:33:00     -103.524      -91.768       -3.872       43.745       39.237       28.167     1913.592     1539.565      793.377        1.170        0.212      138.342       21.843        0.025      338.952       11.954      861.733
09/05/2014  06:34:00     -122.107      -73.555       -5.246       43.462       51.151       36.361     1888.944     2616.451     1322.098        1.309        0.291      142.550       31.164        0.048      338.960       11.966      861.754
09/05/2014  06:35:00      -46.377      -15.862        8.952       54.469       37.569       33.831     2966.888     1411.452     1144.539        0.400        0.276       49.015       35.542        0.526      338.914       11.889      861.771
09/05/2014  06:36:00     -110.630      -63.955       -0.352       57.675       42.792       28.849     3326.409     1831.126      832.237        1.116        0.299      127.786       24.890        0.038      338.922       11.903      861.784
09/05/2014  06:37:00     -129.227     -107.211       -5.720       42.816       42.204       25.713     1833.247     1781.157      661.164        1.625        0.214      167.910       17.164        0.010      338.843       11.769      861.794
09/05/2014  06:38:00     -101.262     -107.501      -10.546       43.315       34.610       24.895     1876.171     1197.878      619.778        1.281        0.185      147.684       19.164        0.017      338.902       11.869      861.812
09/05/2014  06:39:00     -121.558      -49.211        9.160       39.227       34.634       30.193     1538.797     1199.516      911.615        1.047        0.182      131.142       25.344        0.037      338.979       11.998      861.825
09/05/2014  06:40:00      -58.388      -37.862       13.058       49.474       33.739       26.684     2447.701     1138.300      712.015        0.465        0.215       69.590       30.130        0.187      339.037       12.095      861.837
09/05/2014  06:41:00      -60.433      -65.418        4.514       52.988       37.514       19.501     2807.675     1407.325      380.279        0.627        0.230       89.060       24.765        0.077      339.119       12.233      861.849
09/05/2014  06:42:00      -58.582      -62.866       -3.239       38.008       32.146       16.684     1444.644     1033.356      278.369        0.507        0.138       85.930       13.915        0.026      339.154       12.293      861.864
09/05/2014  06:43:00      -72.209      -67.044       -4.781       35.121       24.851       15.496     1233.515      617.562      240.136        0.591        0.105       98.535       15.409        0.024      339.124       12.242      861.883
09/05/2014  06:44:00      -99.209     -101.052       -7.204       27.247       23.702       18.975      742.417      561.792      360.041        1.088        0.083      141.612       17.474        0.015      339.049       12.117      861.897
09/05/2014  06:45:00      -69.585      -84.973        0.635       38.990       34.301       24.357     1520.218     1176.558      593.283        0.768        0.165      109.829       21.537        0.038      339.094       12.192      861.916
09/05/2014  06:46:00      -55.427      -57.521        8.272       35.176       27.417       21.332     1237.343      751.718      455.062        0.445        0.122       79.880       11.868        0.022      339.140       12.269      861.930
09/05/2014  06:47:00      -46.133      -48.193       10.941       50.854       24.302       24.411     2586.174      590.589      595.909        0.417        0.189       66.715       21.042        0.099      339.111       12.220      861.949
09/05/2014  06:48:00      -78.065      -64.037       -3.989       35.646       31.326       21.258     1270.635      981.316      451.923        0.646        0.135      100.970       17.738        0.031      339.045       12.110      861.960
09/05/2014  06:49:00      -99.936      -50.837        0.627       35.614       24.261       20.485     1268.363      588.614      419.635        0.742        0.114      112.123       16.652        0.022      339.016       12.061      861.975
09/05/2014  06:50:00      -62.396      -57.064        7.739       51.567       33.068       20.625     2659.142     1093.514      425.379        0.569        0.209       84.555       14.903        0.031      339.040       12.101      861.991
09/05/2014  06:51:00      -85.454      -83.695       -3.345       46.391       43.265       30.049     2152.158     1871.883      902.930        0.962        0.246      119.613       30.650        0.066      338.962       11.971      862.002
09/05/2014  06:52:00     -102.778      -79.936        2.349       32.803       31.929       20.444     1076.031     1019.470      417.955        0.974        0.126      130.205       13.784        0.011      338.907       11.878      862.017
09/05/2014  06:53:00      -62.548      -50.829        6.285       51.158       36.970       25.177     2617.098     1366.807      633.880        0.558        0.231       80.597       27.652        0.118      338.964       11.974      862.027
09/05/2014  06:54:00      -68.702      -56.249        0.621       39.261       23.160       20.710     1541.407      536.396      428.892        0.520        0.125       88.791       21.261        0.057      338.961       11.968      862.035
09/05/2014  06:55:00      -39.014      -43.978        5.588       38.445       25.870       20.535     1478.056      669.255      421.696        0.303        0.128       58.790       21.945        0.139      339.045       12.109      862.045
09/05/2014  06:56:00      -14.180      -35.780        2.977       32.986       23.331       18.355     1088.044      544.337      336.890        0.173        0.098       38.487       14.130        0.135      339.021       12.069      862.058
09/05/2014  06:57:00      -63.206      -36.607       -2.839       23.312       15.538       12.236      543.428      241.440      149.713        0.314        0.047       73.042        6.727        0.008      338.989       12.015      862.077
09/05/2014  06:58:00      -51.131      -40.978        1.829       22.763       15.423       14.778      518.157      237.862      218.401        0.264        0.049       65.525       13.892        0.045      339.033       12.090      862.092
09/05/2014  06:59:00      -67.897      -51.499       -8.321       35.765       20.062       14.319     1279.153      402.504      205.035        0.461        0.094       85.218       14.779        0.030      339.096       12.195      862.097
09/05/2014  07:00:00      -44.445      -47.460       -2.429       27.436       24.360       14.667      752.738      593.421      215.114        0.290        0.078       65.021        9.417        0.021      339.109       12.217      862.109
09/05/2014  07:01:00      -84.368      -49.508       -3.523       24.554       23.460       13.219      602.883      550.384      174.731        0.545        0.066       97.821        4.225        0.002      339.080       12.169      862.112
09/05/2014  07:02:00      -60.989      -34.488       -0.972       25.088       16.418       10.015      629.388      269.535      100.302        0.295        0.050       70.065        4.848        0.005      339.085       12.177      862.112
09/05/2014  07:03:00      -50.973      -33.185        1.349       17.751       19.124       14.615      315.101      365.736      213.588        0.230        0.045       60.824       11.619        0.036      339.066       12.144      862.111
09/05/2014  07:04:00      -39.755      -26.860       -0.120       27.311       14.863       12.811      745.900      220.916      164.121        0.172        0.057       47.978       12.725        0.070      339.198       12.367      862.103
09/05/2014  07:05:00      -42.585      -31.876       -2.498       29.735       19.057       13.565      884.194      363.182      184.007        0.213        0.072       53.194        5.385        0.010      339.236       12.431      862.109
09/05/2014  07:06:00      -51.952      -40.701       -7.737       26.418       17.892       12.278      697.920      320.134      150.742        0.279        0.058       65.996        9.359        0.020      339.230       12.419      862.115
09/05/2014  07:07:00      -51.359      -55.736       -6.335       34.119       23.480       16.688     1164.129      551.292      278.487        0.389        0.100       75.790       16.669        0.048      339.229       12.420      862.105
09/05/2014  07:08:00      -80.158      -44.632       -6.668       21.497       16.419       13.927      462.129      269.576      193.975        0.469        0.046       91.746        9.243        0.010      339.180       12.336      862.117
09/05/2014  07:09:00     -102.109      -39.190      -11.202       26.182       18.574       16.851      685.495      344.980      283.941        0.670        0.066      109.372       13.828        0.016      339.188       12.349      862.122
09/05/2014  07:10:00     -104.677      -53.275      -13.740       30.364       24.655       11.996      921.998      607.883      143.909        0.783        0.084      117.454       15.499        0.017      339.162       12.305      862.132
09/05/2014  07:11:00     -100.218      -42.624      -11.108       23.133       23.909       16.011      535.157      571.652      256.352        0.667        0.068      108.906       12.014        0.012      339.284       12.512      862.150
09/05/2014  07:12:00     -112.907      -40.454       -9.818       21.321       24.648       15.534      454.593      607.530      241.299        0.789        0.065      119.936        8.385        0.005      339.342       12.610      862.167
09/05/2014  07:13:00     -123.989      -46.992       -1.704       38.111       30.161       21.549     1452.440      909.708      464.362        1.021        0.141      132.596       20.318        0.023      339.235       12.429      862.195
09/05/2014  07:14:00     -144.604      -52.494       -9.058       17.596       19.894       14.366      309.604      395.778      206.383        1.233        0.046      153.837       12.553        0.007      339.161       12.306      862.221
09/05/2014  07:15:00     -117.267      -63.332       -6.957       26.824       21.947       16.742      719.535      481.674      280.302        0.965        0.074      133.276       12.902        0.009      339.162       12.306      862.245
09/05/2014  07:16:00     -135.262      -69.469       -6.306       24.955       20.689       17.929      622.757      428.045      321.463        1.227        0.069      152.059       10.328        0.005      339.183       12.342      862.271
09/05/2014  07:17:00     -139.920      -53.202      -14.738       24.796       19.325       14.685      614.854      373.466      215.663        1.191        0.060      149.693       12.021        0.006      339.203       12.376      862.289
09/05/2014  07:18:00     -122.673      -25.112       -4.270       40.928       27.720       18.803     1675.137      768.380      353.556        0.925        0.140      125.217       20.382        0.026      339.376       12.666      862.302
09/05/2014  07:19:00     -123.767      -48.364        2.241       23.228       16.573       17.844      539.551      274.678      318.402        0.940        0.057      132.881       12.253        0.009      339.301       12.540      862.308
09/05/2014  07:20:00      -74.269      -38.558       -1.513       36.358       24.907       17.844     1321.874      620.377      318.417        0.463        0.113       83.682       19.040        0.052      339.350       12.621      862.318
09/05/2014  07:21:00      -33.308      -27.077        3.473       30.672       33.016       19.319      940.769     1090.087      373.215        0.213        0.120       42.925       15.835        0.136      339.428       12.756      862.326
09/05/2014  07:22:00      -75.340      -70.352       -3.471       31.694       28.034       19.446     1004.487      785.915      378.157        0.640        0.108      103.080       19.359        0.035      339.423       12.746      862.323
09/05/2014  07:23:00      -51.840      -54.418        4.793       31.546       29.968       20.273      995.124      898.055      410.986        0.399        0.115       75.158       21.322        0.080      339.399       12.707      862.318
09/05/2014  07:24:00      -33.290      -42.433        6.140       39.740       35.354       22.172     1579.307     1249.886      491.576        0.313        0.166       53.933       18.839        0.122      339.450       12.793      862.309
09/05/2014  07:25:00      -61.537      -56.767        0.309       45.216       30.464       20.074     2044.489      928.047      402.958        0.519        0.169       83.722       23.084        0.076      339.438       12.771      862.303
09/05/2014  07:26:00      -71.315      -85.666       -5.496       28.926       30.907       15.469      836.740      955.253      239.300        0.724        0.102      111.465       14.615        0.017      339.358       12.637      862.290
09/05/2014  07:27:00      -64.733      -71.649       -3.114       34.301       23.566       20.307     1176.566      555.359      412.360        0.574        0.107       96.561       19.777        0.042      339.433       12.764      862.281
09/05/2014  07:28:00      -60.982      -70.582       -2.857       32.588       20.569       18.766     1062.007      423.076      352.171        0.527        0.092       93.277       15.665        0.028      339.458       12.804      862.277
09/05/2014  07:29:00      -31.084      -30.333        3.899       33.163       22.934       16.162     1099.816      525.976      261.201        0.189        0.094       43.432       17.227        0.157      339.537       12.937      862.264
09/05/2014  07:30:00      -60.448      -50.085        3.532       40.005       24.123       16.024     1600.386      581.914      256.755        0.431        0.122       78.501       15.136        0.037      339.565       12.984      862.260
09/05/2014  07:31:00      -59.035      -45.388       11.262       43.969       29.677       21.113     1933.306      880.738      445.740        0.447        0.163       74.466       24.951        0.112      339.631       13.097      862.254
09/05/2014  07:32:00      -63.571      -62.600        0.087       30.126       32.852       19.174      907.588     1079.229      367.642        0.516        0.118       89.219       15.201        0.029      339.594       13.034      862.260
09/05/2014  07:33:00      -73.429      -61.204       -0.350       22.957       16.598       11.091      527.022      275.510      123.007        0.503        0.046       95.592        8.668        0.008      339.613       13.066      862.264
09/05/2014  07:34:00      -55.228      -34.591        1.765       30.309       22.635       18.247      918.663      512.353      332.959        0.301        0.088       65.166       14.391        0.049      339.704       13.219      862.269
09/05/2014  07:35:00      -84.671      -44.307       -4.324       25.479       20.260       11.706      649.169      410.472      137.041        0.517        0.060       95.563        8.408        0.008      339.719       13.245      862.282
09/05/2014  07:36:00      -59.879      -43.026       -0.161       28.486       18.608       15.419      811.431      346.249      237.733        0.342        0.070       73.734        9.224        0.016      339.764       13.321      862.296
09/05/2014  07:37:00      -46.520      -38.568        2.659       29.922       18.179       15.764      895.304      330.465      248.497        0.257        0.074       60.429       11.267        0.035      339.848       13.463      862.314
09/05/2014  07:38:00      -25.854      -30.311        9.689       29.278       26.819       19.932      857.228      719.234      397.285        0.183        0.099       39.839       19.511        0.240      339.974       13.676      862.330
09/05/2014  07:39:00      -42.548      -48.388        3.770       40.788       31.776       20.738     1663.666     1009.693      430.079        0.363        0.155       64.434       27.579        0.183      339.972       13.671      862.341
09/05/2014  07:40:00      -26.447      -22.580        6.725       32.256       31.204       22.780     1040.423      973.703      518.906        0.189        0.127       34.775       17.684        0.259      340.085       13.863      862.355
09/05/2014  07:41:00      -45.794      -47.941        8.507       40.938       28.038       25.367     1675.953      786.119      643.496        0.379        0.155       66.298       22.547        0.116      340.012       13.739      862.354
09/05/2014  07:42:00      -68.292      -79.888       -6.935       33.490       26.052       17.956     1121.584      678.719      322.434        0.661        0.106      105.100       14.433        0.019      339.884       13.522      862.362
09/05/2014  07:43:00      -53.474      -57.709        3.741       44.021       25.402       23.547     1937.859      645.277      554.442        0.467        0.157       78.675       20.693        0.069      339.908       13.564      862.353
09/05/2014  07:44:00      -72.422      -74.183       -3.499       33.900       22.629       18.674     1149.177      512.050      348.707        0.638        0.100      103.673       17.502        0.028      339.875       13.510      862.345
09/05/2014  07:45:00      -53.624      -66.694       -3.553       23.165       18.292       13.681      536.625      334.612      187.156        0.420        0.053       85.578       10.535        0.015      339.903       13.555      862.338
09/05/2014  07:46:00      -63.931      -59.795        0.780       28.601       25.484       20.530      818.006      649.429      421.470        0.478        0.094       87.536       13.971        0.025      339.965       13.658      862.332
09/05/2014  07:47:00      -27.154      -43.397        6.549       17.752       19.197       15.419      315.130      368.526      237.752        0.179        0.046       51.192       14.256        0.078      340.072       13.840      862.335
09/05/2014  07:48:00      -25.846      -59.239        0.150       17.638       18.420       10.717      311.096      339.302      114.848        0.247        0.038       64.632        9.051        0.020      340.027       13.764      862.332
09/05/2014  07:49:00      -23.146      -82.154       -4.538       11.627       13.820       11.374      135.194      190.983      129.358        0.388        0.023       85.353        8.667        0.010      340.056       13.813      862.344
09/05/2014  07:50:00      -37.451      -76.917       -6.165       12.207       14.254        9.752      149.012      203.165       95.104        0.390        0.022       85.550        4.959        0.003      340.107       13.899      862.352
09/05/2014  07:51:00      -19.541      -69.647      -10.570       21.090       16.906       11.781      444.788      285.808      138.797        0.311        0.043       72.336        8.131        0.013      340.255       14.149      862.366
09/05/2014  07:52:00      -30.062      -23.237        8.631       19.786       16.208       15.560      391.487      262.692      242.125        0.121        0.045       37.996       15.601        0.169      340.573       14.687      862.373
09/05/2014  07:53:00      -28.241      -12.706        5.120       12.461       20.491       14.981      155.285      419.896      224.441        0.089        0.040       30.967       13.577        0.192      340.510       14.580      862.378
09/05/2014  07:54:00      -27.400      -21.729        4.514       18.015       22.541       15.336      324.543      508.107      235.198        0.116        0.053       34.970       14.963        0.183      340.537       14.627      862.394
09/05/2014  07:55:00      -23.930      -15.614       -3.937       16.899       17.436       12.156      285.575      304.011      147.771        0.078        0.037       28.574        8.884        0.097      340.439       14.460      862.397
09/05/2014  07:56:00      -15.889      -40.500       -4.130       33.652       31.804       22.633     1132.467     1011.475      512.231        0.228        0.133       43.505       16.285        0.140      340.413       14.415      862.398
09/05/2014  07:57:00        4.665       -1.729       30.205       21.475       24.310       18.380      461.183      590.995      337.819        0.116        0.069        4.975       12.757        6.574      340.500       14.564      862.399
09/05/2014  07:58:00        8.547      -32.316        3.891       20.332       25.771       15.988      413.394      664.154      255.620        0.123        0.067       33.427        4.621        0.019      340.171       14.007      862.409
09/05/2014  07:59:00       -7.911      -12.204       11.365       14.351       18.493       15.317      205.957      341.980      234.600        0.056        0.039       14.544        6.137        0.178      340.381       14.363      862.413
09/05/2014  08:00:00        6.390      -41.114       -4.560       25.188       36.806       31.663      634.446     1354.674     1002.555        0.237        0.150       41.608       24.512        0.347      340.284       14.198      862.409
09/05/2014  08:01:00      -25.484      -51.176       -8.193       15.330       24.722       16.762      234.998      611.194      280.968        0.223        0.056       57.170        6.746        0.014      340.623       14.771      862.408
09/05/2014  08:02:00      -25.374       -9.772        4.772       26.492       12.990       18.203      701.847      168.730      331.357        0.098        0.060       27.191       15.875        0.341      340.963       15.347      862.413
09/05/2014  08:03:00      -18.438       -2.744       -4.934       32.517       27.016       21.896     1057.336      729.876      479.414        0.132        0.113       18.641       12.445        0.446      340.805       15.081      862.417
09/05/2014  08:04:00      -41.749      -15.442        7.130       23.045       18.691       14.666      531.073      349.360      215.082        0.156        0.055       44.513       11.001        0.061      340.641       14.802      862.421
09/05/2014  08:05:00      -13.014        0.883        9.074       17.203       13.643       20.608      295.936      186.139      424.706        0.058        0.045       13.044       12.699        0.948      340.905       15.248      862.430
09/05/2014  08:06:00      -22.775      -26.219       -6.742       24.007       22.320       18.259      576.359      498.200      333.389        0.133        0.070       34.729       15.354        0.195      340.725       14.946      862.439
09/05/2014  08:07:00      -55.689      -11.815        0.596       24.758       15.873       13.662      612.976      251.967      186.643        0.215        0.053       56.928        8.903        0.024      340.759       15.003      862.461
09/05/2014  08:08:00      -28.919        4.830        3.262       17.212       16.585       16.564      296.268      275.053      274.373        0.086        0.042       29.320        9.921        0.114      341.027       15.454      862.484
09/05/2014  08:09:00      -16.263        1.119       17.625       21.803       21.204       20.015      475.354      449.590      400.617        0.095        0.066       16.302       18.754        1.324      341.242       15.818      862.501
09/05/2014  08:10:00      -14.601       -6.339        8.393       23.183       21.982       17.878      537.453      483.210      319.617        0.083        0.067       15.918       18.259        1.316      341.213       15.769      862.510
09/05/2014  08:11:00       -3.073       -3.033       17.982       19.510       15.761       20.842      380.624      248.398      434.398        0.070        0.053        4.318       12.596        8.508      341.399       16.085      862.509
09/05/2014  08:12:00       -1.210        2.444       29.386       18.267       44.468       29.412      333.700     1977.382      865.042        0.202        0.159        2.727       30.547      125.469      341.142       15.650      862.512
09/05/2014  08:13:00       13.875       18.404       43.242       28.576       23.968       20.744      816.580      574.450      430.316        0.211        0.091       23.049       13.707        0.354      341.253       15.838      862.514
09/05/2014  08:14:00       28.754        8.110       24.049       25.883       17.404       17.773      669.931      302.914      315.871        0.138        0.064       29.876       16.756        0.315      341.006       15.421      862.513
09/05/2014  08:15:00       -5.454        1.086       13.010       23.534       19.440       25.137      553.838      377.913      631.862        0.088        0.078        5.561       12.431        4.997      340.960       15.342      862.501
09/05/2014  08:16:00       -5.113        5.950       32.993       22.898       15.446       12.419      524.318      238.583      154.228        0.103        0.046        7.846        8.320        1.125      341.624       16.466      862.499
09/05/2014  08:17:00       26.029        5.196       30.687       35.053       31.373       28.144     1228.701      984.261      792.106        0.233        0.150       26.543       27.637        1.084      341.075       15.537      862.499
09/05/2014  08:18:00      -19.288      -12.673       -7.272       19.930       20.279       13.965      397.191      411.258      195.009        0.079        0.050       23.079        5.360        0.054      340.918       15.270      862.500
09/05/2014  08:19:00      -17.511       -8.842       -1.532       22.606       15.215       20.098      511.015      231.492      403.914        0.077        0.057       19.617       15.075        0.591      341.169       15.694      862.508
09/05/2014  08:20:00       -5.911      -14.308        7.954       35.886       25.232       24.359     1287.808      636.668      593.347        0.141        0.126       15.481       21.197        1.875      341.208       15.762      862.513
09/05/2014  08:21:00      -12.493       -4.428       10.909       28.041       24.469       25.445      786.293      598.735      647.434        0.116        0.102       13.254       23.586        3.166      341.300       15.918      862.516
09/05/2014  08:22:00      -27.813      -27.427        7.608       28.679       34.258       24.510      822.513     1173.645      600.753        0.209        0.130       39.061       23.551        0.364      341.370       16.036      862.513
09/05/2014  08:23:00      -51.210      -56.196        0.022       21.761       18.506       17.899      473.541      342.462      320.370        0.346        0.057       76.029       15.723        0.043      341.061       15.511      862.505
09/05/2014  08:24:00      -39.372      -51.431       -2.915       21.973       22.383       15.586      482.823      500.997      242.932        0.272        0.061       64.771       12.886        0.040      341.178       15.713      862.506
09/05/2014  08:25:00      -30.419        1.834       29.155       33.214       34.504       24.614     1103.197     1190.535      605.870        0.234        0.145       30.474       27.006        0.785      341.753       16.686      862.493
09/05/2014  08:26:00      -17.133       -4.618       14.539       33.618       42.368       27.016     1130.195     1795.066      729.842        0.209        0.183       17.744       26.660        2.257      341.493       16.244      862.481
09/05/2014  08:27:00      -38.704      -42.586        7.721       46.339       37.788       27.665     2147.311     1427.926      765.349        0.386        0.217       57.546       24.854        0.187      341.357       16.015      862.472
09/05/2014  08:28:00      -71.640      -69.785       -8.237       14.686       11.805       10.909      215.670      139.364      119.017        0.527        0.024      100.011        8.254        0.007      341.163       15.685      862.460
09/05/2014  08:29:00      -52.818      -49.374       -1.899       46.791       28.521       25.665     2189.391      813.423      658.700        0.445        0.183       72.302       30.804        0.182      341.362       16.022      862.458
09/05/2014  08:30:00      -32.441      -51.542       -3.625       40.952       27.889       22.884     1677.077      777.782      523.655        0.335        0.149       60.902       19.211        0.099      341.268       15.863      862.464
09/05/2014  08:31:00      -38.327      -28.406       -7.504       24.485       15.924       11.509      599.505      253.575      132.450        0.166        0.049       47.706        8.626        0.033      341.275       15.875      862.469
09/05/2014  08:32:00      -30.361      -41.850        5.671       21.215       20.239       14.740      450.061      409.623      217.274        0.189        0.054       51.703        9.031        0.031      341.365       16.026      862.481
09/05/2014  08:33:00      -40.225      -13.017       -7.113       23.935       18.125       11.232      572.881      328.515      126.153        0.143        0.051       42.279        7.801        0.034      341.384       16.059      862.484
09/05/2014  08:34:00      -49.350      -48.328      -10.150       21.955       23.076       14.393      482.001      532.522      207.154        0.305        0.061       69.072       13.505        0.038      341.326       15.961      862.489
09/05/2014  08:35:00      -16.544      -26.223       12.325       15.768       31.150       19.326      248.617      970.310      373.510        0.135        0.080       31.006       16.306        0.277      341.699       16.592      862.493
09/05/2014  08:36:00       -6.679       -4.193       34.009       13.740       14.465       11.394      188.784      209.234      129.817        0.087        0.026        7.886        3.619        0.211      342.440       17.851      862.497
09/05/2014  08:37:00      -14.454      -42.428        7.477       24.318       33.851       18.067      591.355     1145.922      326.422        0.206        0.103       44.823       14.898        0.110      341.529       16.306      862.501
09/05/2014  08:38:00      -26.582      -27.305       -2.487       11.202       22.432        8.733      125.491      503.184       76.257        0.108        0.035       38.107       10.502        0.076      341.484       16.228      862.499
09/05/2014  08:39:00      -56.934      -13.176       -5.386       19.326       14.067        9.466      373.492      197.871       89.603        0.205        0.033       58.439        8.085        0.019      341.460       16.187      862.501
09/05/2014  08:40:00      -28.951       -7.280        8.004       28.062       16.997       18.121      787.503      288.881      328.384        0.118        0.070       29.852       20.215        0.459      341.920       16.966      862.506
09/05/2014  08:41:00      -24.401      -21.268      -13.366       17.168        9.376        9.216      294.731       87.904       84.935        0.085        0.023       32.369        7.763        0.058      341.462       16.189      862.511
09/05/2014  08:42:00       -5.700      -18.559        6.672       21.372       20.401       13.182      456.777      416.190      173.774        0.073        0.052       19.415       10.827        0.311      341.574       16.382      862.520
09/05/2014  08:43:00       26.189      -17.016       19.759       22.586       27.212       18.213      510.141      740.518      331.709        0.147        0.079       31.232       14.096        0.204      341.237       15.810      862.514
09/05/2014  08:44:00       -6.569      -16.362        8.049       31.476       20.400       16.627      990.740      416.144      276.443        0.103        0.084       17.631       12.995        0.543      341.532       16.310      862.510
09/05/2014  08:45:00      -18.709      -15.779       20.703       10.211       22.830       16.974      104.265      521.191      288.116        0.097        0.046       24.474       14.627        0.357      341.931       16.986      862.508
09/05/2014  08:46:00       17.462       -5.875       19.338       23.907       31.998       23.876      571.549     1023.884      570.086        0.144        0.108       18.424       23.729        1.659      341.594       16.415      862.509
09/05/2014  08:47:00        7.978       20.557       33.390       28.801       22.587       26.644      829.483      510.194      709.925        0.183        0.102       22.051       16.842        0.583      341.757       16.692      862.509
09/05/2014  08:48:00       34.710       12.886       36.859       32.840       15.892       23.705     1078.473      252.554      561.946        0.231        0.095       37.025       16.370        0.195      341.848       16.847      862.515
09/05/2014  08:49:00       53.822        3.535       23.255       31.302       26.614       31.600      979.801      708.330      998.531        0.307        0.134       53.938       21.054        0.152      341.618       16.457      862.514
09/05/2014  08:50:00       60.278       10.302       27.174       27.680       25.559       23.620      766.180      653.262      557.913        0.323        0.099       61.152       15.548        0.065      341.456       16.182      862.507
09/05/2014  08:51:00       43.180        1.591       31.475       56.612       22.912       26.290     3204.964      524.947      691.182        0.364        0.221       43.210       24.040        0.310      341.934       16.993      862.500
09/05/2014  08:52:00       36.812       22.351       33.131       34.903       21.713       24.115     1218.247      471.463      581.547        0.261        0.114       43.066       13.676        0.101      341.704       16.602      862.500
09/05/2014  08:53:00       11.526       25.628       43.633       32.715       27.588       25.762     1070.271      761.095      663.682        0.259        0.125       28.101       20.662        0.541      341.970       17.054      862.493
09/05/2014  08:54:00       30.855       19.829       25.523       25.637       21.101       22.996      657.262      445.243      528.831        0.181        0.082       36.678        9.864        0.072      341.768       16.710      862.488
09/05/2014  08:55:00       43.966       24.219       12.875       30.371       23.917       21.914      922.406      572.006      480.237        0.233        0.099       50.195       12.505        0.062      341.625       16.468      862.486
09/05/2014  08:56:00       23.324       32.986       11.526       22.816       20.020       25.991      520.590      400.817      675.555        0.168        0.080       40.399       14.039        0.121      341.797       16.760      862.475
09/05/2014  08:57:00       23.558       37.135        3.909       21.569       26.676       21.990      465.229      711.620      483.562        0.180        0.083       43.977       15.810        0.129      342.113       17.297      862.478
09/05/2014  08:58:00       15.389       31.637       26.692       18.869       24.869       16.985      356.052      618.461      288.505        0.161        0.063       35.182       14.847        0.178      342.444       17.859      862.480
09/05/2014  08:59:00       22.476       24.275        2.054       20.899       16.307       22.824      436.784      265.921      520.940        0.116        0.061       33.082       13.055        0.156      342.213       17.467      862.475
09/05/2014  09:00:00        8.362        4.503       15.401       17.030       11.879       13.626      290.013      141.116      185.666        0.047        0.031        9.497       12.183        1.646      342.550       18.039      862.479
09/05/2014  09:01:00       59.972       43.421       15.238       30.679       26.668       22.685      941.227      711.174      514.619        0.394        0.108       74.040       12.513        0.029      341.992       17.090      862.487
09/05/2014  09:02:00       51.768       24.632        7.752       45.775       30.530       24.651     2095.384      932.082      607.675        0.349        0.182       57.329       19.366        0.114      342.338       17.677      862.496
09/05/2014  09:03:00       58.606       36.059       12.175       38.755       27.754       27.251     1501.940      770.304      742.594        0.395        0.151       68.810       17.468        0.064      342.556       18.048      862.500
09/05/2014  09:04:00       94.962       65.414        1.759       40.056       31.242       26.400     1604.509      976.055      696.938        0.829        0.164      115.312       17.530        0.023      342.213       17.464      862.502
09/05/2014  09:05:00       26.849       58.736       -8.075       20.384       31.821       25.306      415.524     1012.546      640.399        0.315        0.103       64.582       20.256        0.098      342.226       17.489      862.507
09/05/2014  09:06:00       20.681       25.372       26.499       29.768       28.908       24.874      886.151      835.666      618.711        0.206        0.117       32.733       21.587        0.435      342.670       18.242      862.501
09/05/2014  09:07:00       11.046        3.382       34.793       29.687       37.532       29.757      881.319     1408.685      885.484        0.226        0.159       11.552       25.289        4.792      342.679       18.257      862.513
09/05/2014  09:08:00       29.544      -11.254       21.861       24.178       42.360       17.011      584.575     1794.408      289.376        0.207        0.133       31.615        9.629        0.093      342.288       17.593      862.517
09/05/2014  09:09:00       55.102       48.753        0.618       48.651       32.919       28.903     2366.892     1083.678      835.396        0.485        0.214       73.573       14.452        0.039      342.406       17.796      862.519
09/05/2014  09:10:00       91.982       57.193       14.683       47.136       33.468       27.594     2221.825     1120.133      761.421        0.802        0.205      108.314       18.079        0.028      342.447       17.864      862.518
09/05/2014  09:11:00       55.173       56.689       12.084       34.898       23.099       25.611     1217.870      533.584      655.910        0.441        0.120       79.105       15.131        0.037      342.482       17.923      862.514
09/05/2014  09:12:00       32.184       47.857        8.741       29.404       29.689       27.771      864.567      881.454      771.254        0.296        0.126       57.672       20.428        0.125      342.620       18.156      862.513
09/05/2014  09:13:00       47.213       65.363       11.465       45.722       35.573       35.247     2090.512     1265.450     1242.337        0.561        0.230       80.631       26.693        0.110      342.613       18.145      862.516
09/05/2014  09:14:00       95.835       70.122        7.001       44.475       23.424       27.729     1978.027      548.676      768.886        0.872        0.165      118.749       16.207        0.019      342.476       17.913      862.519
09/05/2014  09:15:00       38.229       52.586       35.955       39.223       36.647       30.916     1538.468     1343.039      955.816        0.468        0.192       65.014       29.638        0.208      342.881       18.601      862.518
09/05/2014  09:16:00        1.477       25.273       18.611       21.311       22.839       23.566      454.139      521.631      555.337        0.126        0.077       25.316        7.384        0.085      343.025       18.845      862.521
09/05/2014  09:17:00       33.362       33.738        7.653       27.642       25.311       27.081      764.081      640.656      733.406        0.222        0.107       47.448       20.090        0.179      342.877       18.595      862.520
09/05/2014  09:18:00        7.592       30.325        7.104       15.637       35.994       26.308      244.520     1295.548      692.125        0.163        0.112       31.260       28.279        0.818      343.099       18.972      862.523
09/05/2014  09:19:00       43.243       19.181       15.556       28.749       31.447       30.134      826.491      988.916      908.080        0.260        0.136       47.306       12.752        0.073      342.877       18.595      862.525
09/05/2014  09:20:00       34.314       58.140       50.175       34.996       41.610       20.723     1224.694     1731.421      429.450        0.523        0.169       67.511       19.655        0.085      342.783       18.435      862.523
09/05/2014  09:21:00       -4.357       32.483       26.720       25.155       26.655       18.077      632.758      710.510      326.777        0.173        0.084       32.774       15.300        0.218      343.152       19.063      862.531
09/05/2014  09:22:00        5.234      -21.536       20.520       30.905       33.089       28.903      955.105     1094.868      835.371        0.190        0.144       22.163       26.482        1.428      342.667       18.238      862.538
09/05/2014  09:23:00       51.962      -31.673        7.398       40.066       27.709       24.976     1605.289      767.790      623.790        0.338        0.150       60.854       16.881        0.077      342.175       17.400      862.545
09/05/2014  09:24:00       14.039       25.486       14.136       38.778       38.409       23.386     1503.738     1475.224      546.926        0.229        0.176       29.097        7.821        0.072      342.776       18.423      862.548
09/05/2014  09:25:00       13.649       22.402       41.958       21.631       32.962       18.125      467.899     1086.478      328.534        0.217        0.094       26.233       18.051        0.473      343.018       18.835      862.559
09/05/2014  09:26:00       81.757       44.616       26.143       41.263       36.778       33.050     1702.633     1352.648     1092.305        0.675        0.207       93.139       23.152        0.062      342.593       18.111      862.571
09/05/2014  09:27:00       86.197       53.363        6.736       53.110       39.009       32.805     2820.689     1521.690     1076.150        0.787        0.271      101.378       25.800        0.065      342.522       17.991      862.583
09/05/2014  09:28:00        0.324       -8.400        5.723       23.113       17.679       15.671      534.204      312.546      245.592        0.060        0.055        8.406        8.943        1.132      342.926       18.678      862.594
09/05/2014  09:29:00        0.518       16.391       26.431       15.937       24.735       18.711      253.983      611.814      350.120        0.109        0.061       16.399       13.709        0.699      343.313       19.337      862.594
09/05/2014  09:30:00       15.882       51.138       -1.339       29.256       30.913       22.473      855.915      955.644      505.022        0.259        0.116       53.547       10.701        0.040      342.948       18.715      862.595
09/05/2014  09:31:00      -15.434       45.053        4.743       16.505       31.912       20.362      272.425     1018.355      414.603        0.200        0.085       47.624       19.194        0.162      343.239       19.211      862.607
09/05/2014  09:32:00      -14.841       79.391       -7.143       24.194       60.262       25.009      585.340     3631.480      625.426        0.571        0.242       80.766       34.631        0.184      343.173       19.099      862.610
09/05/2014  09:33:00       24.916       38.245        0.814       49.311       51.099       22.555     2431.614     2611.147      508.726        0.382        0.278       45.645       17.188        0.142      343.174       19.101      862.618
09/05/2014  09:34:00       65.021       15.964       12.617       61.321       48.268       35.480     3760.321     2329.812     1258.848        0.599        0.367       66.952       26.597        0.158      343.271       19.266      862.616
09/05/2014  09:35:00       87.519       81.483        3.222       50.447       38.216       34.570     2544.887     1460.463     1195.114        0.975        0.260      119.578       24.569        0.042      342.944       18.708      862.618
09/05/2014  09:36:00       27.093        0.323       18.444       24.179       40.796       29.146      584.620     1664.324      849.511        0.209        0.155       27.095       17.569        0.420      343.327       19.362      862.616
09/05/2014  09:37:00        2.059       -2.356       10.379       23.120       27.789       26.566      534.532      772.219      705.747        0.106        0.101        3.129       11.659       13.882      343.371       19.435      862.610
09/05/2014  09:38:00       -4.098      -11.712       12.895       11.345       19.542       17.018      128.699      381.883      289.623        0.056        0.040       12.409        9.078        0.535      343.372       19.438      862.605
09/05/2014  09:39:00        8.053       42.321       13.483       24.652       47.975       27.371      607.698     2301.564      749.198        0.285        0.183       43.081       22.397        0.270      343.540       19.725      862.608
09/05/2014  09:40:00       -9.848       30.587       -4.731       39.993       25.882       22.932     1599.415      669.881      525.882        0.192        0.140       32.134       26.073        0.658      343.416       19.514      862.594
09/05/2014  09:41:00      117.092       86.156       27.018       32.491       29.824       29.543     1055.641      889.494      872.774        1.234        0.141      145.373       11.027        0.006      343.201       19.145      862.590
09/05/2014  09:42:00       87.869       69.675       20.684       63.835       37.995       41.417     4074.944     1443.598     1715.398        1.012        0.362      112.140       24.079        0.046      343.276       19.272      862.594
09/05/2014  09:43:00       70.895       54.530       13.068       26.844       30.847       29.443      720.606      951.564      866.893        0.535        0.127       89.441       19.206        0.046      343.221       19.181      862.593
09/05/2014  09:44:00       35.816       33.346       -1.954       48.867       25.371       21.756     2387.969      643.688      473.326        0.295        0.175       48.936       27.742        0.321      343.235       19.204      862.594
09/05/2014  09:45:00       34.877       35.505       12.879       22.684       19.543       18.693      514.552      381.934      349.445        0.194        0.062       49.769       10.696        0.046      343.330       19.366      862.582
09/05/2014  09:46:00        6.151      -44.568        9.299       43.705       38.604       20.254     1910.115     1490.248      410.242        0.296        0.191       44.990       22.953        0.260      343.283       19.286      862.573
09/05/2014  09:47:00       65.594       55.790       53.141       62.426       62.969       42.417     3896.977     3965.141     1799.223        0.995        0.483       86.111       41.106        0.228      343.273       19.270      862.561
09/05/2014  09:48:00      120.240       79.947       24.103       45.982       44.912       51.409     2114.344     2017.124     2642.895        1.410        0.339      144.392       28.201        0.038      343.447       19.566      862.550
09/05/2014  09:49:00       88.021       68.436        3.173       59.972       39.986       35.046     3596.595     1598.875     1228.191        0.943        0.321      111.495       22.918        0.042      343.575       19.784      862.559
09/05/2014  09:50:00       71.668       79.125       -0.665       43.670       33.879       26.933     1907.089     1147.757      725.407        0.759        0.189      106.757       21.340        0.040      343.526       19.701      862.553
09/05/2014  09:51:00       38.942       81.290        7.112       38.837       39.089       34.237     1508.324     1527.971     1172.154        0.619        0.210       90.136       28.762        0.102      343.452       19.575      862.547
09/05/2014  09:52:00       46.686       47.309       17.138       46.331       38.523       30.966     2146.520     1484.038      958.905        0.465        0.229       66.466       27.921        0.176      343.776       20.126      862.542
09/05/2014  09:53:00       69.591       41.945       12.156       47.314       39.943       34.972     2238.583     1595.442     1223.031        0.590        0.253       81.254       23.884        0.086      343.646       19.904      862.537
09/05/2014  09:54:00       13.218       21.185       25.050       37.226       32.260       22.341     1385.761     1040.713      499.116        0.209        0.146       24.970       19.181        0.590      344.382       21.161      862.550
09/05/2014  09:55:00       52.206       51.434       21.472       45.312       43.523       37.383     2053.219     1894.240     1397.467        0.559        0.267       73.286       26.812        0.134      344.034       20.566      862.551
09/05/2014  09:56:00      140.266       94.504       15.741       50.847       42.520       37.967     2585.403     1807.959     1441.530        1.734        0.292      169.131       25.744        0.023      343.609       19.840      862.557
09/05/2014  09:57:00      112.648       78.401       28.356       60.076       39.423       43.280     3609.124     1554.155     1873.169        1.334        0.352      137.246       33.604        0.060      343.510       19.671      862.567
09/05/2014  09:58:00       16.773       12.827       60.241       37.872       71.692       39.026     1434.280     5139.787     1523.021        0.608        0.405       21.116       46.013        4.748      343.753       20.089      862.572
09/05/2014  09:59:00       44.554       55.855       23.975       47.200       38.290       37.380     2227.853     1466.127     1397.258        0.538        0.255       71.448       11.021        0.024      343.575       19.784      862.577
09/05/2014  10:00:00      -21.332        6.845       -1.617       15.692       17.872       16.139      246.231      319.391      260.454        0.067        0.041       22.403        9.089        0.165      343.694       19.985      862.581
09/05/2014  10:01:00      -13.220       20.280       24.061       24.651       29.404       18.279      607.689      864.609      334.120        0.149        0.090       24.208        9.473        0.153      344.499       21.361      862.565
09/05/2014  10:02:00       20.056       19.975       34.953       38.192       38.056       22.193     1458.618     1448.282      492.542        0.271        0.170       28.307       22.047        0.607      344.439       21.259      862.565
09/05/2014  10:03:00       17.921      -12.783        6.985       41.177       45.913       31.926     1695.565     2107.986     1019.251        0.268        0.241       22.013       22.384        1.034      343.960       20.441      862.567
09/05/2014  10:04:00        0.407      -11.306       21.849       39.414       37.978       24.701     1553.494     1442.301      610.150        0.211        0.180       11.313       20.377        3.244      343.867       20.284      862.560
09/05/2014  10:05:00       41.523       25.739       34.593       48.838       43.161       32.504     2385.189     1862.880     1056.503        0.444        0.265       48.854       20.808        0.181      343.894       20.328      862.569
09/05/2014  10:06:00        9.356       20.749       36.740       36.651       28.868       24.279     1343.328      833.333      589.462        0.232        0.138       22.761       17.583        0.597      344.070       20.628      862.576
09/05/2014  10:07:00       42.591       32.712       23.714       44.798       32.588       28.089     2006.882     1062.008      789.016        0.365        0.193       53.703       23.229        0.187      344.235       20.910      862.583
09/05/2014  10:08:00       47.349       58.269        5.678       45.294       46.187       32.969     2051.561     2133.255     1086.930        0.547        0.264       75.081       30.226        0.162      344.286       20.997      862.588
09/05/2014  10:09:00       59.418       67.193        4.044       50.810       37.388       38.349     2581.678     1397.826     1470.656        0.676        0.273       89.696       26.088        0.085      344.009       20.524      862.591
09/05/2014  10:10:00      134.324       71.878       10.466       41.918       38.212       32.315     1757.153     1460.131     1044.275        1.379        0.213      152.346       15.347        0.010      343.996       20.500      862.598
09/05/2014  10:11:00       83.085       82.973       10.612       63.474       56.651       49.509     4028.995     3209.314     2451.178        1.179        0.484      117.420       33.257        0.080      343.994       20.497      862.599
09/05/2014  10:12:00      106.057      102.500        2.025       62.721       46.763       43.593     3933.960     2186.791     1900.326        1.489        0.401      147.493       31.768        0.046      344.022       20.545      862.610
09/05/2014  10:13:00      134.551       97.835        7.088       72.876       48.186       28.882     5310.943     2321.869      834.161        1.810        0.423      166.360       18.486        0.012      344.032       20.561      862.610
09/05/2014  10:14:00       55.276       46.593       17.352       52.174       49.269       30.295     2722.104     2427.427      917.792        0.580        0.303       72.294       27.203        0.142      344.291       21.007      862.623
09/05/2014  10:15:00       84.589       48.754       16.948       44.838       38.463       37.398     2010.477     1479.369     1398.583        0.735        0.244       97.633       16.786        0.030      343.866       20.280      862.633
09/05/2014  10:16:00       49.958       51.916       38.145       30.989       36.359       32.776      960.341     1322.002     1074.280        0.500        0.168       72.050       20.821        0.084      343.535       19.714      862.625
09/05/2014  10:17:00       54.646       45.183       52.214       36.342       34.222       33.347     1320.719     1171.148     1112.033        0.568        0.180       70.906       13.728        0.037      344.111       20.698      862.626
09/05/2014  10:18:00       40.383       -2.013       15.278       37.176       54.901       42.064     1382.035     3014.174     1769.366        0.402        0.308       40.433       37.072        0.841      344.024       20.550      862.618
09/05/2014  10:19:00       -3.406      -16.583        9.265       26.069       32.282       27.550      679.601     1042.124      759.024        0.143        0.124       16.929       15.032        0.788      344.309       21.036      862.621
09/05/2014  10:20:00        4.188      -65.530       -4.671       27.986       32.368       28.548      783.219     1047.704      815.003        0.349        0.132       65.664       15.796        0.058      344.045       20.585      862.620
09/05/2014  10:21:00       30.085      -21.909       30.418       45.825       79.270       51.015     2099.894     6283.704     2602.567        0.665        0.549       37.217       50.688        1.855      344.702       21.708      862.616
09/05/2014  10:22:00       36.417       27.210       75.269       52.932       68.875       53.344     2801.804     4743.818     2845.537        0.906        0.520       45.460       58.137        1.636      344.280       20.987      862.626
09/05/2014  10:23:00       69.796      -17.881       25.272       42.611       43.772       36.772     1815.737     1916.020     1352.153        0.546        0.254       72.050       28.176        0.153      344.111       20.697      862.618
09/05/2014  10:24:00       93.101       62.242       47.324       49.567       78.289       46.480     2456.858     6129.134     2160.418        1.276        0.537      111.990       43.463        0.151      343.948       20.421      862.617
09/05/2014  10:25:00       56.017       -2.918       60.983       79.979      104.426       57.038     6396.569    10904.840     3253.364        1.371        1.028       56.093       63.160        1.268      344.452       21.279      862.604
09/05/2014  10:26:00       68.070      -62.244       38.865       79.082      115.777       50.195     6253.967    13404.390     2519.537        1.609        1.109       92.238       69.403        0.566      344.696       21.698      862.593
09/05/2014  10:27:00      146.184      119.941       33.410       63.698       57.331       48.911     4057.497     3286.851     2392.315        2.330        0.487      189.091       22.570        0.014      344.582       21.502      862.601
09/05/2014  10:28:00       75.173       51.299        0.075       62.119       62.849       41.832     3858.817     3949.939     1749.916        0.892        0.478       91.009       21.957        0.058      344.783       21.846      862.607
09/05/2014  10:29:00      180.560      105.478       31.685       59.485       37.622       42.620     3538.506     1415.391     1816.477        2.575        0.339      209.111        3.794        0.000      344.450       21.275      862.589
09/05/2014  10:30:00      102.785       19.133       26.877       78.539       51.051       37.319     6168.451     2606.239     1392.739        1.091        0.508      104.551       23.476        0.050      344.776       21.835      862.577
09/05/2014  10:31:00      128.094       89.465       51.327       80.617       51.853       42.064     6499.109     2688.740     1769.376        1.900        0.548      156.243       22.535        0.021      344.780       21.842      862.567
09/05/2014  10:32:00       97.937       23.161       40.670       90.863       71.949       63.358     8256.067     5176.641     4014.287        1.461        0.872      100.638       55.547        0.305      344.518       21.394      862.563
09/05/2014  10:33:00      162.743       98.649      104.710      110.326       87.088       71.619    12171.811     7584.328     5129.351        3.603        1.244      190.308       67.560        0.126      344.329       21.069      862.540
09/05/2014  10:34:00      187.072       68.110       50.869      119.900       91.580       75.359    14376.048     8386.810     5678.956        3.533        1.422      199.085       54.702        0.075      344.430       21.240      862.546
09/05/2014  10:35:00      144.174       94.949       55.768       79.774       73.402       55.564     6363.883     5387.822     3087.380        2.387        0.742      172.631       50.274        0.085      344.587       21.509      862.548
09/05/2014  10:36:00      115.574       49.293        9.515       56.020       45.011       41.283     3138.226     2025.976     1704.256        1.137        0.343      125.647       21.529        0.029      344.830       21.926      862.552
09/05/2014  10:37:00       54.399       21.152       12.183       48.889       45.662       30.765     2390.141     2084.995      946.469        0.449        0.271       58.366       25.336        0.188      345.028       22.265      862.555
09/05/2014  10:38:00      121.117       62.151       31.536      100.537       43.364       44.078    10107.722     1880.478     1942.870        1.673        0.697      136.133       46.350        0.116      344.958       22.145      862.547
09/05/2014  10:39:00      115.172       77.346       35.336       63.084       40.025       37.981     3979.627     1601.997     1442.542        1.376        0.351      138.734       22.371        0.026      344.769       21.823      862.560
09/05/2014  10:40:00       58.095       26.436       22.572       62.079       49.439       36.433     3853.809     2444.225     1327.400        0.610        0.381       63.827       16.634        0.068      344.960       22.151      862.551
09/05/2014  10:41:00      127.007       95.644       47.930       88.983       67.601       55.108     7917.954     4569.829     3036.921        2.155        0.776      158.992       43.466        0.075      345.093       22.376      862.554
09/05/2014  10:42:00       70.873       78.599       72.261       87.667       80.435       65.939     7685.524     6469.768     4347.952        1.746        0.925      105.834       50.004        0.223      344.880       22.011      862.559
09/05/2014  10:43:00       51.172       43.045       72.739       69.080       54.197       52.115     4772.113     2937.318     2715.948        1.009        0.521       66.869       46.486        0.483      344.738       21.769      862.544
09/05/2014  10:44:00       64.474       97.291       98.231       71.917       62.103       52.689     5172.082     3856.774     2776.137        1.754        0.590      116.715       50.203        0.185      344.654       21.625      862.531
09/05/2014  10:45:00       51.839       57.453       41.688       57.790       42.040       44.513     3339.716     1767.340     1981.407        0.741        0.354       77.383       40.114        0.269      344.774       21.832      862.524
09/05/2014  10:46:00       63.148      110.272      130.677       96.528       81.554       59.128     9317.741     6651.102     3496.166        2.634        0.973      127.073       45.897        0.130      344.851       21.961      862.507
09/05/2014  10:47:00       62.081      112.680      102.172       96.726       90.791       61.386     9355.892     8242.995     3768.199        2.417        1.068      128.650       41.519        0.104      344.855       21.968      862.500
09/05/2014  10:48:00       48.278       13.994       40.931       61.641       86.989       47.436     3799.588     7567.142     2250.194        0.891        0.681       50.265       30.758        0.374      345.040       22.287      862.486
09/05/2014  10:49:00       95.346       79.543       33.188       58.822       44.647       46.433     3460.039     1993.318     2156.016        1.206        0.380      124.170       33.443        0.073      345.391       22.887      862.489
09/05/2014  10:50:00       69.359       53.258       16.010       73.359       41.518       43.891     5381.475     1723.776     1926.435        0.847        0.452       87.447       34.039        0.152      345.468       23.021      862.497
09/05/2014  10:51:00      184.513      126.950       46.099      101.011       80.022       65.187    10203.172     6403.518     4249.372        3.657        1.043      223.967       42.915        0.037      345.039       22.281      862.496
09/05/2014  10:52:00      171.923      138.995       22.640       96.820       75.996       64.919     9374.060     5775.344     4214.435        3.437        0.968      221.082       48.408        0.048      345.018       22.247      862.482
09/05/2014  10:53:00      156.830      125.627       15.253      117.139       82.639       75.621    13721.648     6829.194     5718.504        3.344        1.313      200.942       53.963        0.072      344.907       22.055      862.489
09/05/2014  10:54:00      151.301      117.249       18.896       68.378       44.261       61.025     4675.606     1959.014     3723.999        2.368        0.518      191.415       45.183        0.056      344.892       22.030      862.491
09/05/2014  10:55:00       76.619       63.730       39.677       70.642       58.082       40.699     4990.279     3373.500     1656.389        1.076        0.501       99.659       20.400        0.042      345.109       22.404      862.481
09/05/2014  10:56:00       94.268        9.172       34.040       54.676       70.327       50.595     2989.430     4945.817     2559.903        1.031        0.525       94.713       33.245        0.123      344.738       21.769      862.461
09/05/2014  10:57:00       57.155       87.736       56.573       70.954       45.431       58.009     5034.477     2063.956     3365.087        1.231        0.523      104.711       52.997        0.256      345.019       22.251      862.438
09/05/2014  10:58:00      133.120       91.854       42.079       96.115       48.856       56.507     9238.143     2386.920     3193.080        2.137        0.741      161.735       48.868        0.091      345.448       22.984      862.419
09/05/2014  10:59:00       25.347       67.700       69.149       35.769       47.445       40.913     1279.424     2251.039     1673.869        0.761        0.260       72.290       22.002        0.093      345.768       23.535      862.424
09/05/2014  11:00:00       28.434       46.209       35.591       53.874       64.605       47.766     2902.447     4173.868     2281.546        0.678        0.468       54.257       21.165        0.152      345.717       23.447      862.426
09/05/2014  11:01:00      125.298       73.182       33.297       54.199       65.742       39.529     2937.565     4322.036     1562.523        1.549        0.441      145.104       18.048        0.015      345.482       23.042      862.408
09/05/2014  11:02:00       42.031       61.441       83.325       88.428       81.223       35.672     7819.538     6597.216     1272.472        1.408        0.784       74.442       38.358        0.266      345.528       23.121      862.399
09/05/2014  11:03:00       64.192       64.978       87.423       64.751       74.664       44.621     4192.642     5574.729     1991.066        1.387        0.588       91.338       37.439        0.168      345.312       22.752      862.400
09/05/2014  11:04:00        3.003       66.623       96.890       43.358       58.377       40.519     1879.903     3407.829     1641.758        1.038        0.346       66.691       41.824        0.393      344.992       22.205      862.394
09/05/2014  11:05:00       52.634       62.067       55.178       61.900       36.519       45.334     3831.600     1333.635     2055.207        0.844        0.361       81.380       35.770        0.193      345.048       22.300      862.378
09/05/2014  11:06:00       94.367       69.821       58.745       85.720       63.403       67.744     7347.992     4019.905     4589.183        1.659        0.798      117.389       54.450        0.215      345.481       23.042      862.364
09/05/2014  11:07:00      293.701      193.216       66.819      145.619      100.822       71.769    21204.847    10165.008     5150.835        8.228        1.826      351.558       44.667        0.016      345.013       22.239      862.342
09/05/2014  11:08:00      162.452      108.003       24.487      110.574       84.968       63.282    12226.535     7219.508     4004.675        3.105        1.173      195.078       19.545        0.010      345.191       22.544      862.356
09/05/2014  11:09:00      215.792      171.899       15.275      112.686       76.545       81.895    12698.045     5859.144     6706.763        5.080        1.263      275.890       45.442        0.027      345.084       22.358      862.357
09/05/2014  11:10:00       85.655       98.803        2.215       70.717       68.376       50.447     5000.837     4675.319     2544.885        1.466        0.611      130.763       33.005        0.064      345.084       22.362      862.354
09/05/2014  11:11:00       38.742       63.532       15.829       51.567       49.263       47.643     2659.123     2426.812     2269.835        0.657        0.368       74.413       36.014        0.234      345.383       22.874      862.342
09/05/2014  11:12:00      125.758       82.290       32.704      106.020       47.566       48.748    11240.187     2262.485     2376.340        1.976        0.794      150.289       40.631        0.073      345.267       22.675      862.314
09/05/2014  11:13:00       46.136       69.763       17.455       68.876       47.969       36.049     4743.849     2300.983     1299.548        0.782        0.417       83.639       23.900        0.082      345.818       23.620      862.316
09/05/2014  11:14:00      113.621      104.460       11.567       59.849       47.139       40.385     3581.899     2222.074     1630.956        1.569        0.372      154.343       39.000        0.064      345.613       23.267      862.301
09/05/2014  11:15:00       87.696       83.592        7.065       64.904       66.596       40.335     4212.540     4434.973     1626.919        1.250        0.514      121.154       26.099        0.046      345.646       23.324      862.287
09/05/2014  11:16:00      148.931      107.887        6.816       72.025       70.040       55.129     5187.561     4905.551     3039.159        2.350        0.657      183.902       30.890        0.028      345.372       22.853      862.275
09/05/2014  11:17:00       75.111       95.090      103.564       72.635      101.605       70.059     5275.883    10323.546     4908.318        2.296        1.025      121.176       65.000        0.288      345.273       22.683      862.271
09/05/2014  11:18:00      205.714      124.320       45.627      102.128       79.207       57.086    10430.186     6273.705     3258.783        3.991        0.998      240.361       41.407        0.030      345.161       22.491      862.258
09/05/2014  11:19:00      146.091       89.039       60.230      105.798       76.320       46.950    11193.197     5824.785     2204.262        2.606        0.961      171.086       36.245        0.045      345.282       22.700      862.255
09/05/2014  11:20:00      184.887      116.644       20.807       94.852       71.765       48.095     8996.954     5150.197     2313.108        3.234        0.823      218.607       27.624        0.016      345.228       22.604      862.253
09/05/2014  11:21:00      136.985       55.693       10.564       90.519       71.951       47.708     8193.749     5176.977     2276.067        1.881        0.782      147.874       13.359        0.008      345.434       22.961      862.227
09/05/2014  11:22:00      114.814       81.764       31.164       95.581       67.092       50.857     9135.688     4501.372     2586.484        1.853        0.811      140.952       45.414        0.104      345.628       23.292      862.225
09/05/2014  11:23:00       12.343       64.421       70.832       56.105       57.841       61.080     3147.791     3345.557     3730.808        0.977        0.511       65.593       37.487        0.327      345.976       23.890      862.214
09/05/2014  11:24:00      108.637       70.701       35.769      112.218       79.838       63.140    12592.833     6374.181     3986.626        2.051        1.148      129.617       43.563        0.113      345.544       23.148      862.192
09/05/2014  11:25:00      241.756      183.642       22.451       92.087       61.546       62.941     8479.995     3787.960     3961.547        5.445        0.811      303.596       26.918        0.008      345.372       22.851      862.191
09/05/2014  11:26:00       86.888      104.789        7.628       90.975       72.224       54.622     8276.491     5216.237     2983.566        1.753        0.824      136.126       43.151        0.100      345.355       22.826      862.193
09/05/2014  11:27:00       62.408      134.831       -1.455       68.153       78.831       52.461     4644.805     6214.253     2752.127        1.784        0.681      148.574       42.765        0.083      345.434       22.960      862.177
09/05/2014  11:28:00      131.226       85.927       40.653       64.524       47.772       45.283     4163.408     2282.170     2050.582        1.737        0.425      156.856       36.652        0.055      345.682       23.386      862.182
09/05/2014  11:29:00      125.953      110.317       69.179      114.073       72.248       82.462    13012.633     5219.740     6799.967        2.892        1.252      167.433       67.709        0.164      345.653       23.334      862.172
09/05/2014  11:30:00       94.293      112.526      115.353      124.318      104.301       79.712    15454.992    10878.686     6354.008        3.377        1.634      146.810       71.030        0.234      345.756       23.512      862.169
09/05/2014  11:31:00      128.568      108.515       72.525       77.299       63.896       62.187     5975.089     4082.753     3867.245        2.374        0.696      168.241       40.502        0.058      345.203       22.563      862.191
09/05/2014  11:32:00       49.906       39.711       24.599       35.320       39.228       32.285     1247.496     1538.812     1042.323        0.425        0.191       63.778       19.468        0.093      345.540       23.143      862.187
09/05/2014  11:33:00       17.543       68.994        4.384       31.480       52.648       28.263      990.965     2771.838      798.811        0.482        0.228       71.189       23.757        0.111      345.593       23.234      862.169
09/05/2014  11:34:00       41.505      -15.707       -6.477       49.158       60.249       23.457     2416.553     3629.962      550.247        0.430        0.330       44.377       18.448        0.173      345.437       22.966      862.165
09/05/2014  11:35:00       10.606      -38.481       16.090       19.089       59.262       19.968      364.381     3512.005      398.736        0.306        0.214       39.916       25.659        0.413      345.448       22.987      862.133
09/05/2014  11:36:00       45.969       28.346       17.480       33.667       39.758       28.768     1133.494     1580.732      827.576        0.338        0.177       54.006       22.732        0.177      345.979       23.898      862.130
09/05/2014  11:37:00      127.116       62.778        6.590       61.612       48.876       49.700     3796.034     2388.840     2470.072        1.440        0.433      141.773       36.330        0.066      345.715       23.442      862.135
09/05/2014  11:38:00      111.058      115.578       11.452       80.154       85.637       61.965     6424.620     7333.750     3839.707        2.171        0.880      160.288       53.632        0.112      345.901       23.760      862.105
09/05/2014  11:39:00       29.582       42.262       44.309       43.578       40.006       45.056     1899.038     1600.458     2030.059        0.508        0.276       51.587       23.871        0.214      346.491       24.776      862.102
09/05/2014  11:40:00      126.096     -103.726       24.091      100.600       88.971       57.124    10120.459     7915.888     3263.106        2.427        1.065      163.277       60.362        0.137      345.982       23.899      862.097
09/05/2014  11:41:00       77.649      -28.795       29.681       66.954      103.339       46.222     4482.827    10679.051     2136.433        1.252        0.865       82.817       45.945        0.308      346.202       24.279      862.093
09/05/2014  11:42:00       -3.488       54.323       83.411       30.441       51.632       29.122      926.679     2665.875      848.096        0.718        0.222       54.435       26.624        0.239      346.663       25.074      862.093
09/05/2014  11:43:00       85.765       86.617       37.901       94.199       41.615       48.103     8873.448     1731.772     2313.943        1.460        0.646      121.893       22.486        0.034      346.192       24.261      862.087
09/05/2014  11:44:00      111.320       92.118       91.882      102.517       73.623       72.324    10509.789     5420.420     5230.802        2.524        1.058      144.492       50.247        0.121      346.085       24.077      862.078
09/05/2014  11:45:00      127.784      155.386      122.755      107.548       64.553       63.124    11566.594     4167.085     3984.698        3.763        0.986      201.180       68.798        0.117      345.986       23.906      862.075
09/05/2014  11:46:00       67.347      -31.870       47.338       75.803       96.168       62.183     5746.101     9248.351     3866.783        1.332        0.943       74.508       64.199        0.742      345.924       23.801      862.100
09/05/2014  11:47:00       30.710        3.479       61.803       50.865      129.890       74.077     2587.294    16871.356     5487.451        1.486        1.247       30.907       97.077        9.866      345.970       23.881      862.073
09/05/2014  11:48:00       32.662       33.772       70.535       37.499       48.139       30.165     1406.151     2317.344      909.914        0.591        0.232       46.983       33.351        0.504      346.129       24.155      862.061
09/05/2014  11:49:00        4.059     -122.658       -3.541       66.129       64.104       40.028     4373.020     4109.268     1602.214        1.258        0.504      122.726       30.462        0.062      345.889       23.741      862.037
09/05/2014  11:50:00        4.944      -85.723        0.671       44.701       64.059       52.551     1998.153     4103.619     2761.648        0.812        0.443       85.865       49.323        0.330      346.151       24.192      862.015
09/05/2014  11:51:00        7.870       24.186       73.207       40.735       42.258       38.452     1659.325     1785.726     1478.535        0.546        0.246       25.434       34.268        1.815      346.485       24.766      862.004
09/05/2014  11:52:00       37.317      -25.879        9.187       37.780       60.325       30.922     1427.325     3639.137      956.179        0.408        0.301       45.413       11.682        0.066      345.624       23.286      861.981
09/05/2014  11:53:00       12.713        6.632       26.991       17.422       20.253       14.270      303.511      410.190      203.645        0.093        0.046       14.339       13.136        0.839      346.593       24.952      861.966
09/05/2014  11:54:00      -45.237      -55.670        6.905       51.125       43.064       37.183     2613.781     1854.538     1382.589        0.552        0.293       71.733       17.594        0.060      346.407       24.632      861.940
09/05/2014  11:55:00      -20.773      -58.476       18.664       51.723       59.104       30.452     2675.239     3493.311      927.320        0.565        0.355       62.056       14.123        0.052      346.260       24.380      861.951
09/05/2014  11:56:00       50.348     -106.890       15.041       69.643       68.742       42.694     4850.216     4725.417     1822.749        1.279        0.570      118.154       46.432        0.154      346.501       24.793      861.935
09/05/2014  11:57:00       12.119       25.577       86.917       46.260       88.952       59.045     2140.031     7912.418     3486.290        1.094        0.677       28.303       57.214        4.086      346.500       24.793      861.921
09/05/2014  11:58:00      137.162      119.708       62.593       87.545       49.214       71.419     7664.145     2422.040     5100.648        2.612        0.759      182.053       60.646        0.111      345.820       23.622      861.925
09/05/2014  11:59:00      154.479       81.377       10.718       58.713       35.738       39.518     3447.233     1277.233     1561.691        1.844        0.314      174.603       20.943        0.014      345.700       23.417      861.911
09/05/2014  12:00:00      171.319      101.078       28.486       89.252       58.412       58.247     7965.975     3411.945     3392.769        2.757        0.739      198.914       40.084        0.041      346.080       24.068      861.899
09/05/2014  12:01:00      124.402       76.329       77.660       71.720       91.848       74.707     5143.806     8436.025     5581.136        2.324        0.958      145.952       67.564        0.214      345.834       23.645      861.900
09/05/2014  12:02:00      171.681      122.465       10.339       58.451       43.486       44.428     3416.513     1891.051     1973.845        2.593        0.364      210.884       26.424        0.016      345.518       23.104      861.898
09/05/2014  12:03:00      144.023       87.677       22.259       70.626       56.562       50.431     4987.977     3199.207     2543.279        1.983        0.537      168.612       38.448        0.052      345.790       23.573      861.888
09/05/2014  12:04:00       59.879       28.614       42.790       88.588       89.194       51.393     7847.883     7955.532     2641.284        1.234        0.922       66.364       50.944        0.589      345.922       23.798      861.866
09/05/2014  12:05:00       43.548       71.251       22.408       40.249       35.928       38.825     1619.991     1290.816     1507.403        0.595        0.221       83.505       20.530        0.060      346.023       23.973      861.871
09/05/2014  12:06:00        1.967      144.737      -10.566       55.575       62.615       36.852     3088.606     3920.582     1358.078        1.471        0.418      144.750       30.062        0.043      346.295       24.438      861.878
09/05/2014  12:07:00       -9.409      117.155       -7.086       44.081       74.597       39.270     1943.095     5564.686     1542.157        1.146        0.452      117.532       45.978        0.153      346.259       24.380      861.875
09/05/2014  12:08:00       50.916       88.154       12.005       50.355       74.921       47.747     2535.592     5613.151     2279.759        1.047        0.521      101.801       43.645        0.184      346.086       24.080      861.886
09/05/2014  12:09:00       59.980       66.011       27.454       67.083       40.539       42.918     4500.137     1643.451     1841.925        0.835        0.399       89.191       37.480        0.177      346.029       23.982      861.861
09/05/2014  12:10:00       -3.508        8.951       20.254       31.619       49.170       24.303      999.746     2417.683      590.644        0.225        0.200        9.613       16.003        2.771      346.960       25.585      861.869
09/05/2014  12:11:00       85.634       -2.884       62.058      111.341       92.615       57.245    12396.790     8577.607     3276.964        1.772        1.213       85.683       52.246        0.372      346.586       24.940      861.849
09/05/2014  12:12:00       51.638        7.575       85.043       79.255       97.420       68.115     6281.418     9490.724     4639.605        1.518        1.021       52.190       63.562        1.483      346.608       24.978      861.847
09/05/2014  12:13:00      143.552     -121.088       11.039       77.999       84.686       58.823     6083.870     7171.700     3460.193        2.605        0.836      187.802       55.061        0.086      346.030       23.983      861.849
09/05/2014  12:14:00       22.140       27.020       83.614       67.975      103.842       62.227     4620.538    10783.077     3872.216        1.374        0.964       34.932       62.927        3.245      346.721       25.171      861.830
09/05/2014  12:15:00       20.194       28.219       54.197       53.579       60.685       48.823     2870.669     3682.634     2383.643        0.654        0.447       34.700       30.743        0.785      346.589       24.945      861.845
09/05/2014  12:16:00       37.823       -1.741       -0.347       43.272       71.287       31.529     1872.445     5081.852      994.054        0.469        0.397       37.863       30.100        0.632      346.375       24.577      861.849
09/05/2014  12:17:00       69.563        7.755       46.488       73.526       91.677       69.352     5406.134     8404.745     4809.644        1.284        0.931       69.994       66.814        0.911      346.370       24.567      861.833
09/05/2014  12:18:00       54.978       49.251       90.101       69.842       85.641       54.612     4877.943     7334.324     2982.429        1.438        0.760       73.812       60.728        0.677      346.335       24.507      861.829
09/05/2014  12:19:00      106.370     -140.100       -3.310       61.888       59.678       47.472     3830.149     3561.413     2253.547        2.030        0.482      175.905       39.808        0.051      346.118       24.133      861.822
09/05/2014  12:20:00       85.855      -87.497       19.106       89.145      111.940       62.652     7946.747    12530.540     3925.331        1.989        1.220      122.584       80.069        0.427      346.386       24.594      861.806
09/05/2014  12:21:00       38.062     -133.670      -37.357       48.627       61.282       32.052     2364.616     3755.460     1027.328        1.393        0.357      138.984       26.638        0.037      346.178       24.237      861.794
09/05/2014  12:22:00      139.815     -156.573       -2.447      104.025      139.913       83.900    10821.142    19575.765     7039.137        4.075        1.872      209.912       92.051        0.192      346.147       24.183      861.755
09/05/2014  12:23:00      127.938     -148.999      -21.999       64.347       77.323       53.047     4140.483     5978.771     2814.013        2.599        0.647      196.390       39.984        0.041      346.110       24.120      861.760
09/05/2014  12:24:00      138.902     -168.680       -4.358       61.312       60.492       34.073     3759.108     3659.293     1160.948        2.817        0.429      218.510       34.903        0.026      345.816       23.613      861.753
09/05/2014  12:25:00       62.946      -78.182        9.058       51.460       78.760       52.496     2648.109     6203.193     2755.856        1.088        0.580      100.372       53.532        0.284      346.477       24.753      861.737
09/05/2014  12:26:00       23.393       34.256       50.739       40.632       38.513       41.345     1650.947     1483.262     1709.391        0.457        0.242       41.481       21.395        0.266      346.510       24.810      861.724
09/05/2014  12:27:00      -11.459        3.127        8.703       16.208       23.580       23.207      262.710      556.002      538.552        0.079        0.068       11.878       10.764        0.821      346.946       25.561      861.685
09/05/2014  12:28:00       -1.135       22.737       -1.614       43.427       54.355       25.502     1885.890     2954.433      650.377        0.300        0.275       22.765       27.249        1.433      346.794       25.299      861.678
09/05/2014  12:29:00      -28.809      155.921      -30.990       43.068       57.051       30.268     1854.851     3254.861      916.142        1.606        0.301      158.560       27.669        0.030      346.037       23.996      861.668
09/05/2014  12:30:00      -59.031       42.634       -8.898       34.997       64.682       31.159     1224.810     4183.797      970.907        0.588        0.319       72.817       21.726        0.089      346.080       24.072      861.642
09/05/2014  12:31:00       16.461      -25.024       14.973       56.387       58.411       28.682     3179.520     3411.834      822.629        0.427        0.371       29.953       12.146        0.164      346.390       24.604      861.610
09/05/2014  12:32:00       65.146       65.623       76.539       87.665       78.259       61.407     7685.234     6124.452     3770.770        1.599        0.879       92.468       52.708        0.325      346.577       24.924      861.589
09/05/2014  12:33:00       82.223      106.730       78.879       99.556       56.311       74.507     9911.319     3170.917     5551.314        2.150        0.932      134.729       71.818        0.284      346.678       25.097      861.564
09/05/2014  12:34:00       45.415       79.455       23.637       85.487       77.162       42.995     7308.017     5953.917     1848.557        1.202        0.756       91.519       34.393        0.141      346.906       25.490      861.552
09/05/2014  12:35:00       71.084      114.594        7.580       74.714      109.590       64.276     5582.118    12009.904     4131.457        1.998        1.086      134.851       62.682        0.216      346.635       25.023      861.555
09/05/2014  12:36:00       66.991      147.958       -7.985       71.629      104.560       71.430     5130.672    10932.713     5102.228        2.380        1.058      162.418       70.057        0.186      346.443       24.692      861.555
09/05/2014  12:37:00      115.079      116.560        9.032      121.161       77.595       67.324    14679.966     6020.955     4532.520        2.607        1.262      163.797       47.667        0.085      346.451       24.705      861.542
09/05/2014  12:38:00      122.161       89.829       21.961       57.120       57.265       42.373     3262.751     3279.256     1795.457        1.590        0.417      151.633       18.034        0.014      346.309       24.463      861.530
09/05/2014  12:39:00       88.193       82.803        2.925       63.785       60.005       38.968     4068.464     3600.596     1518.491        1.191        0.459      120.973       36.964        0.093      346.525       24.835      861.523
09/05/2014  12:40:00      252.426      150.371       37.309      138.493       88.354       62.456    19180.414     7806.398     3900.813        5.930        1.544      293.820       20.941        0.005      346.543       24.864      861.507
09/05/2014  12:41:00      239.380      180.183       26.337       78.218       58.742       66.178     6118.002     3450.655     4379.554        5.220        0.697      299.615       32.653        0.012      346.098       24.095      861.519
09/05/2014  12:42:00      102.831       62.489       -8.159       64.087       42.120       33.071     4107.138     1774.054     1093.709        1.076        0.349      120.330        9.715        0.007      346.249       24.360      861.511
09/05/2014  12:43:00       34.188       58.849        1.441       46.359       73.031       33.891     2149.114     5333.489     1148.581        0.663        0.432       68.059       38.163        0.314      346.857       25.407      861.484
09/05/2014  12:44:00       22.279      133.082      -15.182       43.683       87.960       37.603     1908.240     7737.037     1413.964        1.475        0.553      134.934       46.437        0.118      346.543       24.866      861.490
09/05/2014  12:45:00      -46.027       86.506       -4.755       62.657       53.506       35.538     3925.874     2862.856     1262.930        0.884        0.403       97.988       22.404        0.052      346.635       25.026      861.475
09/05/2014  12:46:00      -32.201       95.770      -18.194       63.058       62.670       37.337     3976.265     3927.481     1394.079        0.992        0.465      101.039       35.377        0.123      346.599       24.963      861.460
09/05/2014  12:47:00      -33.959        3.713      -16.829       39.307       42.164       23.865     1545.051     1777.795      569.536        0.267        0.195       34.162       16.938        0.246      346.809       25.323      861.445
09/05/2014  12:48:00       -0.221      -26.171      -13.992       24.627       52.299       27.203      606.498     2735.172      739.984        0.248        0.204       26.172       20.908        0.638      347.141       25.896      861.439
09/05/2014  12:49:00       77.621      -72.577       14.826       72.213       52.913       44.294     5214.715     2799.824     1961.925        1.074        0.499      106.266       41.084        0.149      346.776       25.266      861.432
09/05/2014  12:50:00       77.535      -55.902       28.444       70.737       73.588       46.669     5003.688     5415.156     2177.959        1.127        0.630       95.587       51.872        0.294      346.714       25.159      861.423
09/05/2014  12:51:00       84.987      -50.247       33.883       73.362      108.835       72.399     5381.960    11845.039     5241.616        1.668        1.123       98.729       72.788        0.544      346.906       25.490      861.402
09/05/2014  12:52:00       24.725        4.725       51.226       41.105       38.377       27.903     1689.593     1472.776      778.602        0.360        0.197       25.173       17.447        0.480      347.170       25.946      861.399
09/05/2014  12:53:00       98.339      125.709        2.410      115.527      117.611       64.064    13346.390    13832.275     4104.203        2.838        1.564      159.604       59.399        0.139      346.805       25.317      861.394
09/05/2014  12:54:00      122.639      164.596        7.542      121.153      117.602       88.477    14678.032    13830.321     7828.232        3.926        1.817      205.262       76.252        0.138      346.990       25.633      861.377
09/05/2014  12:55:00       33.402      188.139      -24.352       82.944       75.886       33.729     6879.655     5758.716     1137.650        2.544        0.689      191.081       32.621        0.029      346.303       24.451      861.399
09/05/2014  12:56:00        0.973       94.267        7.957       33.773       74.473       36.791     1140.613     5546.218     1353.609        0.849        0.402       94.272       40.194        0.182      347.024       25.695      861.369
09/05/2014  12:57:00      -41.412       37.859        0.172       39.553       28.815       26.265     1564.458      830.296      689.875        0.312        0.154       56.110       24.229        0.186      346.915       25.507      861.349
09/05/2014  12:58:00       14.356      233.179      -24.769       84.966      124.809       63.253     7219.248    15577.227     4000.971        4.099        1.340      233.621       51.203        0.048      347.016       25.678      861.333
09/05/2014  12:59:00       86.913       17.918       15.950       66.169       85.441       53.214     4378.381     7300.224     2831.747        1.132        0.726       88.741       36.883        0.173      347.283       26.140      861.342
09/05/2014  13:00:00       90.670      -16.047       27.561       73.319       97.452       51.904     5375.644     9496.822     2694.029        1.340        0.878       92.079       40.679        0.195      347.103       25.830      861.329
09/05/2014  13:01:00       94.406       45.719       13.066       69.083       44.796       47.925     4772.506     2006.655     2296.762        1.012        0.454      104.894       14.714        0.020      347.211       26.016      861.339
09/05/2014  13:02:00       51.985       54.696       66.161       75.410       71.979       48.324     5686.722     5181.034     2335.177        1.163        0.660       75.459       39.772        0.278      347.383       26.312      861.319
09/05/2014  13:03:00      106.754      140.819        5.965       93.981       92.904       76.760     8832.335     8631.085     5892.056        2.730        1.168      176.710       64.405        0.133      346.982       25.618      861.330
09/05/2014  13:04:00      157.574      112.213       44.802       99.896       57.919       54.133     9979.163     3354.634     2930.411        2.784        0.813      193.446       27.149        0.020      346.797       25.299      861.316
09/05/2014  13:05:00      251.902      150.456       22.727      132.735       99.945       61.581    17618.704     9988.973     3792.210        5.900        1.570      293.414       54.388        0.034      346.860       25.409      861.301
09/05/2014  13:06:00      135.336       89.325        2.423      108.046       98.571       53.975    11673.871     9716.281     2913.352        2.530        1.215      162.157       25.659        0.025      346.493       24.779      861.316
09/05/2014  13:07:00        7.694       99.247       -5.926       37.710       95.726       34.495     1422.058     9163.389     1189.908        1.086        0.589       99.545       42.020        0.178      346.982       25.621      861.285
09/05/2014  13:08:00      118.009      138.606       10.054       89.419       74.863       54.768     7995.738     5604.442     2999.479        2.492        0.830      182.038       45.048        0.061      346.909       25.494      861.281
09/05/2014  13:09:00       66.963       96.209       37.915       95.186       80.205       57.043     9060.430     6432.828     3253.877        1.696        0.937      117.218       48.694        0.173      347.208       26.010      861.276
09/05/2014  13:10:00       54.654       65.228       15.384       45.645       61.448       41.139     2083.425     3775.892     1692.434        0.751        0.378       85.098       28.155        0.109      347.361       26.275      861.266
09/05/2014  13:11:00       65.185       69.746       16.407       96.176       85.784       53.220     9249.877     7358.933     2832.381        1.441        0.972       95.465       49.670        0.271      347.400       26.341      861.275
09/05/2014  13:12:00      214.621      145.517      116.038      146.022      112.750      108.782    21322.543    12712.462    11833.468        6.328        2.293      259.302       93.683        0.131      346.914       25.501      861.260
09/05/2014  13:13:00      220.452      140.997       30.146       93.100       77.083       58.233     8667.636     5941.859     3391.040        4.369        0.900      261.686       25.337        0.009      347.060       25.753      861.250
09/05/2014  13:14:00      155.928      207.340        0.860      117.022       80.112       66.911    13694.134     6417.863     4477.039        4.594        1.229      259.429       51.980        0.040      346.956       25.573      861.262
09/05/2014  13:15:00       63.035      173.337      -15.292       71.766       95.815       57.873     5150.290     9180.428     3349.286        2.596        0.884      184.443       54.009        0.086      346.961       25.585      861.251
09/05/2014  13:16:00       84.085      102.940       18.821       99.340       77.379       61.799     9868.414     5987.545     3819.105        1.884        0.984      132.917       41.726        0.099      347.071       25.775      861.238
09/05/2014  13:17:00      100.366      154.591        8.932       97.019      105.171       76.737     9412.743    11060.892     5888.608        3.020        1.318      184.314       68.672        0.139      346.965       25.590      861.218
09/05/2014  13:18:00       81.419       62.776       36.755       76.674       57.228       67.270     5878.830     3275.035     4525.298        1.280        0.684      102.810       18.094        0.031      347.258       26.096      861.196
09/05/2014  13:19:00      182.409      191.053      184.970      119.364      104.505      108.142    14247.742    10921.399    11694.728        7.042        1.843      264.148       76.032        0.083      346.926       25.521      861.199
09/05/2014  13:20:00       72.933      121.876      157.669      100.086       91.905       62.822    10017.113     8446.574     3946.591        3.372        1.121      142.032       64.160        0.204      347.128       25.869      861.177
09/05/2014  13:21:00      196.227      142.198      103.288      116.752      108.966      101.612    13630.948    11873.679    10324.940        5.261        1.791      242.333       79.688        0.108      347.140       25.891      861.167
09/05/2014  13:22:00      138.345       67.719       39.357       84.643       67.593       47.044     7164.493     4568.815     2213.181        1.961        0.697      154.030       43.103        0.078      347.023       25.689      861.172
09/05/2014  13:23:00       40.432       69.539       79.918       58.244       76.269       62.140     3392.314     5816.900     3861.371        1.296        0.654       80.439       53.573        0.444      347.553       26.607      861.162
09/05/2014  13:24:00      203.426      175.289      147.646      168.630      141.447      114.699    28435.935    20007.115    13155.919        7.774        3.080      268.530      102.403        0.145      347.121       25.858      861.161
09/05/2014  13:25:00      105.289       46.924      109.378      101.655      123.348       81.744    10333.785    15214.718     6682.054        2.874        1.612      115.273       89.770        0.606      347.059       25.751      861.185
09/05/2014  13:26:00      129.416      100.266       65.752      108.012       74.825       72.638    11666.555     5598.823     5276.349        2.683        1.127      163.713       60.122        0.135      347.338       26.231      861.171
09/05/2014  13:27:00      176.879      141.754       18.093       79.178       62.491       63.587     6269.185     3905.120     4043.251        3.296        0.711      226.672       21.158        0.009      347.087       25.801      861.176
09/05/2014  13:28:00      151.794       65.374       41.803       94.295       75.928       40.537     8891.607     5765.020     1643.246        2.268        0.815      165.273       41.633        0.063      346.815       25.331      861.174
09/05/2014  13:29:00       17.128       44.276       39.792       41.409       40.874       51.619     1714.667     1670.644     2664.511        0.494        0.302       47.473       35.938        0.573      347.170       25.947      861.132
09/05/2014  13:30:00       16.771      -67.049        5.588       31.981       63.262       24.073     1022.805     4002.050      579.493        0.521        0.280       69.115       20.584        0.089      346.794       25.298      861.118
09/05/2014  13:31:00       27.758        4.955       27.692       45.778       36.555       36.625     2095.616     1336.280     1341.382        0.317        0.239       28.197       23.026        0.667      347.429       26.391      861.097
09/05/2014  13:32:00       47.662       46.154       47.897       63.879       42.099       45.156     4080.465     1772.284     2039.083        0.729        0.395       66.347       27.846        0.176      347.615       26.712      861.094
09/05/2014  13:33:00      110.777       81.313        4.485       91.322       50.436       51.528     8339.633     2543.815     2655.123        1.622        0.677      137.417       38.781        0.080      347.234       26.054      861.076
09/05/2014  13:34:00       84.291       88.017       51.571       52.877       63.384       44.767     2795.986     4017.562     2004.105        1.316        0.441      121.869       35.159        0.083      347.185       25.970      861.068
09/05/2014  13:35:00       66.360       69.841      102.423      109.930       96.105       85.329    12084.547     9236.110     7281.085        2.418        1.430       96.340       76.748        0.635      347.589       26.667      861.030
09/05/2014  13:36:00      101.772        3.462       79.313      105.269      120.601       75.205    11081.561    14544.708     5655.817        2.397        1.564      101.831       75.061        0.543      347.566       26.627      861.014
09/05/2014  13:37:00       61.325        9.190       74.504       96.324      134.361       76.843     9278.292    18052.983     5904.818        2.131        1.662       62.010       91.206        2.163      347.671       26.807      861.018
09/05/2014  13:38:00      162.619      107.601      102.517      132.207      108.474       79.617    17478.561    11766.565     6338.906        4.205        1.779      194.994       66.738        0.117      347.526       26.557      861.026
09/05/2014  13:39:00      223.682      130.794       69.728      117.620       83.076      107.059    13834.563     6901.594    11461.684        5.209        1.610      259.115       81.146        0.098      347.344       26.241      861.006
09/05/2014  13:40:00      211.861      136.561       71.323      122.287       84.276       70.983    14954.112     7102.388     5038.531        4.785        1.355      252.060       62.594        0.062      347.184       25.966      861.006
09/05/2014  13:41:00       75.263      120.778      118.800       69.813       83.959       74.742     4873.830     7049.144     5586.346        2.593        0.875      142.310       60.360        0.180      347.640       26.754      861.014
09/05/2014  13:42:00       90.108       70.801       78.128       94.776       87.921       69.554     8982.443     7730.110     4837.771        2.039        1.078      114.596       60.567        0.279      347.245       26.073      861.038
09/05/2014  13:43:00       69.902      -92.898       -0.398       31.120       52.985       33.503      968.473     2807.389     1122.446        0.921        0.245      116.260       28.540        0.060      346.797       25.304      861.012
09/05/2014  13:44:00       23.719      -60.080       14.118       37.643       36.759       25.201     1416.965     1351.249      635.082        0.389        0.170       64.593       12.410        0.037      346.936       25.541      860.988
09/05/2014  13:45:00      126.192       89.783       75.355       96.572       79.224       62.050     9326.083     6276.462     3850.224        2.455        0.973      154.872       62.100        0.161      347.095       25.813      860.977
09/05/2014  13:46:00      278.121      184.562       84.025      120.206       62.864       71.295    14449.480     3951.870     5083.016        7.098        1.174      333.788       65.044        0.038      347.088       25.799      860.965
09/05/2014  13:47:00      303.682      202.142       29.044      144.205      109.078       75.206    20795.196    11898.069     5655.902        8.613        1.917      364.806       46.586        0.016      346.968       25.594      860.955
09/05/2014  13:48:00      164.140      109.776       29.843      112.335       75.220       58.397    12619.218     5658.061     3410.268        3.078        1.084      197.466       26.576        0.018      347.251       26.083      860.949
09/05/2014  13:49:00      105.444       90.428       16.123       86.711       56.273       59.294     7518.857     3166.696     3515.776        1.688        0.710      138.909       36.879        0.070      347.401       26.343      860.933
09/05/2014  13:50:00      139.102      108.866       15.421       85.442       50.853       44.528     7300.353     2586.037     1982.750        2.165        0.593      176.639       28.171        0.025      347.099       25.822      860.934
09/05/2014  13:51:00      132.934       99.283       29.240       62.599       49.298       41.563     3918.662     2430.267     1727.512        1.823        0.404      165.917       30.411        0.034      347.046       25.731      860.931
09/05/2014  13:52:00       65.822       83.718        8.274       81.414       75.639       48.787     6628.294     5721.264     2380.158        1.307        0.736      106.496       44.181        0.172      347.208       26.010      860.921
09/05/2014  13:53:00       21.701       55.367       10.674       50.710       45.173       35.732     2571.543     2040.564     1276.773        0.477        0.294       59.468       30.793        0.268      347.523       26.554      860.919
09/05/2014  13:54:00       61.409       65.829       13.415       43.497       47.024       29.844     1891.979     2211.273      890.642        0.664        0.250       90.026       20.159        0.050      347.183       25.969      860.908
09/05/2014  13:55:00      115.486       62.041       48.425       86.998       54.380       54.412     7568.721     2957.154     2960.688        1.651        0.674      131.096       33.961        0.067      347.412       26.362      860.901
09/05/2014  13:56:00      155.530       63.709       38.845      111.436       80.333       64.367    12417.959     6453.410     4143.148        2.638        1.151      168.072       47.187        0.079      347.423       26.379      860.877
09/05/2014  13:57:00      192.691       99.326       36.126       88.882       55.336       62.968     7900.010     3062.076     3964.943        3.161        0.746      216.785       32.672        0.023      347.071       25.773      860.862
09/05/2014  13:58:00       57.233        1.773       42.210       57.107       92.622       45.722     3261.262     8578.785     2090.526        0.949        0.697       57.261       41.995        0.538      347.463       26.452      860.836
09/05/2014  13:59:00       81.940     -122.430      -12.874       51.610       73.971       43.947     2663.642     5471.636     1931.297        1.597        0.503      147.320       32.796        0.050      347.430       26.392      860.833
09/05/2014  14:00:00       -1.415        0.804       75.220       41.522      105.300       48.694     1724.052    11088.013     2371.104        1.042        0.759        1.627       58.828     1306.859      347.572       26.639      860.831
09/05/2014  14:01:00       66.886      -74.504        9.196       60.734       92.036       40.553     3688.655     8470.597     1644.538        1.195        0.690      100.122       44.673        0.199      347.355       26.263      860.815
09/05/2014  14:02:00      239.039      142.801       48.769      120.647       99.026       84.935    14555.647     9806.165     7213.873        5.574        1.579      278.445       63.777        0.052      347.540       26.580      860.800
09/05/2014  14:03:00      328.982      184.938       81.733      124.762      112.289       86.146    15565.635    12608.801     7421.065        9.235        1.780      377.401       73.065        0.037      347.459       26.439      860.793
09/05/2014  14:04:00      108.851       29.537       11.743      116.807       88.523       57.840    13643.989     7836.279     3345.502        1.884        1.241      112.787       58.479        0.269      347.595       26.677      860.811
09/05/2014  14:05:00       35.139       28.111       39.111       78.231       63.175       40.201     6120.044     3991.040     1616.092        0.764        0.586       45.000       27.506        0.374      347.783       27.002      860.795
09/05/2014  14:06:00       49.366       79.725       70.199       60.166       43.091       50.964     3619.967     1856.802     2597.336        1.090        0.404       93.771       28.560        0.093      347.794       27.021      860.777
09/05/2014  14:07:00      149.329       64.547       39.151       66.040       72.479       63.983     4361.292     5253.225     4093.874        2.085        0.685      162.682       56.264        0.120      347.010       25.669      860.780
09/05/2014  14:08:00        1.296      -17.408        5.538       48.901       32.649       32.366     2391.346     1065.967     1047.544        0.242        0.225       17.456       30.279        3.009      347.272       26.122      860.752
09/05/2014  14:09:00       52.251       39.299       27.051       51.728       66.891       37.298     2675.787     4474.400     1391.129        0.677        0.427       65.380       20.727        0.101      347.749       26.943      860.746
09/05/2014  14:10:00       63.597       68.465       68.095       58.048       50.548       54.163     3369.553     2555.096     2933.672        1.111        0.443       93.446       38.683        0.171      347.597       26.681      860.749
09/05/2014  14:11:00      127.405      207.046       -8.448      191.297      109.383       89.436    36594.467    11964.592     7998.805        5.786        2.828      243.105       71.822        0.087      347.523       26.550      860.728
09/05/2014  14:12:00      174.319      214.087       14.653      201.742      206.386      106.243    40699.814    42595.353    11287.607        8.549        4.729      276.080      102.131        0.137      347.864       27.140      860.653
09/05/2014  14:13:00      195.422      175.627      160.851      178.351      135.926      103.124    31808.932    18475.825    10634.637        7.790        3.046      262.744       93.133        0.126      347.754       26.949      860.693
09/05/2014  14:14:00      292.601      154.867       52.856      133.767      120.215       84.716    17893.530    14451.557     7176.747        7.595        1.976      331.058       68.532        0.043      347.597       26.678      860.723
09/05/2014  14:15:00      233.752      140.446       62.011      143.231      105.959      103.201    20515.095    11227.277    10650.392        6.029        2.120      272.699       78.559        0.083      347.473       26.464      860.745
09/05/2014  14:16:00      198.227      154.488       71.863      130.476       94.896       91.770    17023.869     9005.306     8421.668        5.138        1.723      251.317       64.551        0.066      347.502       26.514      860.739
09/05/2014  14:17:00      219.417      140.635       41.063      118.536      106.649       80.419    14050.691    11374.004     6467.217        5.074        1.595      260.619       41.576        0.025      347.278       26.129      860.726
09/05/2014  14:18:00       85.197       57.579       82.294       86.186       76.152       56.229     7427.965     5799.081     3161.656        1.686        0.819      102.830       45.676        0.197      347.644       26.762      860.695
09/05/2014  14:19:00       91.099       87.328      108.440      104.771       94.730       58.347    10976.919     8973.707     3404.424        2.552        1.168      126.195       53.394        0.179      347.803       27.036      860.689
09/05/2014  14:20:00      132.956      119.793      113.578      121.540       82.741       83.395    14772.055     6846.011     6954.741        3.675        1.429      178.963       69.617        0.151      347.797       27.024      860.687
09/05/2014  14:21:00      159.271      112.672       94.744      110.836       90.299       74.483    12284.561     8153.892     5547.678        3.651        1.299      195.096       57.690        0.087      347.680       26.822      860.707
09/05/2014  14:22:00      162.832      147.996      131.874      115.239      123.423      116.055    13279.964    15233.318    13468.859        5.389        2.099      220.039      100.664        0.209      347.462       26.446      860.722
09/05/2014  14:23:00       -0.323      -17.971       19.500       33.515       26.225       33.924     1123.281      687.730     1150.837        0.183        0.148       17.974       27.045        2.264      347.452       26.432      860.707
09/05/2014  14:24:00       59.713      -26.788       48.019       76.097      112.067       63.462     5790.698    12559.084     4027.489        1.448        1.119       65.447       65.678        1.007      347.685       26.832      860.693
09/05/2014  14:25:00      -73.025     -126.396      -18.376      138.115       94.197       35.465    19075.765     8872.991     1257.773        2.542        1.460      145.975       40.214        0.076      347.283       26.139      860.653
09/05/2014  14:26:00      -44.793      -70.053       25.715      113.657       62.043       50.387    12917.802     3849.330     2538.874        1.344        0.965       83.150       55.416        0.444      347.853       27.122      860.598
09/05/2014  14:27:00      -45.322      -34.392        9.732       85.319       47.757       37.691     7279.307     2280.684     1420.627        0.715        0.549       56.893       35.684        0.393      347.868       27.150      860.581
09/05/2014  14:28:00     -104.769      -80.516        8.211       85.903       67.056       35.987     7379.333     4496.514     1295.052        1.535        0.659      132.134       27.077        0.042      347.740       26.927      860.561
09/05/2014  14:29:00      -92.148     -103.825       -9.814       87.626       61.287       40.872     7678.232     3756.127     1670.537        1.623        0.655      138.820       18.429        0.018      347.559       26.615      860.540
09/05/2014  14:30:00     -143.684      -90.237       -8.485       54.034       46.643       27.584     2919.670     2175.605      760.862        1.736        0.293      169.670       31.286        0.034      347.387       26.317      860.532
09/05/2014  14:31:00     -115.642      -31.888       -0.714       38.627       33.993       23.695     1492.037     1155.524      561.473        0.880        0.160      119.958       17.864        0.022      347.397       26.337      860.530
09/05/2014  14:32:00     -133.649       17.492       -7.630       45.269       52.286       28.831     2049.267     2733.832      831.213        1.192        0.281      134.788       22.111        0.027      347.598       26.684      860.531
09/05/2014  14:33:00     -133.531      -66.137       -0.133       58.946       50.574       28.178     3474.659     2557.728      793.979        1.451        0.341      149.012       17.247        0.013      347.701       26.859      860.519
09/05/2014  14:34:00       -6.670      -33.861       11.663       33.901       29.013       28.828     1149.285      841.733      831.051        0.207        0.141       34.512        5.768        0.028      348.125       27.593      860.532
09/05/2014  14:35:00      -46.365       -9.694        6.238       37.115       81.257       24.126     1377.516     6602.663      582.076        0.542        0.428       47.368       20.279        0.183      347.556       26.611      860.516
09/05/2014  14:36:00       54.772       71.316       20.127       79.262       67.582       58.317     6282.463     4567.304     3400.912        1.137        0.713       89.922       45.507        0.256      347.920       27.239      860.501
09/05/2014  14:37:00      190.523      120.498       45.479      113.121       70.907       63.078    12796.332     5027.817     3978.785        3.734        1.090      225.430       15.995        0.005      347.703       26.862      860.485
09/05/2014  14:38:00       64.383       47.222       41.080       75.717       69.489       43.408     5733.137     4828.717     1884.262        1.025        0.622       79.844       37.039        0.215      348.181       27.689      860.475
09/05/2014  14:39:00      220.078      148.939       96.321      159.839       96.943       86.200    25548.648     9397.918     7430.478        6.113        2.119      265.739       77.900        0.086      347.988       27.353      860.469
09/05/2014  14:40:00      188.372       41.619       36.400      138.452       95.179       67.635    19168.885     9059.133     4574.523        3.567        1.640      192.915       59.995        0.097      348.107       27.560      860.454
09/05/2014  14:41:00      162.498      163.493      142.371      139.341      120.736      106.957    19415.895    14577.252    11439.851        5.941        2.272      230.512       84.556        0.135      347.942       27.274      860.439
09/05/2014  14:42:00      149.412       92.388       30.218      109.582       89.361       71.583    12008.260     7985.367     5124.127        2.844        1.256      175.668       41.090        0.055      348.050       27.462      860.467
09/05/2014  14:43:00      174.123      111.938       47.505      106.144       79.138       64.063    11266.536     6262.763     4104.107        3.337        1.082      207.000       31.017        0.022      347.942       27.274      860.479
09/05/2014  14:44:00       44.206       56.854       76.824       66.209       59.017       52.172     4383.682     3482.975     2721.895        1.084        0.529       72.018       41.257        0.328      348.191       27.705      860.479
09/05/2014  14:45:00       47.626     -113.798      -12.276       76.254      109.952       38.579     5814.708    12089.403     1488.311        1.738        0.970      123.362       45.083        0.134      347.849       27.115      860.473
09/05/2014  14:46:00       58.690      -77.767       25.677       66.159      101.066       67.222     4377.031    10214.354     4518.735        1.463        0.956       97.429       77.803        0.638      347.736       26.920      860.439
09/05/2014  14:47:00       36.703       31.044       51.034       64.209       55.275       45.745     4122.748     3055.291     2092.590        0.709        0.464       48.071       41.996        0.763      348.076       27.508      860.428
09/05/2014  14:48:00       98.693       77.151       91.590       93.801       80.361       60.673     8798.658     6457.913     3681.190        2.151        0.947      125.270       54.098        0.186      348.085       27.523      860.425
09/05/2014  14:49:00       44.069      -70.426       19.889       87.948       87.893       44.123     7734.937     7725.160     1946.797        1.235        0.870       83.077       44.141        0.282      347.922       27.241      860.410
09/05/2014  14:50:00       59.663      -58.514       13.934       51.846       84.519       42.763     2688.055     7143.468     1828.645        0.942        0.583       83.568       24.319        0.085      347.961       27.310      860.392
09/05/2014  14:51:00       52.312       35.973       33.848       53.171       73.466       54.974     2827.144     5397.250     3022.150        0.821        0.562       63.487       48.457        0.583      347.825       27.073      860.362
09/05/2014  14:52:00       76.663       -0.328        0.146       47.886       48.173       38.863     2293.071     2320.592     1510.370        0.600        0.306       76.664       22.985        0.090      347.660       26.790      860.350
09/05/2014  14:53:00       18.588     -110.252       -7.037       41.164       35.903       29.563     1694.437     1288.995      873.979        0.820        0.193      111.808       15.924        0.020      347.908       27.218      860.333
09/05/2014  14:54:00       72.484      -80.262       26.337       59.625       75.808       39.619     3555.183     5746.808     1569.653        1.163        0.544      108.148       46.322        0.183      347.915       27.229      860.306
09/05/2014  14:55:00       36.337       74.176       58.187       63.750       38.975       55.555     4064.044     1519.059     3086.332        0.944        0.433       82.598       49.208        0.355      348.051       27.464      860.294
09/05/2014  14:56:00       96.271       92.560       12.302       73.984       66.639       51.410     5473.679     4440.819     2642.964        1.527        0.628      133.550       43.338        0.105      347.903       27.208      860.320
09/05/2014  14:57:00      206.473      131.156       42.824      144.606       95.183       77.488    20910.802     9059.890     6004.337        4.881        1.799      244.608       37.866        0.024      347.888       27.181      860.293
09/05/2014  14:58:00      169.393      162.270       30.649      121.484       99.928       73.484    14758.465     9985.590     5399.857        4.305        1.507      234.575       53.197        0.051      347.851       27.115      860.270
09/05/2014  14:59:00       82.786      224.528      -13.840       93.628      134.585       81.804     8766.214    18113.043     6691.917        4.551        1.679      239.304       79.867        0.111      347.782       26.997      860.258
09/05/2014  15:00:00       33.265      172.920       14.916      114.234      127.402       72.744    13049.314    16231.319     5291.706        3.290        1.729      176.091       72.377        0.169      347.964       27.313      860.244
09/05/2014  15:01:00       71.828      261.614      -19.039       95.307      158.404       80.602     9083.424    25091.850     6496.664        5.731        2.034      271.295       93.033        0.118      347.855       27.125      860.223
09/05/2014  15:02:00      259.275      113.923       34.417      144.592       94.892       78.331    20906.854     9004.507     6135.727        5.871        1.802      283.200       25.405        0.008      348.139       27.611      860.223
09/05/2014  15:03:00      172.193      120.457        7.521      159.397      115.921       72.273    25407.511    13437.776     5223.378        4.414        2.203      210.144       35.747        0.029      348.067       27.490      860.231
09/05/2014  15:04:00      161.079      118.611       29.807      115.835       95.667       75.205    13417.641     9152.196     5655.777        3.456        1.411      200.038       55.897        0.078      348.062       27.481      860.233
09/05/2014  15:05:00      226.808      143.301       13.011      109.485       71.775       64.036    11986.953     5151.663     4100.551        4.669        1.062      268.286       35.114        0.017      347.788       27.009      860.228
09/05/2014  15:06:00      212.694      127.709       31.956       97.317       60.721       55.658     9470.604     3687.052     3097.776        3.941        0.813      248.089       17.597        0.005      347.820       27.063      860.210
09/05/2014  15:07:00       76.206       72.846       20.344       71.048       40.403       46.835     5047.875     1632.429     2193.516        1.020        0.444      105.422       27.660        0.069      347.969       27.322      860.176
09/05/2014  15:08:00      116.645       96.591       14.374       91.411       62.385       48.895     8356.001     3891.849     2390.684        1.889        0.732      151.446       34.317        0.051      347.873       27.155      860.157
09/05/2014  15:09:00      154.589      140.006        6.814      108.585       68.014       47.469    11790.613     4625.972     2253.305        3.110        0.933      208.566       17.002        0.007      347.989       27.355      860.147
09/05/2014  15:10:00      257.272      131.470       34.614      107.164       96.261       60.082    11484.029     9266.164     3609.842        5.451        1.218      288.918       48.008        0.028      348.151       27.634      860.148
09/05/2014  15:11:00      299.139      176.209       95.547      129.503      100.636       79.765    16771.156    10127.652     6362.487        8.146        1.663      347.180       54.447        0.025      348.034       27.431      860.161
09/05/2014  15:12:00      204.568      119.099       53.860       92.854       70.995       72.808     8621.935     5040.330     5300.957        3.895        0.948      236.712       27.006        0.013      347.943       27.274      860.160
09/05/2014  15:13:00       95.840       46.162       53.326      102.596       89.247       69.065    10525.892     7965.032     4770.004        1.871        1.163      106.378       51.896        0.238      348.083       27.518      860.133
09/05/2014  15:14:00      168.251      123.073       94.961      119.164      109.411       93.355    14199.956    11970.806     8715.188        4.367        1.744      208.460       67.963        0.106      347.870       27.150      860.127
09/05/2014  15:15:00      200.678      100.084       73.474      143.077       96.625       80.101    20471.089     9336.297     6416.140        4.595        1.811      224.251       61.906        0.076      348.029       27.424      860.102
09/05/2014  15:16:00      181.974        0.499       51.789      128.193      115.407       64.478    16433.479    13318.809     4157.401        3.485        1.695      181.975       58.339        0.103      347.955       27.297      860.076
09/05/2014  15:17:00      269.568      168.098      156.723      182.306      140.614      126.654    33235.610    19772.212    16041.141        9.726        3.452      317.685      102.161        0.103      347.961       27.307      859.992
09/05/2014  15:18:00      127.927      138.168      133.465      124.375      122.815      101.314    15469.096    15083.617    10264.523        4.704        2.041      188.296       75.991        0.163      348.184       27.691      860.017
09/05/2014  15:19:00      170.229       49.307       69.222      126.727       95.407       83.296    16059.681     9102.572     6938.214        3.415        1.605      177.226       68.593        0.150      347.943       27.276      860.034
09/05/2014  15:20:00      135.252      113.741      106.453       87.977       94.321       83.636     7740.030     8896.410     6994.939        3.309        1.182      176.720       67.441        0.146      347.759       26.958      860.033
09/05/2014  15:21:00      177.255       81.041       73.290       82.214       82.271       63.841     6759.198     6768.520     4075.683        3.048        0.880      194.903       51.127        0.069      347.862       27.136      860.028
09/05/2014  15:22:00      172.854       74.342       53.971      116.364       91.107       72.548    13540.608     8300.456     5263.179        3.271        1.355      188.163       58.128        0.095      348.053       27.466      859.997
09/05/2014  15:23:00      159.595      103.096       34.419       63.550       52.848       52.546     4038.630     2792.902     2761.115        2.344        0.480      189.998       14.695        0.006      348.078       27.509      860.008
09/05/2014  15:24:00       98.635       58.022       21.240       86.455       57.651       41.349     7474.506     3323.583     1709.781        1.303        0.625      114.435       30.887        0.073      348.165       27.660      860.009
09/05/2014  15:25:00      187.294      137.724       55.999       87.847       80.593       71.361     7717.067     6495.298     5092.428        3.824        0.965      232.480       26.885        0.013      347.879       27.166      860.013
09/05/2014  15:26:00      257.407      142.692       44.547      108.629       96.873       79.564    11800.255     9384.420     6330.401        5.805        1.376      294.312       38.866        0.017      347.926       27.244      859.982
09/05/2014  15:27:00      264.366      182.953       29.365      126.890       99.735       83.370    16101.125     9947.043     6950.569        6.861        1.650      321.498       59.003        0.034      347.847       27.109      859.964
09/05/2014  15:28:00      197.020      129.720       45.927      106.467       82.551       66.937    11335.214     6814.686     4480.549        4.019        1.132      235.890       55.636        0.056      347.969       27.321      859.976
09/05/2014  15:29:00      191.176      213.508        0.411      165.076      103.493       95.637    27250.053    10710.798     9146.457        6.461        2.355      286.591       69.981        0.060      347.846       27.107      859.978
09/05/2014  15:30:00       56.718      102.354       -6.219       80.178       99.004       55.648     6428.468     9801.822     3096.674        1.653        0.966      117.018       50.875        0.189      347.916       27.230      859.978
09/05/2014  15:31:00      162.131      117.108       19.307      100.076       70.823       67.960    10015.276     5015.851     4618.579        3.001        0.982      200.002       38.001        0.036      347.874       27.157      859.966
09/05/2014  15:32:00      251.082      145.398       39.928      145.995       89.487       74.177    21314.672     8007.948     5502.216        6.030        1.741      290.143       25.128        0.008      347.950       27.289      859.957
09/05/2014  15:33:00      239.655      179.678       43.533       82.813       74.781       73.302     6858.026     5592.198     5373.170        5.472        0.891      299.530       37.344        0.016      347.954       27.292      859.951
09/05/2014  15:34:00      102.619       95.451       73.296       79.848       65.821       64.606     6375.667     4332.463     4173.937        1.995        0.744      140.148       50.512        0.130      348.163       27.656      859.933
09/05/2014  15:35:00      168.567       95.837       46.026       59.384       58.588       46.103     3526.469     3432.595     2125.494        2.440        0.454      193.906       36.577        0.036      347.693       26.845      859.930
09/05/2014  15:36:00      119.894       90.522       24.854       82.036       71.563       56.197     6729.933     5121.270     3158.061        1.910        0.750      150.229       35.783        0.057      348.112       27.569      859.920
09/05/2014  15:37:00       82.728      128.587       -7.692       71.867      108.151       55.336     5164.911    11696.636     3062.118        2.168        0.996      152.900       51.171        0.112      348.075       27.504      859.912
09/05/2014  15:38:00      140.020      165.793        2.531      102.912       90.746       76.386    10590.878     8234.884     5834.748        3.588        1.233      217.009       62.312        0.082      348.020       27.407      859.913
09/05/2014  15:39:00      165.918      116.682        3.795      116.832       75.490       61.269    13649.676     5698.704     3753.884        3.213        1.155      202.839       45.568        0.050      348.119       27.581      859.881
09/05/2014  15:40:00      183.511       96.138       19.726      120.715       77.051       62.944    14572.006     5936.799     3961.994        3.389        1.224      207.169       32.618        0.025      348.074       27.502      859.891
09/05/2014  15:41:00       67.713       74.865        9.589       97.676       79.645       53.232     9540.696     6343.334     2833.606        1.450        0.936      100.945       29.311        0.084      348.059       27.479      859.881
09/05/2014  15:42:00      137.249       99.566       47.755      100.448       77.252       60.287    10089.721     5967.916     3634.541        2.536        0.985      169.560       61.466        0.131      348.196       27.713      859.871
09/05/2014  15:43:00      130.426       54.901       71.298      136.176      131.905       81.202    18543.900    17398.855     6593.723        3.382        2.127      141.510       51.954        0.135      348.347       27.975      859.857
09/05/2014  15:44:00      215.213       83.217       80.509       99.003      104.517       87.001     9801.591    10923.895     7569.094        4.400        1.415      230.742       64.413        0.078      347.993       27.362      859.865
09/05/2014  15:45:00      155.087       40.155      117.914      146.806      138.907       89.329    21551.982    19295.112     7979.698        4.419        2.441      160.201       84.246        0.277      348.247       27.801      859.850
09/05/2014  15:46:00       92.680       -2.657       77.708      123.155      128.010       98.565    15167.151    16386.491     9715.068        2.795        2.063       92.718      107.557        1.346      348.197       27.715      859.868
09/05/2014  15:47:00       76.637     -159.068        1.937       87.300      103.925       52.830     7621.223    10800.327     2791.039        2.619        1.061      176.567       45.520        0.066      348.221       27.755      859.860
09/05/2014  15:48:00      144.179     -131.769       23.005      115.002      134.389       74.050    13225.398    18060.272     5483.443        3.772        1.838      195.322       84.491        0.187      348.226       27.764      859.854
09/05/2014  15:49:00       96.932      -98.201       26.087       86.262       93.125       55.201     7441.214     8672.300     3047.097        1.944        0.958      137.982       54.536        0.156      348.203       27.726      859.844
09/05/2014  15:50:00       79.032     -126.971       -3.525       54.132       63.312       41.356     2930.316     4008.414     1710.278        1.551        0.432      149.558       32.647        0.048      348.229       27.772      859.851
09/05/2014  15:51:00       41.482       24.603       23.163       50.522       55.492       26.516     2552.483     3079.402      703.115        0.460        0.317       48.229       20.582        0.182      348.437       28.131      859.846
09/05/2014  15:52:00       85.381       31.410       25.209       35.338       31.868       35.566     1248.782     1015.564     1264.956        0.622        0.176       90.975       15.909        0.031      348.390       28.051      859.843
09/05/2014  15:53:00       70.376      124.467       -2.494       97.887      134.633       76.791     9581.795    18126.042     5896.839        2.702        1.680      142.986       89.150        0.389      348.377       28.027      859.830
09/05/2014  15:54:00       59.964       98.531       -2.547       60.048       59.711       50.346     3605.821     3565.374     2534.700        1.151        0.485      115.343       41.304        0.128      348.076       27.508      859.836
09/05/2014  15:55:00       52.263      116.076        1.130       42.911       53.135       38.136     1841.355     2823.297     1454.380        1.116        0.306      127.299       31.807        0.062      347.979       27.342      859.841
09/05/2014  15:56:00       55.438       73.593       -9.995       56.609       37.658       32.996     3204.575     1418.115     1088.712        0.715        0.286       92.137       24.813        0.073      348.027       27.422      859.851
09/05/2014  15:57:00       53.014      100.475        2.523       60.977       78.878       39.287     3718.143     6221.753     1543.507        1.220        0.574      113.603       37.891        0.111      348.095       27.539      859.859
09/05/2014  15:58:00      163.458      118.693       20.452      118.942       85.105       64.810    14147.257     7242.854     4200.333        3.340        1.280      202.006       40.739        0.041      348.211       27.737      859.851
09/05/2014  15:59:00      235.897      109.536       17.499      133.670       78.785       66.391    17867.744     6207.125     4407.804        4.821        1.424      260.087       43.794        0.028      347.944       27.277      859.836
09/05/2014  16:00:00      148.545      105.166        4.659       86.034       74.567       54.766     7401.857     5560.272     2999.328        2.455        0.798      182.004       44.268        0.059      348.144       27.624      859.833
09/05/2014  16:01:00       95.802       55.851        8.552       64.285       40.061       39.846     4132.532     1604.903     1587.685        0.985        0.366      110.893       26.597        0.058      348.328       27.944      859.841
09/05/2014  16:02:00       61.889       49.683        0.009       75.558       65.971       34.990     5709.071     4352.114     1224.285        0.879        0.564       79.365       31.834        0.161      348.600       28.414      859.848
09/05/2014  16:03:00       19.206      248.101      -26.482       70.445      125.809       62.442     4962.535    15828.025     3898.957        4.365        1.234      248.844       68.134        0.075      348.226       27.765      859.851
09/05/2014  16:04:00       71.577      153.033       -9.907       77.829       87.660       69.416     6057.414     7684.199     4818.613        2.360        0.928      168.945       52.599        0.097      348.183       27.691      859.865
09/05/2014  16:05:00      106.713       90.819       21.396       80.942       59.425       52.053     6551.613     3531.355     2709.539        1.644        0.640      140.127       38.062        0.074      348.254       27.816      859.873
09/05/2014  16:06:00       77.762       79.189        3.150       43.532       50.847       40.235     1895.054     2585.397     1618.858        0.921        0.305      110.986       32.261        0.084      348.143       27.623      859.871
09/05/2014  16:07:00       66.811       42.105       15.899       68.619       60.113       52.627     4708.585     3613.528     2769.619        0.879        0.555       78.972       39.650        0.252      348.200       27.723      859.877
09/05/2014  16:08:00       71.861       39.255       16.484       51.907       50.305       35.484     2694.318     2530.641     1259.095        0.673        0.324       81.883       25.317        0.096      348.365       28.008      859.865
09/05/2014  16:09:00       94.985       44.605       36.130       92.186       65.739       64.185     8498.332     4321.659     4119.746        1.463        0.847      104.937       53.976        0.265      348.407       28.079      859.862
09/05/2014  16:10:00      298.327      183.840       69.420      164.661       95.699       78.869    27113.291     9158.343     6220.378        8.505        2.125      350.423       80.125        0.052      348.356       27.989      859.828
09/05/2014  16:11:00      288.892      160.295       46.893      132.333       94.762       81.365    17512.147     8979.832     6620.290        7.223        1.656      330.383       58.936        0.032      348.358       27.992      859.859
09/05/2014  16:12:00      262.271      165.008       30.859      108.993       77.295       60.051    11879.420     5974.492     3606.107        5.921        1.073      309.860       32.536        0.011      348.309       27.906      859.891
09/05/2014  16:13:00      133.472      117.719       29.025       96.281       79.995       53.766     9270.118     6399.256     2890.831        2.553        0.928      177.968       19.730        0.012      348.350       27.979      859.891
09/05/2014  16:14:00       58.032      126.189      -10.819       69.609       83.459       40.704     4845.369     6965.479     1656.819        1.644        0.673      138.894       26.185        0.036      348.429       28.117      859.894
09/05/2014  16:15:00       86.641      123.691       -4.495       83.525       74.346       52.955     6976.365     5527.364     2804.232        1.906        0.765      151.017       39.487        0.068      348.371       28.016      859.882
09/05/2014  16:16:00       66.138       35.651       15.324       58.123       37.725       43.016     3378.281     1423.163     1850.410        0.626        0.333       75.135       27.736        0.136      348.421       28.104      859.874
09/05/2014  16:17:00       68.568       83.116        3.602       81.095       64.427       32.059     6576.349     4150.774     1027.811        1.169        0.588      107.749       23.579        0.048      348.287       27.872      859.864
09/05/2014  16:18:00       92.747       78.805       13.908       70.279       53.391       53.530     4939.181     2850.560     2865.433        1.283        0.533      121.705       24.420        0.040      348.503       28.246      859.863
09/05/2014  16:19:00       26.160       77.356        8.530       57.509       74.772       37.655     3307.319     5590.824     1417.900        0.853        0.516       81.659       34.930        0.183      348.547       28.323      859.854
09/05/2014  16:20:00       59.755       39.543        2.875       73.531       50.043       39.427     5406.777     2504.278     1554.456        0.730        0.473       71.654       32.251        0.203      348.520       28.277      859.841
09/05/2014  16:21:00       13.558       45.731       35.718       34.616       34.372       26.980     1198.237     1181.423      727.931        0.333        0.155       47.698       17.256        0.131      348.657       28.513      859.813
09/05/2014  16:22:00       93.737       56.772       31.374       69.849       50.892       36.951     4878.884     2589.970     1365.353        1.091        0.442      109.589       32.470        0.088      348.254       27.815      859.809
09/05/2014  16:23:00      103.924      122.658       -5.652       77.198       91.692       43.876     5959.602     8407.497     1925.079        2.108        0.815      160.764       39.159        0.059      348.354       27.986      859.794
09/05/2014  16:24:00       97.523      164.545        2.169       70.225      120.481       66.774     4931.527    14515.586     4458.786        3.024        1.195      191.274       70.368        0.135      348.341       27.962      859.788
09/05/2014  16:25:00       21.833      116.969      -16.349       62.304      106.673       39.248     3881.823    11379.042     1540.367        1.561        0.840      118.989       39.229        0.109      348.389       28.049      859.792
09/05/2014  16:26:00       68.339       92.629        4.494       69.096       65.677       33.816     4774.270     4313.516     1143.495        1.175        0.512      115.110       40.124        0.121      348.310       27.912      859.790
09/05/2014  16:27:00       69.408      214.209       -8.334      127.466      144.508       59.109    16247.583    20882.591     3493.829        4.569        2.031      225.173       66.620        0.088      348.483       28.209      859.776
09/05/2014  16:28:00       68.888       75.492       11.331       65.092       54.306       37.693     4236.977     2949.183     1420.798        0.959        0.430      102.198       27.298        0.071      348.638       28.480      859.792
09/05/2014  16:29:00       83.103       53.701       24.185       54.541       46.371       37.139     2974.757     2150.291     1379.300        0.844        0.325       98.944       15.368        0.024      348.635       28.474      859.780
09/05/2014  16:30:00       54.764       91.015       -2.200       68.747       80.381       45.496     4726.093     6461.127     2069.879        1.227        0.663      106.220       46.485        0.192      348.584       28.385      859.776
09/05/2014  16:31:00       25.086      142.511      -10.412       63.711       73.613       44.185     4059.099     5418.922     1952.315        1.624        0.572      144.702       44.673        0.095      348.260       27.826      859.783
09/05/2014  16:32:00       -1.909      171.864      -25.483       48.558       63.535       30.495     2357.835     4036.730      929.922        1.876        0.366      171.875       33.096        0.037      348.245       27.799      859.775
09/05/2014  16:33:00      -46.234      178.351      -21.943       32.938       46.069       25.868     1084.922     2122.352      669.129        1.915        0.194      184.246       22.304        0.015      348.198       27.718      859.766
09/05/2014  16:34:00      -47.965      221.193      -41.850       65.032       70.129       28.490     4229.204     4918.104      811.679        3.147        0.498      226.334       25.433        0.013      348.275       27.849      859.757
09/05/2014  16:35:00       36.576      290.272      -27.382       64.484      206.556       60.580     4158.202    42665.442     3669.925        6.841        2.525      292.567       93.710        0.103      348.399       28.064      859.773
09/05/2014  16:36:00       42.457      437.501      -72.281       81.698      102.119       49.089     6674.636    10428.290     2409.777       10.897        0.976      439.556       48.474        0.012      348.232       27.774      859.766
09/05/2014  16:37:00       -5.073      268.756      -24.630      115.337       95.098       72.416    13302.640     9043.605     5244.023        5.022        1.380      268.804       55.988        0.043      348.365       28.004      859.773
09/05/2014  16:38:00      107.420      150.377       -3.062      102.683       97.449       54.570    10543.767     9496.286     2977.938        2.859        1.151      184.803       57.464        0.097      348.383       28.036      859.780
09/05/2014  16:39:00       45.301      174.638      -13.597       78.184      104.051       70.602     6112.776    10826.595     4984.690        2.733        1.096      180.418       66.286        0.135      348.331       27.946      859.787
09/05/2014  16:40:00        0.638      112.383      -10.469       71.324       68.644       46.790     5087.137     4711.957     2189.299        1.236        0.599      112.385       44.295        0.155      348.321       27.931      859.781
09/05/2014  16:41:00       55.559      244.904      -21.857       77.850      118.002       67.737     6060.644    13924.480     4588.339        4.405        1.229      251.127       77.226        0.095      348.316       27.920      859.765
09/05/2014  16:42:00       27.111      268.625      -37.088       69.252      113.759       50.868     4795.795    12941.171     2587.554        4.729        1.016      269.990       64.171        0.056      348.303       27.898      859.788
09/05/2014  16:43:00       29.306      123.583       -6.710       68.396       81.780       43.748     4677.953     6688.023     1913.895        1.473        0.664      127.011       40.783        0.103      348.561       28.346      859.796
09/05/2014  16:44:00      168.579      103.427       27.563      113.798       81.555       61.537    12950.028     6651.232     3786.809        3.163        1.169      197.778       29.698        0.023      348.556       28.337      859.806
09/05/2014  16:45:00      133.176      159.212       -7.047      114.650       92.813       53.730    13144.674     8614.243     2886.885        3.389        1.232      207.568       59.502        0.082      348.473       28.192      859.809
09/05/2014  16:46:00       89.421       55.054        5.067       74.039       56.454       40.141     5481.800     3187.001     1611.320        1.066        0.514      105.010       31.908        0.092      348.604       28.419      859.817
09/05/2014  16:47:00       42.195       20.155       29.852       51.230       43.308       31.961     2624.562     1875.540     1021.493        0.430        0.276       46.761       23.566        0.254      348.706       28.597      859.802
09/05/2014  16:48:00      182.403      152.551      103.072      115.686       88.045       77.478    13383.331     7751.900     6002.916        4.715        1.357      237.787       49.190        0.043      348.465       28.177      859.758
09/05/2014  16:49:00      104.220      139.372      134.750      114.027       87.431       74.217    13002.178     7644.256     5508.157        3.729        1.308      174.030       54.578        0.098      348.467       28.180      859.742
09/05/2014  16:50:00       60.003       20.383       82.318       98.172      109.986       66.949     9637.829    12096.970     4482.230        1.850        1.311       63.371       71.712        1.281      348.598       28.410      859.738
09/05/2014  16:51:00       86.693       47.289       96.628       80.995       94.358       71.364     6560.160     8903.488     5092.756        1.982        1.028       98.752       60.600        0.377      348.397       28.061      859.736
09/05/2014  16:52:00       55.613       50.327       83.944       63.053       90.119       49.080     3975.618     8121.450     2408.867        1.359        0.725       75.004       37.268        0.247      348.449       28.153      859.734
09/05/2014  16:53:00       79.781       88.819       99.684      102.930       88.409       65.209    10594.496     7816.113     4252.172        2.342        1.133      119.389       70.938        0.353      348.260       27.823      859.737
09/05/2014  16:54:00       78.701      -56.608       25.733       62.166       75.691       51.047     3864.637     5729.057     2605.830        1.113        0.610       96.945       41.551        0.184      348.437       28.132      859.746
09/05/2014  16:55:00       74.155     -111.457        9.909       64.576       97.097       52.502     4170.066     9427.898     2756.484        1.718        0.818      133.872       66.891        0.250      348.459       28.170      859.744
09/05/2014  16:56:00       82.414     -142.417      -30.746       57.135       65.477       36.266     3264.380     4287.219     1315.230        1.844        0.443      164.544       36.841        0.050      348.285       27.868      859.747
09/05/2014  16:57:00       13.814       13.779       51.639       34.790       51.202       28.823     1210.335     2621.672      830.788        0.385        0.233       19.511       30.695        2.475      348.322       27.934      859.767
09/05/2014  16:58:00       36.223       22.204       42.596       50.181       47.147       32.271     2518.083     2222.885     1041.448        0.470        0.289       42.487       30.504        0.515      348.465       28.181      859.796
09/05/2014  16:59:00      102.797       61.858       42.207       72.263       53.162       34.395     5221.934     2826.187     1182.998        1.270        0.462      119.973       20.215        0.028      348.569       28.360      859.802
09/05/2014  17:00:00      121.676       88.249      100.540      111.420       82.946       87.872    12414.518     6880.074     7721.556        2.985        1.351      150.310       70.451        0.220      348.449       28.151      859.785
09/05/2014  17:01:00      224.242      154.093       83.404      110.715       93.588       95.879    12257.859     8758.779     9192.766        5.559        1.510      272.083       61.023        0.050      348.316       27.919      859.796
09/05/2014  17:02:00      117.297       47.700       32.551       94.659       64.543       50.757     8960.284     4165.817     2576.257        1.640        0.785      126.625       45.992        0.132      348.446       28.147      859.811
09/05/2014  17:03:00       43.260       86.792       -9.771       66.349       56.064       34.244     4402.219     3143.194     1172.674        0.911        0.436       96.975       34.365        0.126      348.346       27.975      859.819
09/05/2014  17:04:00      -28.753      194.535      -27.856       36.536       65.225       23.126     1334.849     4254.240      534.828        2.278        0.306      196.649       23.428        0.014      348.284       27.863      859.811
09/05/2014  17:05:00      -10.156      152.238      -20.111       47.693       70.626       29.474     2274.602     4988.075      868.739        1.591        0.407      152.576       21.898        0.021      348.319       27.928      859.809
09/05/2014  17:06:00      -12.054      119.018      -23.969       31.849       87.416       23.016     1014.360     7641.640      529.754        1.203        0.459      119.627       22.272        0.035      348.287       27.873      859.803
09/05/2014  17:07:00       12.628       43.446       -9.246       22.526       31.419       16.545      507.443      987.157      273.729        0.195        0.088       45.244       13.190        0.085      348.380       28.035      859.798
09/05/2014  17:08:00       50.354      187.616      -24.500       66.988       80.827       44.902     4487.416     6532.934     2016.166        2.568        0.652      194.255       42.698        0.048      348.284       27.865      859.810
09/05/2014  17:09:00      125.952       79.025        7.249       51.647       52.439       29.741     2667.384     2749.843      884.519        1.423        0.315      148.690       20.596        0.019      348.256       27.818      859.809
09/05/2014  17:10:00       61.493       47.496        6.049       38.368       26.295       22.009     1472.102      691.419      484.393        0.436        0.132       77.700       15.169        0.038      348.361       28.000      859.809
09/05/2014  17:11:00      137.588       24.292       40.206       55.626       42.954       41.340     3094.212     1845.088     1709.018        1.389        0.332      139.716       23.390        0.028      348.199       27.721      859.815
09/05/2014  17:12:00      108.464       -2.445       41.118       60.206       81.270       44.256     3624.745     6604.892     1958.567        1.282        0.609      108.492       49.142        0.205      348.414       28.092      859.812
09/05/2014  17:13:00       53.661      -21.996       41.107       61.551       47.052       32.855     3788.534     2213.934     1079.459        0.607        0.354       57.994       31.138        0.288      348.291       27.879      859.797
09/05/2014  17:14:00       30.845       60.663       18.575       37.661       41.844       44.398     1418.323     1750.942     1971.158        0.506        0.257       68.054       20.841        0.094      348.309       27.912      859.796
09/05/2014  17:15:00       60.276       21.902        9.969       40.470       47.398       27.501     1637.792     2246.560      756.320        0.443        0.232       64.132       19.124        0.089      348.312       27.917      859.790
09/05/2014  17:16:00       75.582       29.774       48.867       92.830       64.543       45.366     8617.334     4165.750     2058.076        1.191        0.742       81.235       36.085        0.197      348.376       28.026      859.789
09/05/2014  17:17:00      112.655       71.994       29.617       80.648       62.402       52.754     6504.148     3893.951     2782.954        1.596        0.659      133.694       20.773        0.024      348.435       28.129      859.787
09/05/2014  17:18:00      232.223      103.173       49.475       98.255       98.833       66.119     9653.955     9767.954     4371.776        4.540        1.190      254.110       51.226        0.041      348.444       28.140      859.780
09/05/2014  17:19:00      162.717      141.313        7.775       85.314       59.185       60.189     7278.545     3502.861     3622.711        3.045        0.720      215.514       36.279        0.028      348.363       28.002      859.787
09/05/2014  17:20:00       30.613       99.182       -3.884       52.952       61.807       39.202     2803.941     3820.111     1536.800        0.947        0.408      103.799       31.257        0.091      348.334       27.955      859.782
09/05/2014  17:21:00       36.474       50.155       -5.280       28.455       58.689       18.368      809.708     3444.426      337.394        0.423        0.230       62.015       17.231        0.077      348.238       27.785      859.759
09/05/2014  17:22:00       -1.684       50.074       -8.227       12.531       28.011       11.318      157.027      784.601      128.102        0.182        0.053       50.103        7.264        0.021      348.207       27.733      859.744
09/05/2014  17:23:00        8.532       29.584        4.315       18.816       27.081       14.026      354.041      733.400      196.724        0.113        0.064       30.790       11.734        0.145      348.182       27.692      859.737
09/05/2014  17:24:00       64.006       50.662       24.000       63.595       40.655       31.312     4044.267     1652.852      980.417        0.696        0.334       81.630       29.429        0.130      348.179       27.685      859.741
09/05/2014  17:25:00      236.766      152.710       57.733      104.906       78.392       74.541    11005.313     6145.240     5556.347        5.271        1.135      281.742       48.483        0.030      348.233       27.777      859.732
09/05/2014  17:26:00      163.387      108.399       30.761       91.598       54.047       49.806     8390.213     2921.034     2480.639        2.659        0.690      196.076       20.170        0.011      348.274       27.847      859.719
09/05/2014  17:27:00      120.316       58.657       32.413       76.048       57.772       49.991     5783.318     3337.605     2499.069        1.529        0.581      133.853       30.282        0.051      348.283       27.865      859.710
09/05/2014  17:28:00      196.568      112.131       39.444       87.236       56.287       52.092     7610.066     3168.245     2713.547        3.313        0.675      226.301       32.530        0.021      348.319       27.924      859.704
09/05/2014  17:29:00      163.591       67.979       49.210      114.341       85.347       70.811    13073.886     7284.146     5014.242        2.958        1.269      177.153       74.136        0.175      348.311       27.911      859.705
09/05/2014  17:30:00       92.931       58.959       57.754       70.754       55.504       63.490     5006.169     3080.694     4031.018        1.378        0.606      110.056       41.220        0.140      348.335       27.956      859.707
09/05/2014  17:31:00       84.365       43.036       50.409       73.182       91.317       51.602     5355.615     8338.746     2662.757        1.393        0.818       94.708       47.925        0.256      348.193       27.708      859.715
09/05/2014  17:32:00      205.469       74.455       32.467       74.312       60.262       55.989     5522.213     3631.530     3134.778        3.055        0.614      218.543       29.094        0.018      348.358       27.994      859.710
09/05/2014  17:33:00      159.182       40.012       26.002      104.334       75.470       52.283    10885.614     5695.719     2733.553        2.346        0.966      164.133       42.063        0.066      348.387       28.044      859.708
09/05/2014  17:34:00       75.337      -14.521       24.770       50.408       49.359       35.852     2540.990     2436.265     1285.367        0.638        0.313       76.723       32.376        0.178      348.304       27.901      859.716
09/05/2014  17:35:00       91.555       26.616       22.504       47.274       47.204       32.161     2234.843     2228.223     1034.309        0.755        0.275       95.345       31.451        0.109      348.349       27.979      859.712
09/05/2014  17:36:00       67.705       73.040       72.439       53.108       46.646       53.550     2820.420     2175.852     2867.644        1.151        0.393       99.594       38.385        0.149      348.392       28.054      859.710
09/05/2014  17:37:00       78.670        6.518       41.425       43.687       69.247       37.803     1908.556     4795.134     1429.082        0.804        0.407       78.940       36.935        0.219      348.436       28.131      859.717
09/05/2014  17:38:00      123.414     -137.307       16.725       60.054       84.375       49.057     3606.539     7119.137     2406.586        2.375        0.657      184.619       48.253        0.068      348.452       28.155      859.717
09/05/2014  17:39:00       69.116       29.544       54.155       34.724       49.216       37.917     1205.745     2422.207     1437.691        0.682        0.253       75.166       16.655        0.049      348.420       28.105      859.721
09/05/2014  17:40:00       65.865       52.268       58.468       59.019       52.427       38.774     3483.298     2748.568     1503.391        0.911        0.387       84.084       35.697        0.180      348.416       28.096      859.721
09/05/2014  17:41:00      101.954       48.434       45.079       67.022       49.971       40.562     4491.905     2497.121     1645.300        1.170        0.432      112.873       35.472        0.099      348.449       28.152      859.729
09/05/2014  17:42:00      102.390       65.956       33.186       69.028       51.467       55.762     4764.933     2648.821     3109.410        1.323        0.526      121.794       41.456        0.116      348.537       28.304      859.730
09/05/2014  17:43:00       80.480       79.664       57.617       63.800       66.823       49.689     4070.385     4465.271     2469.012        1.357        0.550      113.240       42.118        0.138      348.433       28.124      859.730
09/05/2014  17:44:00      193.479       92.703       47.328      100.416       73.871       62.608    10083.457     5456.879     3919.759        3.386        0.973      214.542       55.448        0.067      348.327       27.940      859.741
09/05/2014  17:45:00      110.828       55.669       36.591       61.898       52.461       42.877     3831.378     2752.119     1838.466        1.257        0.421      124.023       34.135        0.076      348.301       27.897      859.742
09/05/2014  17:46:00      114.162       24.979       29.332       99.457      109.058       43.403     9891.780    11893.609     1883.862        1.909        1.183      116.863       41.111        0.124      348.341       27.966      859.730
09/05/2014  17:47:00       41.421      -14.533       38.366       55.234       49.361       34.783     3050.814     2436.488     1209.824        0.505        0.335       43.897       10.783        0.060      348.355       27.990      859.723
09/05/2014  17:48:00       68.910       21.320       54.139       74.037       67.336       48.397     5481.439     4534.185     2342.246        1.024        0.618       72.133       35.915        0.248      348.384       28.039      859.715
09/05/2014  17:49:00       49.662       22.348       21.354       71.175       47.860       36.731     5065.900     2290.553     1349.171        0.606        0.435       54.459       29.780        0.299      348.219       27.756      859.705
09/05/2014  17:50:00      132.053      112.702       72.521      124.218       70.603       74.208    15430.229     4984.818     5506.897        3.066        1.296      173.608       65.843        0.144      348.327       27.940      859.721
09/05/2014  17:51:00      171.539      142.341       21.750      106.850       76.143       74.837    11416.873     5797.803     5600.502        3.648        1.141      222.905       44.431        0.040      348.331       27.945      859.719
09/05/2014  17:52:00      252.908      160.800       32.077       99.613       69.989       65.877     9922.807     4898.475     4339.812        5.500        0.958      299.698       35.091        0.014      348.335       27.951      859.722
09/05/2014  17:53:00      231.347      148.765       38.066       72.318       67.403       54.222     5229.850     4543.198     2940.027        4.491        0.636      275.050       35.187        0.016      348.311       27.911      859.722
09/05/2014  17:54:00      187.281       88.183       24.212       86.746       66.609       57.035     7524.813     4436.799     3252.996        2.932        0.761      207.003       44.799        0.047      348.358       27.994      859.722
09/05/2014  17:55:00       43.061        8.853       10.261       71.449       38.473       38.497     5104.940     1480.150     1482.026        0.505        0.403       43.962       18.481        0.177      348.431       28.123      859.723
09/05/2014  17:56:00       50.374       40.404        6.720       33.931       20.802       21.594     1151.297      432.708      466.287        0.313        0.103       64.576       14.868        0.053      348.412       28.090      859.727
09/05/2014  17:57:00       40.301       20.604       16.509       68.837       40.845       31.565     4738.545     1668.353      996.351        0.486        0.370       45.262       20.890        0.213      348.460       28.171      859.720
09/05/2014  17:58:00     -131.719       80.769      -14.670       76.437       68.210       43.617     5842.617     4652.665     1902.434        1.824        0.620      154.511       25.458        0.027      348.486       28.215      859.720
09/05/2014  17:59:00      -46.235      219.429      -28.322       54.553      103.821       37.361     2975.998    10778.713     1395.873        3.312        0.758      224.247       38.871        0.030      348.314       27.915      859.737
09/05/2014  18:00:00       -2.529      270.013      -36.947       85.124       96.201       46.701     7246.142     9254.645     2180.989        4.648        0.934      270.025       50.496        0.035      348.282       27.859      859.739
09/05/2014  18:01:00       75.853       98.048        5.388       67.601       66.648       58.978     4569.840     4441.946     3478.413        1.394        0.625      123.964       47.371        0.146      348.225       27.765      859.735
09/05/2014  18:02:00       -2.036       86.299      -11.897       57.984       55.070       29.697     3362.118     3032.714      881.937        0.743        0.364       86.323       25.208        0.085      348.316       27.923      859.734
09/05/2014  18:03:00        9.937      134.705      -18.868       30.151       57.762       25.211      909.063     3336.460      635.597        1.174        0.244      135.071       22.476        0.028      348.304       27.901      859.741
09/05/2014  18:04:00      -10.434       56.275       -4.253       68.694       65.610       44.683     4718.823     4304.624     1996.582        0.716        0.551       57.234       36.416        0.405      348.380       28.035      859.727
09/05/2014  18:05:00      -84.406       74.524       -9.724       85.048       62.632       43.772     7233.145     3922.734     1916.029        1.292        0.654      112.597       44.745        0.158      348.491       28.225      859.727
09/05/2014  18:06:00     -100.290      182.248      -34.145       78.013      123.866       49.622     6086.091    15342.894     2462.327        3.416        1.195      208.020       55.012        0.070      348.305       27.901      859.733
09/05/2014  18:07:00     -102.152       98.164      -25.313       73.735      111.226       40.686     5436.828    12371.146     1655.363        2.008        0.973      141.673       39.170        0.076      348.378       28.029      859.665
09/05/2014  18:08:00      -90.571        8.187        1.120      101.364       67.908       49.631    10274.627     4611.464     2463.218        1.281        0.867       90.940       64.492        0.503      348.453       28.160      859.651
09/05/2014  18:09:00        2.598      329.344      -41.111       65.376      139.057       56.783     4274.083    19336.832     3224.291        6.850        1.342      329.354       66.600        0.041      348.349       27.977      859.685
09/05/2014  18:10:00        8.955      264.645      -10.919       84.901      166.454       60.032     7208.150    27706.946     3603.831        5.437        1.926      264.797       74.440        0.079      348.335       27.953      859.700
09/05/2014  18:11:00       59.368       60.416       15.050       84.962       87.051       48.908     7218.486     7577.945     2391.991        1.229        0.859       84.703       41.290        0.238      348.359       27.997      859.718
09/05/2014  18:12:00       29.430       47.456        7.548       36.315       42.122       29.521     1318.790     1774.225      871.466        0.357        0.198       55.840       25.640        0.211      348.431       28.123      859.716
09/05/2014  18:13:00       62.298       95.898       -8.042       56.674       58.193       37.380     3211.942     3386.411     1397.271        1.057        0.400      114.357       33.340        0.085      348.394       28.059      859.717
09/05/2014  18:14:00      103.794      116.461       11.865       84.394       78.896       66.020     7122.282     6224.603     4358.661        2.109        0.885      156.001       56.748        0.132      348.358       27.994      859.707
09/05/2014  18:15:00      131.291       91.742        4.225       79.838       65.363       43.449     6374.054     4272.259     1887.785        1.910        0.627      160.168       24.974        0.024      348.325       27.936      859.712
09/05/2014  18:16:00       90.472      118.754       10.326       81.417       74.417       53.505     6628.730     5537.900     2862.780        1.871        0.751      149.290       42.199        0.080      348.306       27.905      859.719
09/05/2014  18:17:00      283.710      169.385       36.208       97.220       72.420       55.971     9451.711     5244.600     3132.760        6.416        0.891      330.428       23.643        0.005      348.282       27.860      859.728
09/05/2014  18:18:00      165.205       63.411       22.171      121.586       75.653       51.728    14783.115     5723.378     2675.746        2.749        1.159      176.957       36.306        0.042      348.247       27.802      859.724
09/05/2014  18:19:00      112.867       59.282       14.337       92.699       44.350       36.289     8593.157     1966.953     1316.881        1.417        0.594      127.489       29.498        0.054      348.243       27.794      859.735
09/05/2014  18:20:00       77.415       63.444        5.257       48.601       36.627       33.494     2362.019     1341.565     1121.847        0.743        0.241      100.091       19.124        0.037      348.246       27.801      859.741
09/05/2014  18:21:00       82.016       46.836        6.467       45.690       38.597       25.867     2087.553     1489.723      669.115        0.660        0.212       94.447       18.597        0.039      348.255       27.817      859.748
09/05/2014  18:22:00       66.948       44.448        8.984       50.406       32.565       30.269     2540.775     1060.507      916.221        0.553        0.226       80.360       18.130        0.051      348.223       27.761      859.748
09/05/2014  18:23:00       63.689       57.788        2.702       67.577       34.706       30.735     4566.683     1204.490      944.641        0.706        0.336       85.999       21.866        0.065      348.214       27.745      859.751
09/05/2014  18:24:00      175.270       85.420       16.004       93.460       56.610       52.859     8734.822     3204.657     2794.021        2.650        0.737      194.978       25.965        0.018      348.184       27.692      859.741
09/05/2014  18:25:00      116.479       72.718       26.650      117.145       65.686       44.484    13722.914     4314.683     1978.813        1.979        1.001      137.315       32.358        0.056      348.182       27.689      859.746
09/05/2014  18:26:00       16.200       62.893       -1.592       69.334       55.021       30.706     4807.272     3027.293      942.859        0.650        0.439       64.945       29.482        0.206      348.174       27.678      859.755
09/05/2014  18:27:00      100.753       91.327       10.084       51.162       48.335       40.409     2617.572     2336.247     1632.904        1.259        0.329      135.985       28.947        0.045      348.140       27.619      859.762
09/05/2014  18:28:00       33.482       85.491       -4.819       67.900       38.789       33.471     4610.413     1504.618     1120.275        0.784        0.362       91.813       25.758        0.079      348.159       27.650      859.762
09/05/2014  18:29:00       31.983      131.474       -0.775       79.551       96.631       52.627     6328.428     9337.589     2769.568        1.837        0.922      135.308       54.601        0.163      348.089       27.530      859.770
09/05/2014  18:30:00       25.909      261.069      -31.465       62.782      124.810       41.501     3941.528    15577.655     1722.364        4.553        1.062      262.352       53.598        0.042      348.133       27.603      859.764
09/05/2014  18:31:00       25.986      222.446       -9.272       83.925      148.277       57.812     7043.418    21986.047     3342.276        4.130        1.619      223.959       76.804        0.118      348.099       27.547      859.767
09/05/2014  18:32:00        6.293      197.182      -19.285       81.151       78.880       51.126     6585.408     6222.121     2613.901        2.735        0.771      197.282       47.779        0.059      348.084       27.519      859.768
09/05/2014  18:33:00       48.814       90.540       -4.588       58.519       73.982       41.182     3424.436     5473.282     1695.994        1.060        0.530      102.860       38.827        0.142      348.079       27.513      859.760
09/05/2014  18:34:00       -7.671      313.710      -40.151       86.154      114.535       58.169     7422.440    13118.244     3383.654        6.200        1.196      313.804       63.401        0.041      348.048       27.457      859.772
09/05/2014  18:35:00       11.930      254.593      -14.947       88.907      142.454       70.092     7904.372    20293.197     4912.903        4.914        1.656      254.872       90.419        0.126      348.036       27.434      859.777
09/05/2014  18:36:00      -45.902      268.416      -32.815       89.723       70.621       43.528     8050.217     4987.342     1894.678        4.508        0.747      272.313       35.708        0.017      348.033       27.430      859.783
09/05/2014  18:37:00      -34.390      328.946      -33.058       82.923      102.539       52.041     6876.155    10514.235     2708.302        6.529        1.005      330.738       44.934        0.018      348.048       27.456      859.792
09/05/2014  18:38:00      -91.441      220.856      -34.421      105.156      112.179       42.843    11057.695    12584.116     1835.528        4.190        1.274      239.037       45.326        0.036      348.066       27.487      859.797
09/05/2014  18:39:00       13.629      261.422      -22.477       71.630      110.497       64.110     5130.802    12209.615     4110.156        4.524        1.073      261.777       64.550        0.061      348.070       27.494      859.825
09/05/2014  18:40:00       94.728      177.246      -15.133       98.996      151.361       69.917     9800.286    22910.209     4888.343        3.910        1.880      200.971       79.688        0.157      348.045       27.451      859.844
09/05/2014  18:41:00        8.146      260.677      -33.750       56.987       65.253       40.740     3247.527     4257.961     1659.778        3.916        0.458      260.804       35.429        0.018      348.041       27.443      859.852
09/05/2014  18:42:00       26.659      147.834      -23.029       37.489       86.468       28.778     1405.427     7476.750      828.181        1.640        0.486      150.219       39.905        0.071      348.007       27.389      859.851
09/05/2014  18:43:00        5.314       80.524       -7.588       71.335       71.848       45.154     5088.616     5162.094     2038.851        0.943        0.614       80.699       41.050        0.259      347.962       27.311      859.848
09/05/2014  18:44:00      -58.186      268.232      -37.340       45.937       73.595       28.651     2110.235     5416.275      820.856        4.254        0.417      274.471       27.534        0.010      348.004       27.380      859.862
09/05/2014  18:45:00       30.215      230.289      -36.699       56.905       61.508       28.772     3238.127     3783.258      827.806        3.157        0.392      232.263       27.492        0.014      348.028       27.420      859.864
09/05/2014  18:46:00       25.742       93.451       -9.522       32.966       46.460       24.763     1086.762     2158.503      613.224        0.667        0.193       96.932       25.239        0.068      347.943       27.278      859.873
09/05/2014  18:47:00       37.054       87.944        0.660       34.243       48.839       39.421     1172.613     2385.284     1554.011        0.711        0.256       95.431       35.234        0.136      347.946       27.284      859.881
09/05/2014  18:48:00       28.275       84.840       -6.342       28.726       40.443       26.116      825.190     1635.631      682.034        0.559        0.157       89.427       22.794        0.065      347.913       27.226      859.879
09/05/2014  18:49:00       63.196      116.829      -11.966       53.234       67.090       36.885     2833.825     4501.064     1360.534        1.324        0.435      132.826       38.567        0.084      347.938       27.268      859.880
09/05/2014  18:50:00       54.360       53.223        4.350       55.508       41.418       32.466     3081.138     1715.470     1054.014        0.583        0.293       76.077       20.238        0.071      347.967       27.320      859.889
09/05/2014  18:51:00       42.070       61.362       -2.480       26.480       29.288       21.664      701.201      857.800      469.330        0.378        0.101       74.398       16.709        0.050      347.930       27.256      859.896
09/05/2014  18:52:00        2.239        5.256       -0.628       14.855       14.202       10.557      220.680      201.684      111.443        0.028        0.027        5.713        8.510        2.219      348.005       27.386      859.896
09/05/2014  18:53:00       26.784       19.036        2.950       12.387       18.589       13.492      153.441      345.559      182.033        0.088        0.034       32.860        6.697        0.042      347.872       27.157      859.888
09/05/2014  18:54:00        2.493      -28.432       -3.232       19.741       28.097       13.497      389.697      789.427      182.157        0.109        0.068       28.541       10.427        0.133      347.795       27.025      859.883
09/05/2014  18:55:00       28.447      -69.573       -4.184       26.325       30.593       20.585      692.996      935.914      423.734        0.386        0.103       75.164       13.384        0.032      347.660       26.789      859.887
09/05/2014  18:56:00       48.469      -76.767       -8.914       21.839       25.345       15.905      476.936      642.352      252.983        0.485        0.069       90.788        8.161        0.008      347.898       27.202      859.902
09/05/2014  18:57:00       21.945       -8.957       15.914       27.179       26.709       18.014      738.689      713.366      324.511        0.130        0.089       23.703       16.502        0.485      347.732       26.914      859.904
09/05/2014  18:58:00       29.391      -12.230       20.893       17.721       25.171       21.326      314.029      633.596      454.791        0.143        0.070       31.834       16.487        0.268      347.700       26.859      859.921
09/05/2014  18:59:00       30.079      -11.715        4.934       18.690       21.920       18.063      349.323      480.468      326.275        0.111        0.058       32.279       10.758        0.111      347.628       26.737      859.923
09/05/2014  19:00:00       15.260       13.045       15.075       16.686       12.023       23.378      278.406      144.541      546.519        0.080        0.048       20.076       16.213        0.652      347.719       26.892      859.933
09/05/2014  19:01:00       18.327        4.882        8.769       16.944       17.653       16.382      287.113      311.615      268.366        0.065        0.043       18.967        9.183        0.234      347.658       26.787      859.947
09/05/2014  19:02:00        2.630        2.063       16.726       16.943       19.917       20.486      287.049      396.693      419.690        0.070        0.055        3.343       11.530       11.896      347.611       26.706      859.964
09/05/2014  19:03:00       20.789       15.323       20.663       16.477       14.514       19.009      271.496      210.657      361.340        0.097        0.042       25.826        7.857        0.093      347.539       26.581      859.973
09/05/2014  19:04:00       17.822       17.530       18.909       39.811       26.889       18.716     1584.888      723.040      350.292        0.182        0.133       24.999       23.321        0.870      347.694       26.847      859.981
09/05/2014  19:05:00       77.277       39.174       21.843       87.351       43.403       37.870     7630.143     1883.855     1434.163        0.946        0.547       86.639       21.115        0.059      347.744       26.935      859.993
09/05/2014  19:06:00      151.129       96.795       29.900       54.250       57.550       41.072     2943.086     3312.039     1686.892        2.052        0.397      179.469       20.871        0.014      347.778       26.992      859.996
09/05/2014  19:07:00       91.048       29.034       40.031       49.161       53.591       45.220     2416.850     2872.023     2044.889        0.903        0.367       95.565       37.321        0.153      347.682       26.828      859.995
09/05/2014  19:08:00       91.026       36.602       28.848       67.303       48.896       31.069     4529.628     2390.833      965.299        0.917        0.394       98.110       22.590        0.053      347.709       26.874      859.992
09/05/2014  19:09:00       67.630       18.978       12.563       36.366       23.473       25.852     1322.505      550.961      668.320        0.382        0.127       70.242       16.230        0.053      347.707       26.872      860.008
09/05/2014  19:10:00       81.857       39.844       11.645       34.647       26.876       21.334     1200.391      722.327      455.131        0.540        0.119       91.039       19.690        0.047      347.630       26.738      860.019
09/05/2014  19:11:00       36.005       35.109       12.350       26.427       24.188       16.099      698.364      585.070      259.182        0.211        0.077       50.289       12.098        0.058      347.606       26.698      860.019
09/05/2014  19:12:00       19.986       13.791       18.811       16.439       13.007       13.977      270.229      169.176      195.354        0.079        0.032       24.282       11.322        0.217      347.476       26.471      860.021
09/05/2014  19:13:00       12.619       11.530       11.291       20.144       13.636       15.491      405.788      185.940      239.965        0.063        0.042       17.094        5.510        0.104      347.427       26.388      860.031
09/05/2014  19:14:00       -8.640       13.564       -0.117       11.243       11.882       12.848      126.398      141.191      165.067        0.035        0.022       16.082        9.354        0.338      347.407       26.353      860.040
09/05/2014  19:15:00       -2.537       12.622       -0.399       15.104        8.661       11.112      228.135       75.007      123.467        0.030        0.021       12.875       10.120        0.618      347.414       26.367      860.039
09/05/2014  19:16:00        4.347       25.146        0.048        9.852       10.935       10.225       97.059      119.565      104.549        0.049        0.016       25.519        6.241        0.060      347.487       26.493      860.056
09/05/2014  19:17:00      -14.216       -2.473       -4.234       13.716       13.351        6.835      188.117      178.239       46.716        0.032        0.021       14.430        5.459        0.143      347.474       26.470      860.075
09/05/2014  19:18:00      -18.144       -6.515        0.152       12.038        7.334        7.103      144.904       53.788       50.459        0.031        0.012       19.278        6.608        0.118      347.520       26.548      860.089
09/05/2014  19:19:00      -10.536       27.170        4.328       32.325       28.110       12.141     1044.926      790.176      147.405        0.142        0.099       29.141       11.525        0.156      347.396       26.335      860.092
09/05/2014  19:20:00       15.405       21.665        1.373       14.272       15.759       10.113      203.694      248.353      102.277        0.063        0.028       26.583        6.539        0.061      347.366       26.283      860.106
09/05/2014  19:21:00       30.394       41.488       -0.451       29.103       24.261       22.026      846.971      588.583      485.155        0.228        0.096       51.430       16.341        0.101      347.431       26.397      860.110
09/05/2014  19:22:00       33.232       64.901       -4.471       23.144       27.905       18.216      535.632      778.663      331.819        0.349        0.082       72.914       16.974        0.054      347.467       26.456      860.110
09/05/2014  19:23:00       52.407       38.503        2.661       20.908       17.181       20.041      437.144      295.194      401.655        0.268        0.057       65.030       14.345        0.049      347.510       26.531      860.123
09/05/2014  19:24:00       26.124       62.378       -4.515       20.796       28.241       16.099      432.493      797.533      259.192        0.304        0.074       67.628       18.922        0.078      347.469       26.460      860.133
09/05/2014  19:25:00       27.937       94.576      -14.285       32.838       47.081       20.836     1078.331     2216.619      434.156        0.683        0.186       98.616       22.939        0.054      347.491       26.498      860.138
09/05/2014  19:26:00       30.679       96.463      -10.072       30.840       56.399       23.325      951.083     3180.834      544.054        0.751        0.234      101.224       27.394        0.073      347.470       26.463      860.162
09/05/2014  19:27:00       13.881      103.454      -17.131       22.283       25.408       15.632      496.549      645.554      244.356        0.629        0.069      104.381       10.391        0.010      347.566       26.629      860.170
09/05/2014  19:28:00       15.914       57.886        0.445       44.174       39.285       22.120     1951.381     1543.298      489.306        0.379        0.199       60.034       20.002        0.111      347.508       26.528      860.183
09/05/2014  19:29:00       -7.384       49.355       -5.753       20.033       38.986       10.186      401.329     1519.877      103.749        0.227        0.101       49.904       15.454        0.096      347.481       26.481      860.203
09/05/2014  19:30:00      -35.260       48.674      -11.813       23.916       30.508       10.772      571.963      930.766      116.032        0.269        0.081       60.104       10.967        0.033      347.366       26.284      860.210
09/05/2014  19:31:00      -45.787       59.090       -9.777       33.236       23.857       13.115     1104.646      569.157      172.012        0.376        0.092       74.754       11.496        0.024      347.355       26.264      860.224
09/05/2014  19:32:00       20.471      150.600      -22.357       37.011       49.993       25.385     1369.849     2499.342      644.420        1.406        0.226      151.985       24.630        0.026      347.478       26.476      860.243
09/05/2014  19:33:00        0.990      111.657      -19.403       34.299       53.855       17.745     1176.452     2900.316      314.892        0.862        0.220      111.661       20.239        0.033      347.518       26.546      860.247
09/05/2014  19:34:00       59.469       68.226        0.476       26.563       43.463       24.967      705.602     1889.058      623.346        0.570        0.161       90.506       23.993        0.070      347.419       26.374      860.257
09/05/2014  19:35:00       21.096       40.839        9.435       32.930       23.207       19.763     1084.369      538.547      390.561        0.211        0.101       45.966       20.093        0.191      347.329       26.218      860.265
09/05/2014  19:36:00      -32.083       69.153      -11.860       28.048       27.174       12.675      786.676      738.407      160.652        0.382        0.084       76.233       12.768        0.028      347.411       26.361      860.282
09/05/2014  19:37:00      -79.466       39.668      -15.641       15.872       23.335       11.809      251.933      544.526      139.463        0.453        0.047       88.816        6.136        0.005      347.347       26.251      860.281
09/05/2014  19:38:00      -59.552       33.466      -11.410       15.988       20.882       13.436      255.621      436.048      180.517        0.283        0.044       68.311        6.574        0.009      347.331       26.223      860.298
09/05/2014  19:39:00      -64.512       57.126      -15.395       17.691       22.175        9.742      312.963      491.750       94.904        0.428        0.045       86.169       10.015        0.014      347.221       26.033      860.304
09/05/2014  19:40:00      -42.041       16.724       -6.264       14.341       19.993        9.664      205.657      399.700       93.388        0.139        0.035       45.246        5.109        0.013      347.118       25.856      860.315
09/05/2014  19:41:00      -48.594       15.473      -10.276       28.036       19.638       14.444      786.038      385.665      208.634        0.204        0.069       50.998       16.207        0.101      347.145       25.901      860.330
09/05/2014  19:42:00      -51.593       23.319       -9.979       17.060       23.904       11.760      291.036      571.378      138.293        0.215        0.050       56.618        9.022        0.025      347.061       25.758      860.343
09/05/2014  19:43:00      -74.668        5.876      -21.587       19.122       26.458       14.629      365.640      700.006      214.013        0.368        0.064       74.899       11.463        0.023      346.856       25.404      860.359
09/05/2014  19:44:00      -81.891        2.680      -17.856       12.070       16.409       13.948      145.685      269.248      194.548        0.382        0.030       81.935        7.970        0.009      346.694       25.128      860.371
09/05/2014  19:45:00      -90.027        4.151      -18.950       21.793       13.968       13.271      474.938      195.117      176.132        0.466        0.042       90.123        6.821        0.006      346.601       24.964      860.385
09/05/2014  19:46:00     -117.599        7.233      -20.961       35.804       17.900       13.512     1281.909      320.399      182.581        0.805        0.089      117.821       13.299        0.013      346.518       24.823      860.388
09/05/2014  19:47:00      -96.465        3.436      -12.188       40.017       21.982       17.685     1601.332      483.226      312.768        0.593        0.120       96.527       19.808        0.042      346.501       24.793      860.402
09/05/2014  19:48:00     -100.348        5.312      -12.685       61.539       28.122       21.174     3787.082      790.875      448.327        0.764        0.251      100.488       18.265        0.033      346.527       24.839      860.422
09/05/2014  19:49:00     -139.618        5.618      -16.699       42.924       32.169       21.608     1842.438     1034.851      466.920        1.157        0.167      139.731       21.981        0.025      346.604       24.971      860.441
09/05/2014  19:50:00     -126.014        8.564      -11.880       31.975       32.107       18.844     1022.404     1030.878      355.112        0.925        0.120      126.305       14.108        0.012      346.595       24.956      860.454
09/05/2014  19:51:00     -134.135       -5.939      -16.497       38.342       28.907       22.062     1470.077      835.623      486.727        1.055        0.140      134.266       19.657        0.021      346.573       24.918      860.472
09/05/2014  19:52:00     -114.086       -4.385      -12.132       36.933       33.752       18.196     1364.013     1139.172      331.112        0.801        0.142      114.170       18.986        0.028      346.576       24.923      860.495
09/05/2014  19:53:00     -114.703       -4.417      -16.124       28.268       20.753       13.515      799.105      430.699      182.643        0.742        0.071      114.788       12.028        0.011      346.570       24.913      860.503
09/05/2014  19:54:00     -100.310      -16.213      -12.830       35.191       21.599       15.869     1238.428      466.504      251.827        0.622        0.098      101.612       16.441        0.026      346.579       24.927      860.520
09/05/2014  19:55:00     -111.066      -18.481      -11.742       39.231       33.261       20.039     1539.070     1106.323      401.574        0.793        0.152      112.593       22.000        0.038      346.531       24.845      860.529
09/05/2014  19:56:00     -115.679      -15.085      -12.485       43.530       25.227       20.035     1894.876      636.388      401.394        0.835        0.147      116.658       17.641        0.023      346.490       24.774      860.541
09/05/2014  19:57:00     -102.457        5.540      -14.870       26.522       31.543       17.886      703.429      994.934      319.898        0.638        0.101      102.607       15.041        0.021      346.530       24.845      860.557
09/05/2014  19:58:00     -140.386       23.348      -21.847       33.880       23.967       15.662     1147.872      574.428      245.303        1.135        0.098      142.315       12.874        0.008      346.522       24.830      860.568
09/05/2014  19:59:00     -140.090       31.761      -13.824       31.073       29.388       18.690      965.518      863.651      349.332        1.150        0.109      143.645       15.495        0.012      346.495       24.784      860.584
09/05/2014  20:00:00     -108.353       26.648      -12.273       32.413       26.689       16.886     1050.605      712.326      285.137        0.732        0.102      111.582       13.322        0.014      346.720       25.171      860.601
09/05/2014  20:01:00     -121.539      -13.326      -12.682       21.751       24.329       13.058      473.127      591.913      170.518        0.817        0.062      122.267       10.465        0.007      346.449       24.704      860.604
09/05/2014  20:02:00     -132.902      -27.765      -15.159       15.238       16.175       11.691      232.194      261.631      136.681        0.965        0.032      135.771        9.020        0.004      346.435       24.680      860.623
09/05/2014  20:03:00     -117.683      -28.322       -8.141       26.392       21.239       16.105      696.558      451.078      259.365        0.806        0.070      121.043       13.919        0.013      346.419       24.655      860.640
09/05/2014  20:04:00     -149.520       -2.488      -18.248       22.126       26.394       15.404      489.539      696.635      237.297        1.206        0.071      149.541       11.216        0.006      346.320       24.483      860.653
09/05/2014  20:05:00     -161.760       22.263      -21.002       28.652       28.091       19.223      820.913      789.103      369.539        1.454        0.099      163.285       17.698        0.012      346.407       24.632      860.673
09/05/2014  20:06:00     -136.043       31.868      -18.929       28.006       27.845       19.803      784.347      775.353      392.178        1.092        0.098      139.725       15.618        0.012      346.497       24.787      860.695
09/05/2014  20:07:00     -105.213       19.207      -13.890       26.605       19.274       14.117      707.811      371.498      199.286        0.645        0.064      106.952        9.137        0.007      346.574       24.920      860.708
09/05/2014  20:08:00      -63.448       48.877      -15.252       27.875       37.037       23.160      777.040     1371.753      536.396        0.467        0.134       80.092       14.368        0.032      346.614       24.989      860.721
09/05/2014  20:09:00      -80.657       37.184      -17.021       25.056       32.151       16.689      627.818     1033.657      278.529        0.506        0.097       88.815       12.903        0.021      346.567       24.908      860.734
09/05/2014  20:10:00      -53.328      -23.434       -1.296       35.669       26.584       19.523     1272.275      706.685      381.152        0.288        0.118       58.249       16.184        0.077      346.595       24.955      860.740
09/05/2014  20:11:00      -86.123      -19.698       -6.219       21.490       18.254       11.182      461.808      333.223      125.034        0.438        0.046       88.347        8.806        0.010      346.331       24.503      860.752
09/05/2014  20:12:00      -78.148       -0.394       -5.313       29.396       48.063       24.740      864.122     2310.065      612.083        0.496        0.189       78.149       12.174        0.024      346.439       24.687      860.769
09/05/2014  20:13:00     -124.314       20.247      -20.493       47.036       45.570       18.512     2212.415     2076.591      342.692        1.046        0.232      125.952       14.821        0.014      346.517       24.821      860.796
09/05/2014  20:14:00     -119.326       76.303      -18.926       50.973       36.196       25.098     2598.277     1310.179      629.929        1.248        0.227      141.637       20.491        0.021      346.576       24.922      860.821
09/05/2014  20:15:00     -110.387      105.370      -22.685       29.428       39.106       22.661      865.981     1529.283      513.507        1.336        0.145      152.605       15.752        0.011      346.485       24.766      860.838
09/05/2014  20:16:00     -123.327       74.295      -24.948       27.934       30.956       23.031      780.331      958.302      530.414        1.181        0.113      143.977       19.949        0.019      346.599       24.963      860.857
09/05/2014  20:17:00     -115.127       58.859      -20.118       24.011       38.098       17.264      576.537     1451.460      298.040        0.972        0.116      129.301       14.781        0.013      346.472       24.744      860.864
09/05/2014  20:18:00     -102.804       -1.392       -8.596       32.808       31.698       19.010     1076.387     1004.782      361.366        0.654        0.122      102.813       15.428        0.023      346.341       24.519      860.864
09/05/2014  20:19:00      -85.399        7.892      -12.605       19.563       30.708       16.960      382.727      942.953      287.644        0.456        0.081       85.763       16.856        0.039      346.364       24.558      860.879
09/05/2014  20:20:00      -65.589        9.667       -4.936       35.057       36.727       22.555     1228.987     1348.862      508.743        0.375        0.154       66.297       22.076        0.111      346.351       24.536      860.885
09/05/2014  20:21:00      -49.043       36.414       -9.736       28.248       37.590       14.025      797.966     1412.983      196.690        0.312        0.120       61.083        6.438        0.011      346.195       24.268      860.901
09/05/2014  20:22:00      -61.535       -4.858      -11.846       17.588       28.863       13.863      309.321      833.064      192.186        0.264        0.067       61.726       11.515        0.035      346.282       24.418      860.894
09/05/2014  20:23:00      -64.855       43.038      -12.277       39.192       64.651       26.064     1535.977     4179.814      679.348        0.630        0.320       77.836       35.066        0.203      346.305       24.458      860.912
09/05/2014  20:24:00      -51.326       73.169        2.157       41.479       65.624       28.207     1720.544     4306.479      795.643        0.741        0.341       89.376       16.496        0.034      346.170       24.225      860.913
09/05/2014  20:25:00      -64.059        1.392       -4.453       26.617       28.928       15.451      708.470      836.810      238.740        0.295        0.089       64.074        9.774        0.023      346.263       24.385      860.919
09/05/2014  20:26:00      -58.345       30.844       -6.655       29.394       26.201       19.312      864.035      686.473      372.952        0.316        0.096       65.996       15.648        0.056      346.262       24.383      860.931
09/05/2014  20:27:00      -36.653       14.394       -1.690       25.078       26.210       16.815      628.920      686.944      282.730        0.158        0.080       39.378       14.672        0.139      346.243       24.349      860.946
09/05/2014  20:28:00      -47.263        3.758       -6.160       13.621       10.005       10.937      185.522      100.100      119.618        0.135        0.020       47.412        7.961        0.028      346.212       24.297      860.964
09/05/2014  20:29:00      -57.151       26.691      -12.927       24.742       16.686       13.637      612.159      278.423      185.976        0.261        0.054       63.076        9.678        0.024      346.322       24.487      860.977
09/05/2014  20:30:00      -79.187       -8.385      -14.318       25.481       14.069        9.169      649.260      197.949       84.073        0.374        0.047       79.630        4.392        0.003      346.086       24.080      860.985
09/05/2014  20:31:00      -85.183      -20.824        0.605       49.537       37.908       25.215     2453.892     1436.983      635.808        0.611        0.226       87.691       28.072        0.102      345.968       23.877      860.988
09/05/2014  20:32:00      -66.199      -22.819       -2.619       26.864       21.641       17.178      721.680      468.349      295.096        0.320        0.074       70.021       13.940        0.040      345.785       23.564      861.005
09/05/2014  20:33:00      -99.536      -28.482       -6.080       36.577       18.006       14.772     1337.882      324.211      218.224        0.632        0.094      103.531       18.320        0.031      345.921       23.798      861.023
09/05/2014  20:34:00      -93.702      -23.773       -6.103       23.860       19.313       12.662      569.289      372.990      160.323        0.524        0.055       96.671       12.666        0.017      345.882       23.732      861.047
09/05/2014  20:35:00      -92.049      -18.645       -7.762       17.827       20.146       11.909      317.810      405.854      141.831        0.487        0.043       93.918        8.511        0.008      345.931       23.815      861.075
09/05/2014  20:36:00     -101.416      -19.018      -10.247       23.597       24.396       17.797      556.828      595.175      316.720        0.611        0.073      103.184       14.419        0.020      345.981       23.900      861.101
09/05/2014  20:37:00      -65.216       -9.822       -7.513       23.138       22.767       11.004      535.382      518.351      121.097        0.279        0.059       65.951       10.222        0.024      345.905       23.770      861.121
09/05/2014  20:38:00      -84.457       11.484       -8.512       26.829       23.709       15.376      719.810      562.097      236.433        0.443        0.076       85.234       10.320        0.015      345.962       23.866      861.136
09/05/2014  20:39:00      -96.714       -6.294       -8.495       25.754       17.147       12.622      663.293      294.035      159.305        0.529        0.056       96.919        9.291        0.009      345.966       23.876      861.157
09/05/2014  20:40:00      -78.924       15.920      -12.226       19.055       19.114       15.291      363.078      365.349      233.808        0.380        0.048       80.514        7.253        0.008      345.916       23.789      861.166
09/05/2014  20:41:00      -87.118        5.539      -14.565       19.591       20.291       13.283      383.805      411.740      176.450        0.440        0.049       87.294       10.024        0.013      345.986       23.908      861.187
09/05/2014  20:42:00      -67.374       18.798       -6.565       24.773       16.420       14.797      613.709      269.614      218.956        0.302        0.055       69.947       10.202        0.021      346.046       24.012      861.191
09/05/2014  20:43:00      -59.862       32.052       -9.032       29.548       23.829       14.006      873.091      567.803      196.173        0.316        0.082       67.903       11.742        0.030      345.932       23.816      861.207
09/05/2014  20:44:00      -91.941       72.933      -17.130       32.758       38.532       19.655     1073.112     1484.681      386.309        0.850        0.147      117.356       19.005        0.026      346.071       24.055      861.212
09/05/2014  20:45:00      -65.332       56.279       -9.235       23.002       39.999       18.330      529.072     1599.920      335.993        0.499        0.123       86.230       19.552        0.051      345.918       23.792      861.222
09/05/2014  20:46:00      -90.085       48.944       -8.665       36.741       27.746       21.528     1349.914      769.816      463.435        0.658        0.129      102.522       17.837        0.030      346.067       24.049      861.226
09/05/2014  20:47:00     -108.621       74.458      -26.791       31.881       35.924       20.815     1016.404     1290.528      433.278        1.040        0.137      131.691       21.943        0.028      346.196       24.270      861.238
09/05/2014  20:48:00      -85.086       79.457      -15.781       25.763       37.248       20.889      663.711     1387.404      436.348        0.814        0.124      116.418       17.300        0.022      345.993       23.922      861.262
09/05/2014  20:49:00     -114.382      102.158      -23.197       31.551       43.406       23.838      995.435     1884.046      568.242        1.375        0.172      153.361       18.630        0.015      346.027       23.978      861.280
09/05/2014  20:50:00      -92.355       80.358      -22.725       28.739       38.134       18.539      825.917     1454.240      343.681        0.906        0.131      122.420        9.771        0.006      346.013       23.956      861.301
09/05/2014  20:51:00      -71.285       61.198      -16.808       27.156       38.235       17.524      737.432     1461.924      307.089        0.581        0.125       93.951       13.520        0.021      345.938       23.825      861.308
09/05/2014  20:52:00      -71.021      -30.931      -10.747       20.834       20.954       17.673      434.074      439.078      312.343        0.365        0.059       77.464       12.247        0.025      345.529       23.123      861.336
09/05/2014  20:53:00      -45.101      -44.915        0.123       48.048       32.153       29.879     2308.572     1033.808      892.761        0.414        0.212       63.651       26.279        0.170      345.360       22.834      861.345
09/05/2014  20:54:00     -129.150     -115.399       -1.843       53.619       47.297       28.173     2875.043     2236.983      793.731        1.795        0.295      173.196       27.002        0.024      345.475       23.031      861.368
09/05/2014  20:55:00     -110.727      -66.167       -2.155       46.659       62.859       29.118     2177.090     3951.231      847.837        1.181        0.349      128.990       22.715        0.031      345.431       22.957      861.371
09/05/2014  20:56:00     -124.733     -111.067        1.327       42.636       49.804       31.192     1817.808     2480.424      972.911        1.658        0.264      167.016       24.434        0.021      345.449       22.985      861.384
09/05/2014  20:57:00     -105.516     -108.131        2.792       61.500       49.988       32.344     3782.227     2498.772     1046.155        1.508        0.366      151.083       31.360        0.043      345.436       22.963      861.385
09/05/2014  20:58:00      -70.948      -55.758        6.268       53.212       48.502       30.093     2831.547     2352.451      905.605        0.713        0.304       90.236       25.133        0.078      345.524       23.117      861.402
09/05/2014  20:59:00      -33.491      -25.475        7.310       57.535       33.079       23.607     3310.264     1094.242      557.293        0.339        0.248       42.079       21.949        0.272      345.420       22.937      861.423
09/05/2014  21:00:00      -27.855      -27.372        7.364       56.923       23.692       14.747     3240.242      561.303      217.486        0.280        0.201       39.053       19.442        0.248      345.564       23.185      861.446
09/05/2014  21:01:00      -86.880      -80.655        2.417       43.279       30.437       21.657     1873.087      926.417      469.036        0.866        0.163      118.547       22.709        0.037      345.650       23.331      861.452
09/05/2014  21:02:00      -58.029      -53.805       17.489       48.333       42.020       29.476     2336.050     1765.714      868.819        0.577        0.249       79.135       28.036        0.126      345.488       23.053      861.472
09/05/2014  21:03:00      -59.953      -49.624        1.395       40.574       30.748       24.976     1646.273      945.439      623.811        0.464        0.161       77.826        7.027        0.008      345.459       23.003      861.486
09/05/2014  21:04:00      -89.151      -62.698        0.883       35.730       30.862       23.119     1276.618      952.458      534.506        0.732        0.138      108.990       21.133        0.038      345.420       22.937      861.518
09/05/2014  21:05:00      -84.054      -47.636       -1.382       39.950       35.539       20.290     1596.022     1263.000      411.692        0.630        0.164       96.614       20.933        0.047      345.475       23.030      861.534
09/05/2014  21:06:00     -156.627      -51.044        1.518       36.723       45.709       25.844     1348.551     2089.345      667.896        1.562        0.205      164.735       23.817        0.021      345.555       23.168      861.550
09/05/2014  21:07:00     -166.933      -55.956       -2.353       50.882       45.137       27.889     2588.978     2037.370      777.799        1.820        0.270      176.061       27.722        0.025      345.504       23.081      861.553
09/05/2014  21:08:00     -143.269      -52.733       -4.173       47.285       37.844       21.674     2235.879     1432.170      469.759        1.373        0.207      152.666       16.593        0.012      345.423       22.942      861.556
09/05/2014  21:09:00     -136.780      -28.354        2.946       57.877       44.881       25.659     3349.769     2014.292      658.382        1.277        0.301      139.688       28.688        0.042      345.334       22.789      861.575
09/05/2014  21:10:00     -137.403      -43.553       -3.507       46.819       48.043       31.441     2192.055     2308.115      988.518        1.314        0.274      144.140       28.549        0.039      345.305       22.740      861.575
09/05/2014  21:11:00     -172.589      -63.231       -5.287       54.689       43.013       24.714     2990.930     1850.134      610.789        1.963        0.273      183.807       21.086        0.013      345.298       22.726      861.584
09/05/2014  21:12:00     -155.451      -29.717       -6.874       36.839       41.194       20.615     1357.133     1696.941      424.997        1.429        0.174      158.266       13.581        0.007      345.296       22.725      861.589
09/05/2014  21:13:00     -156.162      -18.663      -18.861       42.851       34.759       24.469     1836.166     1208.193      598.740        1.437        0.182      157.273       23.296        0.022      345.302       22.736      861.600
09/05/2014  21:14:00     -151.676      -13.172      -14.478       57.925       47.305       26.178     3355.264     2237.763      685.295        1.483        0.314      152.247       27.722        0.033      345.422       22.940      861.613
09/05/2014  21:15:00     -130.377       -5.281       -9.675       44.689       40.884       21.790     1997.128     1671.518      474.823        1.063        0.207      130.484       22.947        0.031      345.452       22.991      861.618
09/05/2014  21:16:00     -100.539        5.825       -7.899       23.483       27.749       23.011      551.474      770.013      529.492        0.603        0.093      100.708       15.693        0.024      345.421       22.938      861.633
09/05/2014  21:17:00     -107.321        4.763      -12.287       27.704       23.705       13.832      767.516      561.930      191.330        0.661        0.076      107.427       10.817        0.010      345.383       22.874      861.633
09/05/2014  21:18:00     -132.770       16.601      -12.900       32.455       38.337       21.849     1053.333     1469.707      477.388        1.053        0.150      133.804       20.210        0.023      345.330       22.783      861.636
09/05/2014  21:19:00     -127.597       39.280      -15.389       41.052       34.355       21.384     1685.275     1180.279      457.282        1.069        0.166      133.506       18.176        0.019      345.250       22.645      861.634
09/05/2014  21:20:00     -104.911       39.737      -12.716       37.714       22.892       19.271     1422.360      524.058      371.356        0.753        0.116      112.185       15.040        0.018      345.300       22.731      861.641
09/05/2014  21:21:00     -122.918       80.879      -17.766       36.937       32.029       22.651     1364.348     1025.867      513.080        1.243        0.145      147.140       26.169        0.032      345.707       23.429      861.639
09/05/2014  21:22:00     -108.736       62.606      -16.915       30.806       24.209       25.280      948.999      586.074      639.057        0.910        0.109      125.472       21.637        0.030      345.663       23.354      861.645
09/05/2014  21:23:00      -79.959       10.503      -11.565       19.143       29.053       16.137      366.450      844.059      260.418        0.405        0.074       80.645       11.333        0.020      345.484       23.046      861.648
09/05/2014  21:24:00      -69.284      -10.810       -6.497       19.318       20.878       12.676      373.192      435.902      160.683        0.296        0.048       70.122       11.692        0.028      345.259       22.662      861.651
09/05/2014  21:25:00      -84.304       -0.081      -13.930       23.592       21.780       12.660      556.599      474.387      160.275        0.425        0.060       84.304        9.557        0.013      345.111       22.408      861.653
09/05/2014  21:26:00     -112.985      -13.448      -15.151       33.285       24.659       14.342     1107.897      608.091      205.700        0.755        0.096      113.783        8.939        0.006      345.159       22.491      861.654
09/05/2014  21:27:00     -127.338      -18.576      -14.436       20.169       20.811       17.273      406.787      433.099      298.360        0.895        0.057      128.686       13.266        0.011      345.099       22.388      861.651
09/05/2014  21:28:00     -108.712        1.724      -15.523       33.235       33.253       28.834     1104.589     1105.766      831.412        0.755        0.152      108.726       24.007        0.049      344.964       22.157      861.659
09/05/2014  21:29:00     -124.101       21.453      -16.480       32.977       34.595       23.597     1087.487     1196.791      556.826        0.949        0.142      125.941       19.679        0.024      344.923       22.085      861.673
09/05/2014  21:30:00     -120.843       11.336       -7.977       36.386       29.808       20.906     1323.919      888.518      437.067        0.872        0.132      121.374       20.605        0.029      344.845       21.953      861.669
09/05/2014  21:31:00     -143.368       43.659      -15.252       40.501       26.689       21.730     1640.371      712.313      472.215        1.276        0.141      149.869       18.139        0.015      344.935       22.106      861.676
09/05/2014  21:32:00     -118.966       28.960      -11.014       32.720       29.839       18.249     1070.596      890.357      333.032        0.870        0.115      122.440       13.033        0.011      344.981       22.186      861.665
09/05/2014  21:33:00      -73.398      -10.815       -5.034       28.990       36.605       16.783      840.447     1339.916      281.674        0.400        0.123       74.191       10.919        0.022      344.942       22.119      861.675
09/05/2014  21:34:00      -80.583      -14.002       -3.635       29.915       31.211       19.123      894.904      974.151      365.689        0.447        0.112       81.790       15.613        0.036      344.943       22.120      861.675
09/05/2014  21:35:00     -102.609        9.817      -10.363       33.336       27.238       20.476     1111.272      741.912      419.251        0.650        0.114      103.078       19.110        0.034      344.848       21.959      861.691
09/05/2014  21:36:00      -99.425       -6.858       -6.240       40.460       32.010       17.708     1636.998     1024.611      313.584        0.647        0.149       99.662       19.828        0.040      344.802       21.879      861.680
09/05/2014  21:37:00      -89.567       -6.612      -10.127       27.058       28.365       17.619      732.147      804.578      310.420        0.501        0.092       89.811        8.162        0.008      344.762       21.809      861.687
09/05/2014  21:38:00     -122.388      -24.493       -7.574       33.932       41.672       22.660     1151.408     1736.545      513.483        0.952        0.170      124.815       18.030        0.021      344.563       21.472      861.684
09/05/2014  21:39:00     -136.498      -35.387       -8.158       28.426       28.510       18.367      808.051      812.810      337.332        1.095        0.098      141.011       12.580        0.008      344.489       21.344      861.695
09/05/2014  21:40:00     -132.033      -35.881      -14.347       34.054       31.568       21.666     1159.689      996.526      469.416        1.078        0.131      136.822       20.583        0.023      344.411       21.210      861.706
09/05/2014  21:41:00     -135.042       -6.759      -16.396       28.175       24.709       18.915      793.857      610.556      357.786        1.016        0.088      135.211       12.468        0.009      344.419       21.223      861.713
09/05/2014  21:42:00     -109.934      -48.052       -7.101       36.952       29.763       21.853     1365.430      885.812      477.541        0.859        0.136      119.977       17.566        0.021      344.431       21.245      861.729
09/05/2014  21:43:00     -122.484      -38.587      -10.146       14.774       16.856       11.424      218.259      284.125      130.503        0.861        0.032      128.419        6.046        0.002      344.470       21.312      861.735
09/05/2014  21:44:00     -115.627      -72.882       -7.576       27.857       23.399       16.765      776.018      547.499      281.082        1.017        0.080      136.680       12.321        0.008      344.477       21.323      861.745
09/05/2014  21:45:00     -103.127      -23.783       -1.582       44.271       25.753       17.892     1959.897      663.212      320.136        0.707        0.147      105.834       19.620        0.034      344.421       21.228      861.751
09/05/2014  21:46:00     -105.646      -20.268       -3.930       33.433       25.604       17.312     1117.746      655.582      299.692        0.683        0.104      107.573       18.087        0.028      344.392       21.179      861.754
09/05/2014  21:47:00      -72.450      -12.988       -0.807       33.888       28.070       13.829     1148.406      787.929      191.252        0.377        0.106       73.605       14.067        0.037      344.314       21.045      861.756
09/05/2014  21:48:00     -116.805        1.908      -14.635       14.493       15.387       12.375      210.050      236.746      153.139        0.723        0.030      116.820        7.281        0.004      344.298       21.020      861.761
09/05/2014  21:49:00     -110.751      -10.016       -6.011       30.190       23.856       18.030      911.463      569.096      325.092        0.710        0.090      111.203       16.822        0.023      344.285       20.994      861.771
09/05/2014  21:50:00     -102.951      -21.422       -0.715       37.417       31.303       17.551     1399.997      979.872      308.045        0.687        0.134      105.156       19.339        0.034      344.174       20.806      861.773
09/05/2014  21:51:00     -101.984      -36.157       -3.257       25.050       37.792       18.629      627.523     1428.242      347.030        0.706        0.120      108.204       19.674        0.033      344.211       20.869      861.776
09/05/2014  21:52:00      -61.362      -45.041        2.776       63.706       33.620       22.508     4058.450     1130.287      506.628        0.575        0.285       76.118       25.733        0.114      344.204       20.856      861.777
09/05/2014  21:53:00      -99.505      -68.141       -3.270       34.476       29.075       21.740     1188.601      845.373      472.639        0.853        0.125      120.600       17.667        0.021      344.212       20.869      861.778
09/05/2014  21:54:00     -139.668      -55.072       -9.062       21.232       21.237       14.391      450.784      450.998      207.089        1.187        0.055      150.134        3.309        0.000      344.238       20.917      861.784
09/05/2014  21:55:00      -61.491      -42.528        4.522       41.507       32.188       22.640     1722.840     1036.096      512.548        0.444        0.164       74.764       17.923        0.057      344.188       20.829      861.787
09/05/2014  21:56:00      -90.696      -64.794        2.759       58.930       28.638       19.212     3472.756      820.112      369.099        0.855        0.233      111.463       22.083        0.039      344.179       20.816      861.800
09/05/2014  21:57:00      -88.637      -76.224        2.146       48.679       28.741       29.836     2369.669      826.074      890.179        0.888        0.204      116.905       17.393        0.022      344.096       20.672      861.808
09/05/2014  21:58:00     -106.933      -65.881       -3.306       48.678       28.544       24.643     2369.585      814.732      607.298        0.979        0.190      125.598       20.671        0.027      344.077       20.639      861.815
09/05/2014  21:59:00     -139.974      -62.815       -1.335       52.214       37.618       20.101     2726.319     1415.132      404.032        1.404        0.227      153.422       18.415        0.014      344.125       20.721      861.821
09/05/2014  22:00:00     -151.519      -63.697        0.669       42.188       28.969       23.014     1779.857      839.199      529.641        1.508        0.157      164.363       23.400        0.020      344.077       20.640      861.821
09/05/2014  22:01:00     -157.349      -36.918      -10.514       29.351       22.559       14.988      861.473      508.903      224.631        1.391        0.080      161.622       10.664        0.004      344.055       20.604      861.824
09/05/2014  22:02:00     -140.968      -51.300       -0.851       29.641       31.477       16.481      878.577      990.819      271.636        1.232        0.107      150.012       12.020        0.006      344.073       20.633      861.816
09/05/2014  22:03:00     -115.798      -58.854        4.724       51.014       38.483       21.450     2602.411     1480.913      460.094        1.072        0.227      129.896       23.349        0.032      343.977       20.468      861.821
09/05/2014  22:04:00      -81.951      -58.859        1.398       39.707       37.435       25.605     1576.661     1401.404      655.637        0.691        0.182      100.898       17.854        0.031      343.983       20.479      861.830
09/05/2014  22:05:00      -50.572      -46.888       19.980       51.887       43.638       29.861     2692.236     1904.295      891.670        0.532        0.274       68.964       26.222        0.145      343.930       20.388      861.835
09/05/2014  22:06:00      -52.736      -56.096        5.674       46.822       36.000       23.606     2192.335     1296.013      557.229        0.500        0.202       76.992       20.120        0.068      343.864       20.275      861.853
09/05/2014  22:07:00      -48.971      -62.815        7.407       43.835       38.694       26.717     1921.517     1497.213      713.788        0.526        0.207       79.649       24.036        0.091      343.876       20.297      861.865
09/05/2014  22:08:00      -40.160      -35.259        9.922       45.727       32.185       28.278     2090.984     1035.885      799.636        0.344        0.196       53.442       29.694        0.309      343.893       20.326      861.873
09/05/2014  22:09:00      -29.807      -36.445       11.556       26.710       18.363       16.063      713.402      337.182      258.026        0.183        0.065       47.082       16.240        0.119      343.948       20.420      861.891
09/05/2014  22:10:00      -38.376      -39.124        2.814       27.084       17.541       10.987      733.562      307.702      120.710        0.209        0.058       54.803       11.342        0.043      343.903       20.342      861.904
09/05/2014  22:11:00      -28.870      -48.571        2.471       27.319       22.963       18.451      746.336      527.299      340.438        0.241        0.081       56.503       18.815        0.111      343.947       20.418      861.923
09/05/2014  22:12:00      -39.424      -46.402        3.189       34.706       23.797       19.213     1204.520      566.312      369.126        0.293        0.107       60.888       17.607        0.084      343.894       20.328      861.929
09/05/2014  22:13:00      -61.951      -48.522        3.610       33.128       26.862       19.621     1097.470      721.582      384.971        0.420        0.110       78.691       16.689        0.045      343.864       20.277      861.937
09/05/2014  22:14:00      -48.183      -43.191        6.219       40.383       32.736       19.570     1630.803     1071.625      382.996        0.366        0.154       64.708       21.688        0.112      343.815       20.193      861.935
09/05/2014  22:15:00      -43.104      -34.350        3.014       30.938       23.561       18.598      957.162      555.127      345.885        0.245        0.093       55.117        9.836        0.032      343.737       20.059      861.945
09/05/2014  22:16:00      -53.495      -47.764       -1.166       39.462       25.279       20.848     1557.279      639.007      434.656        0.389        0.132       71.716       19.343        0.073      343.726       20.040      861.946
09/05/2014  22:17:00      -26.447      -35.645       10.906       30.175       23.120       20.238      910.553      534.541      409.562        0.197        0.093       44.385       17.216        0.150      343.648       19.907      861.952
09/05/2014  22:18:00      -97.426      -54.161        0.994       41.506       28.511       24.224     1722.783      812.882      586.813        0.777        0.156      111.469       21.049        0.036      343.694       19.985      861.966
09/05/2014  22:19:00      -73.229      -63.063       -4.739       42.647       38.226       21.038     1818.772     1461.190      442.615        0.654        0.186       96.640       21.209        0.048      343.688       19.975      861.965
09/05/2014  22:20:00      -93.576      -48.605       -0.022       34.083       17.527       18.041     1161.624      307.201      325.470        0.646        0.090      105.446       16.775        0.025      343.702       20.000      861.982
09/05/2014  22:21:00      -93.762      -60.256        2.038       35.145       25.822       17.747     1235.205      666.799      314.946        0.732        0.111      111.454       13.562        0.015      343.705       20.005      861.980
09/05/2014  22:22:00      -97.517      -52.075        0.675       39.729       24.019       22.065     1578.402      576.897      486.866        0.743        0.132      110.550       21.547        0.038      343.684       19.969      861.985
09/05/2014  22:23:00      -53.820      -36.240        1.893       37.508       24.550       17.330     1406.840      602.700      300.327        0.326        0.115       64.884       17.909        0.076      343.620       19.860      861.991
09/05/2014  22:24:00      -44.502      -32.790        4.463       34.988       20.712       15.340     1224.132      428.994      235.304        0.248        0.094       55.278       14.361        0.067      343.587       19.804      861.988
09/05/2014  22:25:00      -14.830      -32.505       13.674       37.112       26.403       20.599     1377.282      697.125      424.324        0.198        0.125       35.728       19.422        0.296      343.546       19.734      861.997
09/05/2014  22:26:00      -83.384      -57.998      -14.037       26.927       16.586       16.197      725.077      275.082      262.353        0.589        0.063      101.571       13.752        0.018      343.696       19.989      861.998
09/05/2014  22:27:00      -58.253      -39.925      -13.692       28.610       14.516       14.865      818.508      210.726      220.957        0.321        0.063       70.622       13.356        0.036      343.688       19.977      862.010
09/05/2014  22:28:00      -64.090      -31.758       -6.216       14.629       12.143       10.804      214.001      147.452      116.726        0.282        0.024       71.527        8.566        0.014      343.749       20.081      862.022
09/05/2014  22:29:00      -65.098      -40.870      -17.143       18.006       11.594       12.673      324.213      134.415      160.595        0.341        0.031       76.864        7.932        0.011      343.768       20.112      862.013
09/05/2014  22:30:00     -105.332      -50.990       -8.499       14.613       16.481       11.514      213.554      271.627      132.567        0.719        0.031      117.025        7.082        0.004      343.705       20.004      862.015
09/05/2014  22:31:00     -117.400      -55.272      -13.510       17.070       14.634       10.423      291.371      214.162      108.645        0.882        0.031      129.760        7.173        0.003      343.681       19.963      862.004
09/05/2014  22:32:00     -101.444      -58.445       -9.347       21.107       12.835       14.417      445.492      164.749      207.846        0.731        0.041      117.076        9.753        0.007      343.576       19.784      862.008
09/05/2014  22:33:00      -84.654      -63.855       -7.724       17.413       13.845       15.529      303.227      191.677      241.146        0.602        0.037      106.036        9.212        0.008      343.573       19.780      862.015
09/05/2014  22:34:00      -77.298      -42.135      -11.093       19.068       14.213       12.627      363.593      202.011      159.449        0.430        0.036       88.036        8.169        0.009      343.609       19.841      862.006
09/05/2014  22:35:00      -97.968      -53.357      -13.974       12.459       15.101       11.194      155.233      228.026      125.302        0.657        0.025      111.556        5.706        0.003      343.626       19.870      862.019
09/05/2014  22:36:00     -114.245      -47.003      -19.562       11.661       13.591       10.336      135.980      184.717      106.830        0.804        0.021      123.536        8.456        0.005      343.598       19.824      862.011
09/05/2014  22:37:00     -127.383      -30.261      -13.304       13.374       14.199       11.821      178.852      201.614      139.747        0.892        0.026      130.928        6.207        0.002      343.547       19.735      862.005
09/05/2014  22:38:00     -125.263      -39.697       -9.509       14.878       16.895       12.045      221.344      285.456      145.082        0.900        0.033      131.403        3.746        0.001      343.462       19.592      862.004
09/05/2014  22:39:00     -104.778      -44.662       -9.319       26.095       20.553       13.200      680.962      422.429      174.248        0.717        0.064      113.899        9.621        0.007      343.446       19.563      861.996
09/05/2014  22:40:00      -94.204      -49.483       -3.030       35.045       26.003       16.732     1228.168      676.143      279.950        0.676        0.109      106.410       16.068        0.023      343.354       19.407      861.983
09/05/2014  22:41:00      -97.434      -54.240       -5.155       31.227       22.868       14.313      975.147      522.924      204.869        0.708        0.085      111.514       11.983        0.012      343.350       19.400      861.991
09/05/2014  22:42:00      -89.195      -50.457        3.222       37.981       24.957       19.974     1442.588      622.867      398.956        0.649        0.123      102.477       16.112        0.025      343.273       19.268      861.984
09/05/2014  22:43:00     -106.647      -61.166        3.774       32.849       29.918       23.706     1079.056      895.093      561.958        0.883        0.127      122.942       17.991        0.021      343.362       19.420      861.977
09/05/2014  22:44:00     -114.251      -63.323       -2.529       37.722       23.786       21.133     1422.977      565.788      446.602        0.975        0.122      130.626       21.674        0.028      343.322       19.353      861.983
09/05/2014  22:45:00     -124.665      -60.431      -11.350       30.990       23.432       16.150      960.378      549.044      260.829        1.055        0.089      138.540       10.184        0.005      343.327       19.361      861.977
09/05/2014  22:46:00     -129.410      -69.078       -3.021       32.410       27.700       17.166     1050.376      767.272      294.662        1.182        0.106      146.693       18.122        0.015      343.318       19.345      861.970
09/05/2014  22:47:00     -142.068      -62.564       -7.807       26.314       20.109       15.493      692.430      404.360      240.044        1.275        0.067      155.234       14.035        0.008      343.353       19.404      861.967
09/05/2014  22:48:00     -142.746      -61.264       -3.869       34.748       25.664       20.287     1207.438      658.617      411.547        1.321        0.114      155.337       19.453        0.016      343.284       19.287      861.955
09/05/2014  22:49:00     -160.361      -41.161      -13.278       21.959       21.194       14.831      482.176      449.181      219.945        1.437        0.058      165.559        9.558        0.003      343.234       19.204      861.957
09/05/2014  22:50:00     -112.690      -56.887       -9.387       20.689       17.127       13.639      428.017      293.351      186.021        0.847        0.045      126.235       10.683        0.007      343.279       19.280      861.954
09/05/2014  22:51:00     -100.664      -60.038       -9.149       22.827       17.236       17.691      521.062      297.087      312.967        0.748        0.057      117.208       11.907        0.010      343.206       19.155      861.948
09/05/2014  22:52:00      -96.688      -52.890       -5.946       19.141       22.605       13.694      366.364      510.985      187.518        0.662        0.053      110.208       10.191        0.009      343.288       19.293      861.965
09/05/2014  22:53:00      -86.511      -54.104       -6.797       13.132       13.598        8.164      172.449      184.901       66.648        0.544        0.021      102.036        5.983        0.003      343.305       19.322      861.971
09/05/2014  22:54:00      -60.363      -54.841        0.598       31.455       21.314       17.201      989.404      454.302      295.865        0.420        0.087       81.555       14.731        0.033      343.259       19.245      861.985
09/05/2014  22:55:00      -47.616      -46.372        7.907       39.988       28.480       21.174     1599.001      811.098      448.334        0.367        0.143       66.465       20.980        0.100      343.221       19.179      861.992
09/05/2014  22:56:00     -100.091      -73.017        2.654       34.089       30.667       21.240     1162.068      940.470      451.132        0.895        0.128      123.894       19.356        0.024      343.386       19.461      861.986
09/05/2014  22:57:00      -59.324      -33.331        6.632       39.649       25.539       20.527     1572.034      652.239      421.339        0.366        0.132       68.046       19.928        0.086      343.355       19.409      861.981
09/05/2014  22:58:00      -67.431      -40.921       -0.008       44.340       38.212       23.733     1966.055     1460.184      563.244        0.510        0.199       78.876       23.564        0.089      343.285       19.287      861.980
09/05/2014  22:59:00      -90.573      -62.594       -1.013       34.266       33.424       24.353     1174.175     1117.176      593.083        0.750        0.144      110.098       22.067        0.040      343.291       19.300      861.961
09/05/2014  23:00:00      -85.650      -73.166        1.170       36.090       30.675       21.088     1302.503      940.980      444.724        0.769        0.134      112.646       16.421        0.021      343.247       19.224      861.954
09/05/2014  23:01:00      -60.046      -39.329        7.752       46.354       35.714       21.662     2148.698     1275.522      469.264        0.455        0.195       71.779       20.908        0.085      343.221       19.179      861.948
09/05/2014  23:02:00      -91.550      -60.787        3.500       47.066       29.885       20.582     2215.199      893.134      423.624        0.781        0.177      109.893       21.010        0.037      343.214       19.168      861.945
09/05/2014  23:03:00     -114.770      -52.397        3.029       47.400       28.900       23.901     2246.779      835.187      571.274        0.979        0.183      126.165       25.160        0.040      343.246       19.222      861.955
09/05/2014  23:04:00     -126.593      -50.572       -4.559       31.479       26.817       15.375      990.943      719.170      236.391        1.027        0.097      136.320       17.678        0.017      343.262       19.251      861.961
09/05/2014  23:05:00     -112.108      -55.360       -1.748       37.476       21.832       16.821     1404.424      476.648      282.939        0.890        0.108      125.032       18.463        0.022      343.240       19.212      861.965
09/05/2014  23:06:00     -114.782      -66.410        0.120       23.345       17.325       17.098      545.003      300.171      292.349        0.936        0.057      132.609       12.538        0.009      343.299       19.314      861.980
09/05/2014  23:07:00      -96.602      -69.494       -3.347       27.492       27.425       16.570      755.795      752.105      274.581        0.798        0.089      119.002       16.732        0.020      343.399       19.482      861.985
09/05/2014  23:08:00      -84.015      -51.397       -3.056       26.795       18.460       13.436      717.972      340.757      180.537        0.547        0.062       98.489       12.128        0.015      343.387       19.464      861.991
09/05/2014  23:09:00     -113.953      -43.094       -6.048       10.659       13.812        9.459      113.624      190.770       89.480        0.764        0.020      121.830        5.665        0.002      343.418       19.513      862.007
09/05/2014  23:10:00      -92.330      -41.938        1.676       28.024       22.615       15.100      785.367      511.454      228.011        0.591        0.076      101.409       14.119        0.019      343.418       19.514      862.005
09/05/2014  23:11:00      -97.017      -16.549       -8.061       24.698       24.111       13.834      609.993      581.325      191.389        0.557        0.069       98.418       13.972        0.020      343.416       19.511      861.992
09/05/2014  23:12:00     -101.145      -29.617      -13.713       11.373       12.180        9.802      129.355      148.344       96.089        0.583        0.019      105.392        5.452        0.003      343.408       19.499      861.991
09/05/2014  23:13:00      -99.078      -29.900       -8.736       15.328       11.568       10.042      234.955      133.819      100.847        0.563        0.023      103.491        7.677        0.006      343.413       19.507      861.990
09/05/2014  23:14:00     -103.691      -37.653      -13.210       11.884       11.309        9.805      141.229      127.891       96.146        0.635        0.018      110.316        2.272        0.000      343.331       19.367      861.978
09/05/2014  23:15:00     -102.932      -52.448       -9.072       15.558        9.799        7.657      242.036       96.016       58.624        0.691        0.020      115.524        3.188        0.001      343.300       19.314      861.980
09/05/2014  23:16:00     -115.773      -44.635      -10.366       18.413       12.435       12.131      339.047      154.640      147.156        0.807        0.032      124.079        9.429        0.006      343.256       19.238      861.986
09/05/2014  23:17:00      -88.813      -29.960       -6.001       11.683       14.032        9.742      136.501      196.911       94.904        0.462        0.021       93.730        4.158        0.002      343.183       19.116      861.994
09/05/2014  23:18:00      -78.603      -39.412      -13.213       14.204       17.560        8.806      201.744      308.366       77.552        0.425        0.029       87.931        7.054        0.006      343.226       19.189      861.994
09/05/2014  23:19:00      -23.675      -31.324        0.639       41.159       22.778       18.197     1694.024      518.848      331.135        0.204        0.127       39.264       19.349        0.243      343.156       19.069      861.996
09/05/2014  23:20:00      -29.849      -42.561       10.776       35.226       32.186       19.566     1240.886     1035.926      382.836        0.274        0.133       51.985       22.366        0.185      343.140       19.042      862.007
09/05/2014  23:21:00      -74.127      -82.465       -4.047       50.276       45.656       23.322     2527.711     2084.511      543.904        0.873        0.258      110.884       18.285        0.027      343.132       19.028      862.002
09/05/2014  23:22:00     -102.847      -95.093       -3.632       47.586       51.771       31.514     2264.464     2680.259      993.134        1.278        0.297      140.072       26.925        0.037      343.007       18.817      861.995
09/05/2014  23:23:00     -113.700      -99.052       -8.718       39.263       45.711       27.192     1541.561     2089.456      739.405        1.359        0.219      150.795       17.907        0.014      342.944       18.709      862.003
09/05/2014  23:24:00     -113.188      -93.425      -12.303       58.201       37.861       31.501     3387.362     1433.449      992.283        1.375        0.291      146.764       31.318        0.046      342.939       18.699      861.994
09/05/2014  23:25:00      -47.784      -61.664        7.440       36.508       34.785       25.044     1332.825     1210.020      627.194        0.466        0.159       78.011       14.474        0.034      342.923       18.673      862.004
09/05/2014  23:26:00      -91.405      -66.831       -3.620       49.932       33.640       28.221     2493.233     1131.660      796.437        0.863        0.221      113.231       25.993        0.053      342.798       18.461      862.010
09/05/2014  23:27:00     -106.708      -54.820       -7.384       93.013       51.468       35.099     8651.384     2648.996     1231.948        1.349        0.627      119.965       41.889        0.122      342.758       18.391      862.001
09/05/2014  23:28:00     -146.376     -102.279       -2.805       59.869       42.375       36.157     3584.334     1795.627     1307.365        1.929        0.334      178.569       25.471        0.020      342.657       18.218      862.003
09/05/2014  23:29:00     -114.739      -72.754        3.363       73.485       69.033       46.979     5400.076     4765.548     2206.996        1.542        0.619      135.861       49.499        0.133      342.620       18.156      862.012
09/05/2014  23:30:00     -166.836      -90.790      -20.734       70.098       37.896       32.848     4913.795     1436.100     1078.976        2.197        0.371      189.940       25.613        0.018      342.621       18.156      862.019
09/05/2014  23:31:00     -137.911      -89.828        2.869       81.419       63.434       46.773     6629.069     4023.891     2187.729        1.997        0.642      164.585       42.335        0.066      342.499       17.949      862.021
09/05/2014  23:32:00     -183.638     -119.905       -2.664       60.885       53.942       36.481     3707.010     2909.697     1330.864        2.803        0.397      219.317       31.686        0.021      342.526       17.994      862.027
09/05/2014  23:33:00     -124.970      -85.685        3.652       96.329       59.982       40.011     9279.338     3597.858     1600.876        1.872        0.724      151.523       47.369        0.098      342.466       17.894      862.042
09/05/2014  23:34:00     -176.958     -138.167      -11.290       75.936       54.642       45.059     5766.219     2985.743     2030.328        3.066        0.539      224.508       48.796        0.047      342.469       17.899      862.046
09/05/2014  23:35:00     -164.404     -127.601      -15.140       47.975       60.977       28.131     2301.581     3718.146      791.370        2.517        0.341      208.112       21.231        0.010      342.493       17.939      862.050
09/05/2014  23:36:00     -163.402      -91.005       -7.047       40.781       37.649       28.523     1663.082     1417.472      813.561        1.946        0.195      187.035       17.752        0.009      342.470       17.901      862.057
09/05/2014  23:37:00     -144.396     -104.432        0.449       61.163       59.455       30.844     3740.886     3534.949      951.371        1.999        0.411      178.203       36.859        0.043      342.526       17.995      862.056
09/05/2014  23:38:00     -136.574     -106.777        1.188       66.046       41.050       32.718     4362.021     1685.126     1070.438        1.859        0.356      173.360       25.237        0.021      342.548       18.032      862.042
09/05/2014  23:39:00      -97.800      -65.531        7.216       65.573       50.762       32.096     4299.797     2576.789     1030.147        1.091        0.395      117.725       31.736        0.073      342.532       18.007      862.048
09/05/2014  23:40:00      -81.301      -60.672        6.429       67.103       49.779       28.479     4502.846     2477.910      811.045        0.906        0.390      101.444       34.393        0.115      342.560       18.055      862.056
09/05/2014  23:41:00     -145.248      -78.253        2.896       36.740       30.349       23.930     1349.845      921.068      572.663        1.504        0.142      164.986       19.423        0.014      342.585       18.098      862.049
09/05/2014  23:42:00     -109.736      -61.674        6.060       40.910       27.900       25.081     1673.623      778.422      629.042        0.948        0.154      125.880       21.025        0.028      342.577       18.084      862.053
09/05/2014  23:43:00     -131.826      -54.604       -7.535       22.112       21.748       17.218      488.920      472.997      296.445        1.084        0.063      142.687       12.479        0.008      342.646       18.199      862.068
09/05/2014  23:44:00     -115.342      -59.346        1.257       40.821       26.245       18.446     1666.329      688.812      340.241        0.976        0.135      129.714       17.637        0.018      342.611       18.141      862.074
09/05/2014  23:45:00     -101.007      -81.570        5.075       47.852       40.830       28.361     2289.821     1667.124      804.330        1.082        0.238      129.831       28.737        0.049      342.561       18.056      862.098
09/05/2014  23:46:00     -105.368      -92.819        1.961       50.626       35.387       31.165     2563.038     1252.247      971.284        1.225        0.239      140.420       24.189        0.030      342.444       17.858      862.122
09/05/2014  23:47:00      -87.980      -76.086       10.540       47.673       39.021       26.554     2272.690     1522.625      705.140        0.907        0.225      116.316       27.608        0.056      342.418       17.815      862.135
09/05/2014  23:48:00     -120.455      -89.655        6.678       50.774       38.903       32.716     2578.046     1513.413     1070.323        1.388        0.258      150.158       30.197        0.040      342.512       17.974      862.156
09/05/2014  23:49:00      -98.480      -78.638        5.219       55.324       43.156       33.193     3060.706     1862.409     1101.769        1.097        0.301      126.025       26.562        0.044      342.485       17.928      862.171
09/05/2014  23:50:00     -149.758      -60.848      -12.339       21.701       20.200       13.828      470.929      408.026      191.209        1.368        0.054      161.647        9.767        0.004      342.475       17.911      862.161
09/05/2014  23:51:00     -140.273      -38.082       -7.382       36.168       30.652       19.900     1308.109      939.570      395.999        1.191        0.132      145.350       21.136        0.021      342.351       17.700      862.160
09/05/2014  23:52:00     -154.509      -20.126      -10.370       49.052       28.021       21.399     2406.106      785.174      457.936        1.402        0.182      155.814       22.916        0.022      342.395       17.775      862.157
09/05/2014  23:53:00     -146.089      -26.699      -15.700       39.243       33.175       28.420     1540.014     1100.594      807.690        1.287        0.172      148.509       22.769        0.024      342.527       18.000      862.146
09/05/2014  23:54:00     -175.332       37.856      -16.132       60.055       46.951       29.644     3606.563     2204.371      878.771        1.956        0.334      179.372       28.818        0.026      342.733       18.347      862.129
09/05/2014  23:55:00     -176.398       47.822      -11.270       37.582       42.957       27.717     1412.419     1845.335      768.231        1.878        0.201      182.766       18.654        0.010      342.849       18.546      862.116
09/05/2014  23:56:00     -160.264       52.774      -16.259       55.860       39.964       31.274     3120.353     1597.093      978.037        1.721        0.285      168.729       22.256        0.017      342.799       18.461      862.093
09/05/2014  23:57:00     -152.651       42.288      -11.256       69.398       44.346       29.592     4816.020     1966.608      875.672        1.644        0.383      158.400       30.478        0.037      342.869       18.580      862.082
09/05/2014  23:58:00     -106.977       45.795      -10.937       63.659       44.347       28.493     4052.415     1966.647      811.854        1.024        0.342      116.367       22.137        0.036      342.952       18.722      862.080
09/05/2014  23:59:00      -73.939       20.695       -4.048       47.655       22.605       18.788     2270.965      510.973      353.003        0.452        0.157       76.780       15.046        0.038      342.825       18.506      862.074
